﻿<?xml version="1.0" encoding="utf-8"?><gpx creator="Garmin Desktop App" version="1.1" xsi:schemaLocation="http://www.topografix.com/GPX/1/1 http://www.topografix.com/GPX/1/1/gpx.xsd http://www.garmin.com/xmlschemas/WaypointExtension/v1 http://www8.garmin.com/xmlschemas/WaypointExtensionv1.xsd http://www.garmin.com/xmlschemas/TrackPointExtension/v1 http://www.garmin.com/xmlschemas/TrackPointExtensionv1.xsd http://www.garmin.com/xmlschemas/GpxExtensions/v3 http://www8.garmin.com/xmlschemas/GpxExtensionsv3.xsd http://www.garmin.com/xmlschemas/ActivityExtension/v1 http://www8.garmin.com/xmlschemas/ActivityExtensionv1.xsd http://www.garmin.com/xmlschemas/AdventuresExtensions/v1 http://www8.garmin.com/xmlschemas/AdventuresExtensionv1.xsd http://www.garmin.com/xmlschemas/PressureExtension/v1 http://www.garmin.com/xmlschemas/PressureExtensionv1.xsd http://www.garmin.com/xmlschemas/TripExtensions/v1 http://www.garmin.com/xmlschemas/TripExtensionsv1.xsd http://www.garmin.com/xmlschemas/TripMetaDataExtensions/v1 http://www.garmin.com/xmlschemas/TripMetaDataExtensionsv1.xsd http://www.garmin.com/xmlschemas/ViaPointTransportationModeExtensions/v1 http://www.garmin.com/xmlschemas/ViaPointTransportationModeExtensionsv1.xsd http://www.garmin.com/xmlschemas/CreationTimeExtensions/v1 http://www.garmin.com/xmlschemas/CreationTimeExtensionsv1.xsd" xmlns="http://www.topografix.com/GPX/1/1" xmlns:xsi="http://www.w3.org/2001/XMLSchema-instance" xmlns:wptx1="http://www.garmin.com/xmlschemas/WaypointExtension/v1" xmlns:gpxtrx="http://www.garmin.com/xmlschemas/GpxExtensions/v3" xmlns:gpxtpx="http://www.garmin.com/xmlschemas/TrackPointExtension/v1" xmlns:gpxx="http://www.garmin.com/xmlschemas/GpxExtensions/v3" xmlns:trp="http://www.garmin.com/xmlschemas/TripExtensions/v1" xmlns:adv="http://www.garmin.com/xmlschemas/AdventuresExtensions/v1" xmlns:prs="http://www.garmin.com/xmlschemas/PressureExtension/v1" xmlns:tmd="http://www.garmin.com/xmlschemas/TripMetaDataExtensions/v1" xmlns:vptm="http://www.garmin.com/xmlschemas/ViaPointTransportationModeExtensions/v1" xmlns:ctx="http://www.garmin.com/xmlschemas/CreationTimeExtension/v1">

  <metadata>
    <link href="http://www.garmin.com">
      <text>Garmin International</text>
    </link>
    <time>2014-03-16T08:28:32Z</time>
    <bounds maxlat="45.943512115627527" maxlon="8.748758705332875" minlat="45.926680751144886" minlon="8.708758670836687" />
  </metadata>

  <trk>
    <name>s-martino-s-michele-colonna2014-03-15</name>
    <extensions>
      <gpxx:TrackExtension>
        <gpxx:DisplayColor>Yellow</gpxx:DisplayColor>
      </gpxx:TrackExtension>
    </extensions>
    <trkseg>
      <trkpt lat="45.928260739892721" lon="8.742135660722852">
        <ele>1057.1099999999999</ele>
        <time>2014-03-15T08:09:04Z</time>
      </trkpt>
      <trkpt lat="45.928281862288713" lon="8.742093415930867">
        <ele>1057.1099999999999</ele>
        <time>2014-03-15T08:09:31Z</time>
      </trkpt>
      <trkpt lat="45.928218411281705" lon="8.74219223856926">
        <ele>1057.5899999999999</ele>
        <time>2014-03-15T08:09:53Z</time>
      </trkpt>
      <trkpt lat="45.928209191188216" lon="8.742253258824348">
        <ele>1057.1099999999999</ele>
        <time>2014-03-15T08:10:12Z</time>
      </trkpt>
      <trkpt lat="45.928183542564511" lon="8.742286954075098">
        <ele>1057.1099999999999</ele>
        <time>2014-03-15T08:10:25Z</time>
      </trkpt>
      <trkpt lat="45.928169041872025" lon="8.742286367341876">
        <ele>1057.1099999999999</ele>
        <time>2014-03-15T08:10:48Z</time>
      </trkpt>
      <trkpt lat="45.928160576149821" lon="8.74228117056191">
        <ele>1057.5899999999999</ele>
        <time>2014-03-15T08:11:01Z</time>
      </trkpt>
      <trkpt lat="45.928204245865345" lon="8.742249067872763">
        <ele>1056.1500000000001</ele>
        <time>2014-03-15T08:11:29Z</time>
      </trkpt>
      <trkpt lat="45.928222937509418" lon="8.742265496402979">
        <ele>1056.1500000000001</ele>
        <time>2014-03-15T08:11:51Z</time>
      </trkpt>
      <trkpt lat="45.928166778758168" lon="8.742243032902479">
        <ele>1056.6300000000001</ele>
        <time>2014-03-15T08:12:28Z</time>
      </trkpt>
      <trkpt lat="45.928119588643312" lon="8.742386447265744">
        <ele>1057.1099999999999</ele>
        <time>2014-03-15T08:12:39Z</time>
      </trkpt>
      <trkpt lat="45.928044319152832" lon="8.742486527189612">
        <ele>1057.5899999999999</ele>
        <time>2014-03-15T08:12:51Z</time>
      </trkpt>
      <trkpt lat="45.928054545074701" lon="8.742540087550879">
        <ele>1059.51</ele>
        <time>2014-03-15T08:13:00Z</time>
      </trkpt>
      <trkpt lat="45.928097292780876" lon="8.742637652903795">
        <ele>1061.4300000000001</ele>
        <time>2014-03-15T08:13:15Z</time>
      </trkpt>
      <trkpt lat="45.928115397691727" lon="8.742648549377918">
        <ele>1061.4300000000001</ele>
        <time>2014-03-15T08:13:30Z</time>
      </trkpt>
      <trkpt lat="45.928168790414929" lon="8.742648214101791">
        <ele>1061.9100000000001</ele>
        <time>2014-03-15T08:13:36Z</time>
      </trkpt>
      <trkpt lat="45.928319999948144" lon="8.742609489709139">
        <ele>1064.3199999999999</ele>
        <time>2014-03-15T08:13:52Z</time>
      </trkpt>
      <trkpt lat="45.928384205326438" lon="8.742617452517152">
        <ele>1064.3199999999999</ele>
        <time>2014-03-15T08:14:05Z</time>
      </trkpt>
      <trkpt lat="45.928452517837286" lon="8.742612674832344">
        <ele>1065.28</ele>
        <time>2014-03-15T08:14:17Z</time>
      </trkpt>
      <trkpt lat="45.928407674655318" lon="8.742641592398286">
        <ele>1065.28</ele>
        <time>2014-03-15T08:14:27Z</time>
      </trkpt>
      <trkpt lat="45.928393928334117" lon="8.742780899628997">
        <ele>1066.72</ele>
        <time>2014-03-15T08:14:41Z</time>
      </trkpt>
      <trkpt lat="45.928364507853985" lon="8.742876369506121">
        <ele>1068.6400000000001</ele>
        <time>2014-03-15T08:14:52Z</time>
      </trkpt>
      <trkpt lat="45.928282281383872" lon="8.742946945130825">
        <ele>1070.0799999999999</ele>
        <time>2014-03-15T08:15:07Z</time>
      </trkpt>
      <trkpt lat="45.928184213116765" lon="8.743031434714794">
        <ele>1070.5699999999999</ele>
        <time>2014-03-15T08:15:20Z</time>
      </trkpt>
      <trkpt lat="45.928150853142142" lon="8.743068231269717">
        <ele>1071.53</ele>
        <time>2014-03-15T08:15:32Z</time>
      </trkpt>
      <trkpt lat="45.928119923919439" lon="8.743110811337829">
        <ele>1072.01</ele>
        <time>2014-03-15T08:15:48Z</time>
      </trkpt>
      <trkpt lat="45.928017413243651" lon="8.743189852684736">
        <ele>1072.49</ele>
        <time>2014-03-15T08:16:01Z</time>
      </trkpt>
      <trkpt lat="45.928002074360847" lon="8.743194127455354">
        <ele>1073.45</ele>
        <time>2014-03-15T08:16:03Z</time>
      </trkpt>
      <trkpt lat="45.927945747971535" lon="8.74329655431211">
        <ele>1073.9300000000001</ele>
        <time>2014-03-15T08:16:17Z</time>
      </trkpt>
      <trkpt lat="45.927885062992573" lon="8.743437621742487">
        <ele>1073.9300000000001</ele>
        <time>2014-03-15T08:16:29Z</time>
      </trkpt>
      <trkpt lat="45.927811553701758" lon="8.743594698607922">
        <ele>1073.45</ele>
        <time>2014-03-15T08:16:44Z</time>
      </trkpt>
      <trkpt lat="45.927768470719457" lon="8.743740878999233">
        <ele>1074.8900000000001</ele>
        <time>2014-03-15T08:16:57Z</time>
      </trkpt>
      <trkpt lat="45.927738966420293" lon="8.74377004802227">
        <ele>1075.3699999999999</ele>
        <time>2014-03-15T08:17:20Z</time>
      </trkpt>
      <trkpt lat="45.927705271169543" lon="8.743835845962167">
        <ele>1076.3299999999999</ele>
        <time>2014-03-15T08:17:41Z</time>
      </trkpt>
      <trkpt lat="45.927639221772552" lon="8.743934752419591">
        <ele>1078.26</ele>
        <time>2014-03-15T08:17:55Z</time>
      </trkpt>
      <trkpt lat="45.927586918696761" lon="8.743999293074012">
        <ele>1080.6600000000001</ele>
        <time>2014-03-15T08:18:06Z</time>
      </trkpt>
      <trkpt lat="45.927535034716129" lon="8.74408713541925">
        <ele>1083.0599999999999</ele>
        <time>2014-03-15T08:18:21Z</time>
      </trkpt>
      <trkpt lat="45.927445683628321" lon="8.744165003299713">
        <ele>1085.95</ele>
        <time>2014-03-15T08:18:38Z</time>
      </trkpt>
      <trkpt lat="45.927300676703453" lon="8.744184616953135">
        <ele>1086.4300000000001</ele>
        <time>2014-03-15T08:18:54Z</time>
      </trkpt>
      <trkpt lat="45.927207050845027" lon="8.744123764336109">
        <ele>1085.95</ele>
        <time>2014-03-15T08:19:08Z</time>
      </trkpt>
      <trkpt lat="45.927188191562891" lon="8.744113286957145">
        <ele>1085.95</ele>
        <time>2014-03-15T08:19:25Z</time>
      </trkpt>
      <trkpt lat="45.927187521010637" lon="8.744080848991871">
        <ele>1085.95</ele>
        <time>2014-03-15T08:19:42Z</time>
      </trkpt>
      <trkpt lat="45.927173020318151" lon="8.744185538962483">
        <ele>1088.3499999999999</ele>
        <time>2014-03-15T08:19:53Z</time>
      </trkpt>
      <trkpt lat="45.927176792174578" lon="8.744271285831928">
        <ele>1089.3099999999999</ele>
        <time>2014-03-15T08:20:06Z</time>
      </trkpt>
      <trkpt lat="45.927119292318821" lon="8.744418136775494">
        <ele>1091.71</ele>
        <time>2014-03-15T08:20:22Z</time>
      </trkpt>
      <trkpt lat="45.927032120525837" lon="8.744495250284672">
        <ele>1093.6400000000001</ele>
        <time>2014-03-15T08:20:36Z</time>
      </trkpt>
      <trkpt lat="45.927012842148542" lon="8.744622906669974">
        <ele>1096.04</ele>
        <time>2014-03-15T08:20:50Z</time>
      </trkpt>
      <trkpt lat="45.927001191303134" lon="8.744601113721728">
        <ele>1096.52</ele>
        <time>2014-03-15T08:21:05Z</time>
      </trkpt>
      <trkpt lat="45.927034467458725" lon="8.744659787043929">
        <ele>1097</ele>
        <time>2014-03-15T08:21:14Z</time>
      </trkpt>
      <trkpt lat="45.926992809399962" lon="8.744765566661954">
        <ele>1098.4400000000001</ele>
        <time>2014-03-15T08:21:26Z</time>
      </trkpt>
      <trkpt lat="45.926902117207646" lon="8.744771601632237">
        <ele>1099.8900000000001</ele>
        <time>2014-03-15T08:21:37Z</time>
      </trkpt>
      <trkpt lat="45.926832212135196" lon="8.744808565825224">
        <ele>1099.4000000000001</ele>
        <time>2014-03-15T08:21:53Z</time>
      </trkpt>
      <trkpt lat="45.926804970949888" lon="8.744848212227225">
        <ele>1099.4000000000001</ele>
        <time>2014-03-15T08:22:05Z</time>
      </trkpt>
      <trkpt lat="45.926808156073093" lon="8.744846284389496">
        <ele>1098.9200000000001</ele>
        <time>2014-03-15T08:22:33Z</time>
      </trkpt>
      <trkpt lat="45.926833637058735" lon="8.744848296046257">
        <ele>1099.8900000000001</ele>
        <time>2014-03-15T08:22:49Z</time>
      </trkpt>
      <trkpt lat="45.926856016740203" lon="8.744849553331733">
        <ele>1100.8499999999999</ele>
        <time>2014-03-15T08:22:58Z</time>
      </trkpt>
      <trkpt lat="45.926869763061404" lon="8.74491149559617">
        <ele>1100.8499999999999</ele>
        <time>2014-03-15T08:23:03Z</time>
      </trkpt>
      <trkpt lat="45.926901865750551" lon="8.745009144768119">
        <ele>1101.3299999999999</ele>
        <time>2014-03-15T08:23:10Z</time>
      </trkpt>
      <trkpt lat="45.926974704489112" lon="8.745130347087979">
        <ele>1101.3299999999999</ele>
        <time>2014-03-15T08:23:28Z</time>
      </trkpt>
      <trkpt lat="45.927043436095119" lon="8.74512649141252">
        <ele>1101.8099999999999</ele>
        <time>2014-03-15T08:23:43Z</time>
      </trkpt>
      <trkpt lat="45.927047124132514" lon="8.745124479755759">
        <ele>1101.8099999999999</ele>
        <time>2014-03-15T08:24:08Z</time>
      </trkpt>
      <trkpt lat="45.927038071677089" lon="8.745083827525377">
        <ele>1101.3299999999999</ele>
        <time>2014-03-15T08:24:19Z</time>
      </trkpt>
      <trkpt lat="45.927021978422999" lon="8.745050383731723">
        <ele>1101.3299999999999</ele>
        <time>2014-03-15T08:24:30Z</time>
      </trkpt>
      <trkpt lat="45.927011836320162" lon="8.745081480592489">
        <ele>1101.8099999999999</ele>
        <time>2014-03-15T08:24:32Z</time>
      </trkpt>
      <trkpt lat="45.926972022280097" lon="8.745105788111687">
        <ele>1101.8099999999999</ele>
        <time>2014-03-15T08:24:36Z</time>
      </trkpt>
      <trkpt lat="45.926896501332521" lon="8.745072260499001">
        <ele>1100.3699999999999</ele>
        <time>2014-03-15T08:24:47Z</time>
      </trkpt>
      <trkpt lat="45.92686029151082" lon="8.745033368468285">
        <ele>1099.4000000000001</ele>
        <time>2014-03-15T08:24:51Z</time>
      </trkpt>
      <trkpt lat="45.926848640665412" lon="8.745001349598169">
        <ele>1098.9200000000001</ele>
        <time>2014-03-15T08:24:53Z</time>
      </trkpt>
      <trkpt lat="45.926825758069754" lon="8.74497301876545">
        <ele>1098.9200000000001</ele>
        <time>2014-03-15T08:24:56Z</time>
      </trkpt>
      <trkpt lat="45.926714446395636" lon="8.744930857792497">
        <ele>1098.9200000000001</ele>
        <time>2014-03-15T08:25:09Z</time>
      </trkpt>
      <trkpt lat="45.926714362576604" lon="8.74494812451303">
        <ele>1098.9200000000001</ele>
        <time>2014-03-15T08:25:25Z</time>
      </trkpt>
      <trkpt lat="45.926721403375268" lon="8.744953237473965">
        <ele>1098.9200000000001</ele>
        <time>2014-03-15T08:25:53Z</time>
      </trkpt>
      <trkpt lat="45.926715368404984" lon="8.744946951046586">
        <ele>1098.9200000000001</ele>
        <time>2014-03-15T08:26:08Z</time>
      </trkpt>
      <trkpt lat="45.926714865490794" lon="8.744953153654933">
        <ele>1098.9200000000001</ele>
        <time>2014-03-15T08:26:26Z</time>
      </trkpt>
      <trkpt lat="45.926684271544218" lon="8.744950387626886">
        <ele>1098.4400000000001</ele>
        <time>2014-03-15T08:26:53Z</time>
      </trkpt>
      <trkpt lat="45.926708914339542" lon="8.744934545829892">
        <ele>1098.9200000000001</ele>
        <time>2014-03-15T08:27:08Z</time>
      </trkpt>
      <trkpt lat="45.926719475537539" lon="8.744927840307355">
        <ele>1099.4000000000001</ele>
        <time>2014-03-15T08:27:30Z</time>
      </trkpt>
      <trkpt lat="45.92671955935657" lon="8.744929935783148">
        <ele>1099.4000000000001</ele>
        <time>2014-03-15T08:27:46Z</time>
      </trkpt>
      <trkpt lat="45.92669952660799" lon="8.744939658790827">
        <ele>1099.8900000000001</ele>
        <time>2014-03-15T08:28:02Z</time>
      </trkpt>
      <trkpt lat="45.926702544093132" lon="8.744874028488994">
        <ele>1099.4000000000001</ele>
        <time>2014-03-15T08:28:25Z</time>
      </trkpt>
      <trkpt lat="45.926690055057406" lon="8.74485332518816">
        <ele>1099.4000000000001</ele>
        <time>2014-03-15T08:29:07Z</time>
      </trkpt>
      <trkpt lat="45.92669072560966" lon="8.744887858629227">
        <ele>1099.4000000000001</ele>
        <time>2014-03-15T08:29:35Z</time>
      </trkpt>
      <trkpt lat="45.926718972623348" lon="8.74489875510335">
        <ele>1099.4000000000001</ele>
        <time>2014-03-15T08:29:50Z</time>
      </trkpt>
      <trkpt lat="45.926680751144886" lon="8.744893139228225">
        <ele>1099.4000000000001</ele>
        <time>2014-03-15T08:30:24Z</time>
      </trkpt>
      <trkpt lat="45.926687121391296" lon="8.744918620213866">
        <ele>1099.8900000000001</ele>
        <time>2014-03-15T08:30:48Z</time>
      </trkpt>
      <trkpt lat="45.926699694246054" lon="8.744886601343751">
        <ele>1099.8900000000001</ele>
        <time>2014-03-15T08:31:05Z</time>
      </trkpt>
      <trkpt lat="45.926754092797637" lon="8.74490512534976">
        <ele>1099.8900000000001</ele>
        <time>2014-03-15T08:31:23Z</time>
      </trkpt>
      <trkpt lat="45.926754344254732" lon="8.744870843365789">
        <ele>1099.8900000000001</ele>
        <time>2014-03-15T08:31:28Z</time>
      </trkpt>
      <trkpt lat="45.926797930151224" lon="8.744793562218547">
        <ele>1099.8900000000001</ele>
        <time>2014-03-15T08:31:40Z</time>
      </trkpt>
      <trkpt lat="45.926815280690789" lon="8.744711168110371">
        <ele>1099.8900000000001</ele>
        <time>2014-03-15T08:31:57Z</time>
      </trkpt>
      <trkpt lat="45.92682802118361" lon="8.744665151461959">
        <ele>1099.4000000000001</ele>
        <time>2014-03-15T08:32:09Z</time>
      </trkpt>
      <trkpt lat="45.926825841888785" lon="8.744653752073646">
        <ele>1099.4000000000001</ele>
        <time>2014-03-15T08:32:31Z</time>
      </trkpt>
      <trkpt lat="45.926829697564244" lon="8.744657356292009">
        <ele>1099.8900000000001</ele>
        <time>2014-03-15T08:32:50Z</time>
      </trkpt>
      <trkpt lat="45.92683925293386" lon="8.74464419670403">
        <ele>1099.4000000000001</ele>
        <time>2014-03-15T08:33:18Z</time>
      </trkpt>
      <trkpt lat="45.926851909607649" lon="8.744635479524732">
        <ele>1098.9200000000001</ele>
        <time>2014-03-15T08:33:25Z</time>
      </trkpt>
      <trkpt lat="45.92695651575923" lon="8.7444834318012">
        <ele>1095.5599999999999</ele>
        <time>2014-03-15T08:33:40Z</time>
      </trkpt>
      <trkpt lat="45.927070342004299" lon="8.744447473436594">
        <ele>1094.1199999999999</ele>
        <time>2014-03-15T08:33:52Z</time>
      </trkpt>
      <trkpt lat="45.927112922072411" lon="8.744413107633591">
        <ele>1092.6800000000001</ele>
        <time>2014-03-15T08:33:57Z</time>
      </trkpt>
      <trkpt lat="45.927228340879083" lon="8.744330210611224">
        <ele>1089.3099999999999</ele>
        <time>2014-03-15T08:34:09Z</time>
      </trkpt>
      <trkpt lat="45.927245356142521" lon="8.744315709918737">
        <ele>1088.8299999999999</ele>
        <time>2014-03-15T08:34:11Z</time>
      </trkpt>
      <trkpt lat="45.927349543198943" lon="8.744273716583848">
        <ele>1086.9100000000001</ele>
        <time>2014-03-15T08:34:23Z</time>
      </trkpt>
      <trkpt lat="45.92737921513617" lon="8.744276314973831">
        <ele>1086.4300000000001</ele>
        <time>2014-03-15T08:34:26Z</time>
      </trkpt>
      <trkpt lat="45.927477702498436" lon="8.744183946400881">
        <ele>1084.02</ele>
        <time>2014-03-15T08:34:39Z</time>
      </trkpt>
      <trkpt lat="45.927537381649017" lon="8.744230633601546">
        <ele>1084.02</ele>
        <time>2014-03-15T08:34:55Z</time>
      </trkpt>
      <trkpt lat="45.927553391084075" lon="8.744189981371164">
        <ele>1083.54</ele>
        <time>2014-03-15T08:35:24Z</time>
      </trkpt>
      <trkpt lat="45.927435709163547" lon="8.744135666638613">
        <ele>1083.54</ele>
        <time>2014-03-15T08:35:38Z</time>
      </trkpt>
      <trkpt lat="45.927394554018974" lon="8.744093673303723">
        <ele>1083.54</ele>
        <time>2014-03-15T08:35:52Z</time>
      </trkpt>
      <trkpt lat="45.927382986992598" lon="8.744095265865326">
        <ele>1083.0599999999999</ele>
        <time>2014-03-15T08:36:25Z</time>
      </trkpt>
      <trkpt lat="45.92734057456255" lon="8.744048830121756">
        <ele>1082.0999999999999</ele>
        <time>2014-03-15T08:36:54Z</time>
      </trkpt>
      <trkpt lat="45.927319787442684" lon="8.743983870372176">
        <ele>1081.6199999999999</ele>
        <time>2014-03-15T08:37:10Z</time>
      </trkpt>
      <trkpt lat="45.927275447174907" lon="8.743968699127436">
        <ele>1081.1400000000001</ele>
        <time>2014-03-15T08:37:48Z</time>
      </trkpt>
      <trkpt lat="45.927314003929496" lon="8.74399971216917">
        <ele>1081.6199999999999</ele>
        <time>2014-03-15T08:38:14Z</time>
      </trkpt>
      <trkpt lat="45.927334874868393" lon="8.744027875363827">
        <ele>1082.0999999999999</ele>
        <time>2014-03-15T08:38:38Z</time>
      </trkpt>
      <trkpt lat="45.927413664758205" lon="8.744060229510069">
        <ele>1082.5799999999999</ele>
        <time>2014-03-15T08:38:51Z</time>
      </trkpt>
      <trkpt lat="45.927425483241677" lon="8.744070790708065">
        <ele>1083.0599999999999</ele>
        <time>2014-03-15T08:38:53Z</time>
      </trkpt>
      <trkpt lat="45.927450712770224" lon="8.744087219238281">
        <ele>1083.0599999999999</ele>
        <time>2014-03-15T08:38:56Z</time>
      </trkpt>
      <trkpt lat="45.927487509325147" lon="8.744077663868666">
        <ele>1082.5799999999999</ele>
        <time>2014-03-15T08:39:00Z</time>
      </trkpt>
      <trkpt lat="45.927536711096764" lon="8.744012955576181">
        <ele>1080.6600000000001</ele>
        <time>2014-03-15T08:39:06Z</time>
      </trkpt>
      <trkpt lat="45.927620781585574" lon="8.743906673043966">
        <ele>1076.8099999999999</ele>
        <time>2014-03-15T08:39:18Z</time>
      </trkpt>
      <trkpt lat="45.927707869559526" lon="8.743812376633287">
        <ele>1073.9300000000001</ele>
        <time>2014-03-15T08:39:29Z</time>
      </trkpt>
      <trkpt lat="45.927732260897756" lon="8.743801228702068">
        <ele>1073.9300000000001</ele>
        <time>2014-03-15T08:39:31Z</time>
      </trkpt>
      <trkpt lat="45.927796382457018" lon="8.743773149326444">
        <ele>1072.49</ele>
        <time>2014-03-15T08:39:36Z</time>
      </trkpt>
      <trkpt lat="45.927869640290737" lon="8.743575587868691">
        <ele>1070.5699999999999</ele>
        <time>2014-03-15T08:39:50Z</time>
      </trkpt>
      <trkpt lat="45.927930492907763" lon="8.743479028344154">
        <ele>1071.53</ele>
        <time>2014-03-15T08:40:04Z</time>
      </trkpt>
      <trkpt lat="45.927980951964855" lon="8.743358077481389">
        <ele>1071.53</ele>
        <time>2014-03-15T08:40:16Z</time>
      </trkpt>
      <trkpt lat="45.9280407987535" lon="8.743204856291413">
        <ele>1069.1199999999999</ele>
        <time>2014-03-15T08:40:28Z</time>
      </trkpt>
      <trkpt lat="45.928155463188887" lon="8.743075774982572">
        <ele>1066.72</ele>
        <time>2014-03-15T08:40:43Z</time>
      </trkpt>
      <trkpt lat="45.928221177309752" lon="8.743002936244011">
        <ele>1065.76</ele>
        <time>2014-03-15T08:40:54Z</time>
      </trkpt>
      <trkpt lat="45.928298123180866" lon="8.742943676188588">
        <ele>1065.28</ele>
        <time>2014-03-15T08:41:08Z</time>
      </trkpt>
      <trkpt lat="45.928375320509076" lon="8.742817863821983">
        <ele>1063.3599999999999</ele>
        <time>2014-03-15T08:41:21Z</time>
      </trkpt>
      <trkpt lat="45.928435251116753" lon="8.742805877700448">
        <ele>1061.9100000000001</ele>
        <time>2014-03-15T08:41:28Z</time>
      </trkpt>
      <trkpt lat="45.928524686023593" lon="8.742700684815645">
        <ele>1060.95</ele>
        <time>2014-03-15T08:41:42Z</time>
      </trkpt>
      <trkpt lat="45.928553268313408" lon="8.742630109190941">
        <ele>1059.99</ele>
        <time>2014-03-15T08:41:55Z</time>
      </trkpt>
      <trkpt lat="45.928597273305058" lon="8.742641760036349">
        <ele>1059.03</ele>
        <time>2014-03-15T08:42:25Z</time>
      </trkpt>
      <trkpt lat="45.92864915728569" lon="8.742632791399956">
        <ele>1058.55</ele>
        <time>2014-03-15T08:43:02Z</time>
      </trkpt>
      <trkpt lat="45.928635410964489" lon="8.742668330669403">
        <ele>1058.55</ele>
        <time>2014-03-15T08:43:41Z</time>
      </trkpt>
      <trkpt lat="45.928629459813237" lon="8.742721723392606">
        <ele>1058.0699999999999</ele>
        <time>2014-03-15T08:44:17Z</time>
      </trkpt>
      <trkpt lat="45.928627448156476" lon="8.742780648171902">
        <ele>1055.6700000000001</ele>
        <time>2014-03-15T08:44:22Z</time>
      </trkpt>
      <trkpt lat="45.928553184494376" lon="8.742903023958206">
        <ele>1054.7</ele>
        <time>2014-03-15T08:44:37Z</time>
      </trkpt>
      <trkpt lat="45.928546311333776" lon="8.742931773886085">
        <ele>1054.22</ele>
        <time>2014-03-15T08:44:40Z</time>
      </trkpt>
      <trkpt lat="45.92844589613378" lon="8.743092454969883">
        <ele>1053.74</ele>
        <time>2014-03-15T08:44:55Z</time>
      </trkpt>
      <trkpt lat="45.928366016596556" lon="8.743263613432646">
        <ele>1051.3399999999999</ele>
        <time>2014-03-15T08:45:07Z</time>
      </trkpt>
      <trkpt lat="45.928351599723101" lon="8.74338892288506">
        <ele>1049.4200000000001</ele>
        <time>2014-03-15T08:45:15Z</time>
      </trkpt>
      <trkpt lat="45.928320921957493" lon="8.74349202029407">
        <ele>1047.49</ele>
        <time>2014-03-15T08:45:26Z</time>
      </trkpt>
      <trkpt lat="45.928310863673687" lon="8.743506101891398">
        <ele>1047.01</ele>
        <time>2014-03-15T08:45:29Z</time>
      </trkpt>
      <trkpt lat="45.928261913359165" lon="8.743585227057338">
        <ele>1045.0899999999999</ele>
        <time>2014-03-15T08:45:40Z</time>
      </trkpt>
      <trkpt lat="45.92826409265399" lon="8.743607774376869">
        <ele>1045.0899999999999</ele>
        <time>2014-03-15T08:45:42Z</time>
      </trkpt>
      <trkpt lat="45.928251603618264" lon="8.743769712746143">
        <ele>1042.21</ele>
        <time>2014-03-15T08:45:55Z</time>
      </trkpt>
      <trkpt lat="45.928258812054992" lon="8.743829978629947">
        <ele>1041.25</ele>
        <time>2014-03-15T08:46:07Z</time>
      </trkpt>
      <trkpt lat="45.928235678002238" lon="8.743887646123767">
        <ele>1040.28</ele>
        <time>2014-03-15T08:46:14Z</time>
      </trkpt>
      <trkpt lat="45.928223859518766" lon="8.74392150901258">
        <ele>1039.8</ele>
        <time>2014-03-15T08:46:16Z</time>
      </trkpt>
      <trkpt lat="45.928211035206914" lon="8.743996024131775">
        <ele>1038.8399999999999</ele>
        <time>2014-03-15T08:46:25Z</time>
      </trkpt>
      <trkpt lat="45.928201312199235" lon="8.744076574221253">
        <ele>1035.96</ele>
        <time>2014-03-15T08:46:36Z</time>
      </trkpt>
      <trkpt lat="45.928184548392892" lon="8.744251085445285">
        <ele>1034.04</ele>
        <time>2014-03-15T08:46:50Z</time>
      </trkpt>
      <trkpt lat="45.928201228380203" lon="8.744422663003206">
        <ele>1031.6300000000001</ele>
        <time>2014-03-15T08:47:04Z</time>
      </trkpt>
      <trkpt lat="45.92821036465466" lon="8.74447119422257">
        <ele>1031.1500000000001</ele>
        <time>2014-03-15T08:47:24Z</time>
      </trkpt>
      <trkpt lat="45.928197288885713" lon="8.744511930271983">
        <ele>1030.6700000000001</ele>
        <time>2014-03-15T08:47:41Z</time>
      </trkpt>
      <trkpt lat="45.928188990801573" lon="8.744523832574487">
        <ele>1030.6700000000001</ele>
        <time>2014-03-15T08:47:55Z</time>
      </trkpt>
      <trkpt lat="45.928198881447315" lon="8.744516875594854">
        <ele>1030.6700000000001</ele>
        <time>2014-03-15T08:47:56Z</time>
      </trkpt>
      <trkpt lat="45.928215058520436" lon="8.744483347982168">
        <ele>1029.71</ele>
        <time>2014-03-15T08:48:09Z</time>
      </trkpt>
      <trkpt lat="45.928272642195225" lon="8.744326438754797">
        <ele>1027.79</ele>
        <time>2014-03-15T08:48:23Z</time>
      </trkpt>
      <trkpt lat="45.928333410993218" lon="8.744210517033935">
        <ele>1025.8599999999999</ele>
        <time>2014-03-15T08:48:38Z</time>
      </trkpt>
      <trkpt lat="45.92839895747602" lon="8.744137426838279">
        <ele>1023.46</ele>
        <time>2014-03-15T08:48:52Z</time>
      </trkpt>
      <trkpt lat="45.928375404328108" lon="8.744203643873334">
        <ele>1022.02</ele>
        <time>2014-03-15T08:48:57Z</time>
      </trkpt>
      <trkpt lat="45.928378002718091" lon="8.744235662743449">
        <ele>1021.0599999999999</ele>
        <time>2014-03-15T08:49:06Z</time>
      </trkpt>
      <trkpt lat="45.928374985232949" lon="8.744339263066649">
        <ele>1020.1</ele>
        <time>2014-03-15T08:49:12Z</time>
      </trkpt>
      <trkpt lat="45.928362831473351" lon="8.744415119290352">
        <ele>1017.6900000000001</ele>
        <time>2014-03-15T08:49:17Z</time>
      </trkpt>
      <trkpt lat="45.928370291367173" lon="8.744550235569477">
        <ele>1014.8099999999999</ele>
        <time>2014-03-15T08:49:27Z</time>
      </trkpt>
      <trkpt lat="45.928356125950813" lon="8.744686190038919">
        <ele>1011.9299999999999</ele>
        <time>2014-03-15T08:49:39Z</time>
      </trkpt>
      <trkpt lat="45.928330309689045" lon="8.744762800633907">
        <ele>1010.96</ele>
        <time>2014-03-15T08:49:47Z</time>
      </trkpt>
      <trkpt lat="45.928320167586207" lon="8.744935132563114">
        <ele>1007.6</ele>
        <time>2014-03-15T08:50:01Z</time>
      </trkpt>
      <trkpt lat="45.928317904472351" lon="8.744950639083982">
        <ele>1007.12</ele>
        <time>2014-03-15T08:50:02Z</time>
      </trkpt>
      <trkpt lat="45.928287226706743" lon="8.745117522776127">
        <ele>1004.23</ele>
        <time>2014-03-15T08:50:17Z</time>
      </trkpt>
      <trkpt lat="45.928268283605576" lon="8.745286334306002">
        <ele>1000.87</ele>
        <time>2014-03-15T08:50:31Z</time>
      </trkpt>
      <trkpt lat="45.928264427930117" lon="8.745470149442554">
        <ele>997.50999999999999</ele>
        <time>2014-03-15T08:50:43Z</time>
      </trkpt>
      <trkpt lat="45.92825336381793" lon="8.745608869940043">
        <ele>994.62</ele>
        <time>2014-03-15T08:50:56Z</time>
      </trkpt>
      <trkpt lat="45.928217405453324" lon="8.745740717276931">
        <ele>991.74000000000001</ele>
        <time>2014-03-15T08:51:09Z</time>
      </trkpt>
      <trkpt lat="45.928232744336128" lon="8.745968202129006">
        <ele>988.37</ele>
        <time>2014-03-15T08:51:25Z</time>
      </trkpt>
      <trkpt lat="45.928232660517097" lon="8.745982283726335">
        <ele>987.40999999999997</ele>
        <time>2014-03-15T08:51:26Z</time>
      </trkpt>
      <trkpt lat="45.928202988579869" lon="8.746058475226164">
        <ele>985.97000000000003</ele>
        <time>2014-03-15T08:51:32Z</time>
      </trkpt>
      <trkpt lat="45.928161665797234" lon="8.746143635362387">
        <ele>982.60000000000002</ele>
        <time>2014-03-15T08:51:46Z</time>
      </trkpt>
      <trkpt lat="45.928243640810251" lon="8.74605244025588">
        <ele>980.67999999999995</ele>
        <time>2014-03-15T08:51:56Z</time>
      </trkpt>
      <trkpt lat="45.928311869502068" lon="8.745900979265571">
        <ele>976.84000000000003</ele>
        <time>2014-03-15T08:52:09Z</time>
      </trkpt>
      <trkpt lat="45.928403818979859" lon="8.745776005089283">
        <ele>973.95000000000005</ele>
        <time>2014-03-15T08:52:21Z</time>
      </trkpt>
      <trkpt lat="45.928464587777853" lon="8.745722444728017">
        <ele>972.02999999999997</ele>
        <time>2014-03-15T08:52:27Z</time>
      </trkpt>
      <trkpt lat="45.928572127595544" lon="8.745556902140379">
        <ele>969.63</ele>
        <time>2014-03-15T08:52:40Z</time>
      </trkpt>
      <trkpt lat="45.928653180599213" lon="8.745422288775444">
        <ele>967.70000000000005</ele>
        <time>2014-03-15T08:52:52Z</time>
      </trkpt>
      <trkpt lat="45.928712692111731" lon="8.745300080627203">
        <ele>966.25999999999999</ele>
        <time>2014-03-15T08:53:05Z</time>
      </trkpt>
      <trkpt lat="45.928789973258972" lon="8.745164629071951">
        <ele>964.34000000000003</ele>
        <time>2014-03-15T08:53:18Z</time>
      </trkpt>
      <trkpt lat="45.928912349045277" lon="8.745020879432559">
        <ele>961.46000000000004</ele>
        <time>2014-03-15T08:53:32Z</time>
      </trkpt>
      <trkpt lat="45.929013770073652" lon="8.744885930791497">
        <ele>959.04999999999995</ele>
        <time>2014-03-15T08:53:45Z</time>
      </trkpt>
      <trkpt lat="45.929061463102698" lon="8.744908645749092">
        <ele>957.61000000000001</ele>
        <time>2014-03-15T08:54:00Z</time>
      </trkpt>
      <trkpt lat="45.929045788943768" lon="8.744961535558105">
        <ele>955.69000000000005</ele>
        <time>2014-03-15T08:54:17Z</time>
      </trkpt>
      <trkpt lat="45.929042520001531" lon="8.744974276050925">
        <ele>955.69000000000005</ele>
        <time>2014-03-15T08:54:18Z</time>
      </trkpt>
      <trkpt lat="45.929013099521399" lon="8.745168820023537">
        <ele>951.84000000000003</ele>
        <time>2014-03-15T08:54:31Z</time>
      </trkpt>
      <trkpt lat="45.9290009457618" lon="8.745254650712013">
        <ele>950.39999999999998</ele>
        <time>2014-03-15T08:54:37Z</time>
      </trkpt>
      <trkpt lat="45.928964987397194" lon="8.745328579097986">
        <ele>948</ele>
        <time>2014-03-15T08:54:53Z</time>
      </trkpt>
      <trkpt lat="45.929041262716055" lon="8.745279293507338">
        <ele>945.11000000000001</ele>
        <time>2014-03-15T08:55:02Z</time>
      </trkpt>
      <trkpt lat="45.929116867482662" lon="8.745173262432218">
        <ele>941.75</ele>
        <time>2014-03-15T08:55:16Z</time>
      </trkpt>
      <trkpt lat="45.929232202470303" lon="8.745077876374126">
        <ele>938.86000000000001</ele>
        <time>2014-03-15T08:55:29Z</time>
      </trkpt>
      <trkpt lat="45.929373521357775" lon="8.745019538328052">
        <ele>935.98000000000002</ele>
        <time>2014-03-15T08:55:43Z</time>
      </trkpt>
      <trkpt lat="45.9293307736516" lon="8.745093969628215">
        <ele>935.01999999999998</ele>
        <time>2014-03-15T08:55:58Z</time>
      </trkpt>
      <trkpt lat="45.92930244281888" lon="8.745219279080629">
        <ele>932.13999999999999</ele>
        <time>2014-03-15T08:56:12Z</time>
      </trkpt>
      <trkpt lat="45.929330186918378" lon="8.745281975716353">
        <ele>930.21000000000004</ele>
        <time>2014-03-15T08:56:17Z</time>
      </trkpt>
      <trkpt lat="45.929328426718712" lon="8.745371410623193">
        <ele>928.28999999999996</ele>
        <time>2014-03-15T08:56:22Z</time>
      </trkpt>
      <trkpt lat="45.9294602740556" lon="8.745307624340057">
        <ele>925.40999999999997</ele>
        <time>2014-03-15T08:56:35Z</time>
      </trkpt>
      <trkpt lat="45.929527161642909" lon="8.745225146412849">
        <ele>922.03999999999996</ele>
        <time>2014-03-15T08:56:45Z</time>
      </trkpt>
      <trkpt lat="45.929520959034562" lon="8.745201677083969">
        <ele>921.55999999999995</ele>
        <time>2014-03-15T08:56:47Z</time>
      </trkpt>
      <trkpt lat="45.929533196613193" lon="8.745102938264608">
        <ele>919.63999999999999</ele>
        <time>2014-03-15T08:56:59Z</time>
      </trkpt>
      <trkpt lat="45.929561443626881" lon="8.745129508897662">
        <ele>918.67999999999995</ele>
        <time>2014-03-15T08:57:17Z</time>
      </trkpt>
      <trkpt lat="45.92960000038147" lon="8.745177369564772">
        <ele>915.78999999999996</ele>
        <time>2014-03-15T08:57:24Z</time>
      </trkpt>
      <trkpt lat="45.929651046171784" lon="8.745140908285976">
        <ele>912.42999999999995</ele>
        <time>2014-03-15T08:57:35Z</time>
      </trkpt>
      <trkpt lat="45.929674347862601" lon="8.745170831680298">
        <ele>909.53999999999996</ele>
        <time>2014-03-15T08:57:46Z</time>
      </trkpt>
      <trkpt lat="45.929633947089314" lon="8.745273007079959">
        <ele>906.17999999999995</ele>
        <time>2014-03-15T08:57:56Z</time>
      </trkpt>
      <trkpt lat="45.929667809978127" lon="8.745306115597487">
        <ele>903.77999999999997</ele>
        <time>2014-03-15T08:58:09Z</time>
      </trkpt>
      <trkpt lat="45.929681472480297" lon="8.74536881223321">
        <ele>902.82000000000005</ele>
        <time>2014-03-15T08:58:19Z</time>
      </trkpt>
      <trkpt lat="45.929727740585804" lon="8.74536738730967">
        <ele>904.25999999999999</ele>
        <time>2014-03-15T08:58:33Z</time>
      </trkpt>
      <trkpt lat="45.929681807756424" lon="8.745412062853575">
        <ele>902.82000000000005</ele>
        <time>2014-03-15T08:58:52Z</time>
      </trkpt>
      <trkpt lat="45.929586589336395" lon="8.745386498048902">
        <ele>900.88999999999999</ele>
        <time>2014-03-15T08:59:11Z</time>
      </trkpt>
      <trkpt lat="45.929591283202171" lon="8.745489846915007">
        <ele>898.00999999999999</ele>
        <time>2014-03-15T08:59:19Z</time>
      </trkpt>
      <trkpt lat="45.929603185504675" lon="8.74550174921751">
        <ele>898.00999999999999</ele>
        <time>2014-03-15T08:59:21Z</time>
      </trkpt>
      <trkpt lat="45.929638976231217" lon="8.745486158877611">
        <ele>894.63999999999999</ele>
        <time>2014-03-15T08:59:33Z</time>
      </trkpt>
      <trkpt lat="45.929653309285641" lon="8.74548951163888">
        <ele>893.67999999999995</ele>
        <time>2014-03-15T08:59:35Z</time>
      </trkpt>
      <trkpt lat="45.929725812748075" lon="8.745532762259245">
        <ele>893.20000000000005</ele>
        <time>2014-03-15T08:59:43Z</time>
      </trkpt>
      <trkpt lat="45.929841902107" lon="8.745572241023183">
        <ele>894.15999999999997</ele>
        <time>2014-03-15T08:59:57Z</time>
      </trkpt>
      <trkpt lat="45.929852044209838" lon="8.745616246014834">
        <ele>893.67999999999995</ele>
        <time>2014-03-15T09:00:01Z</time>
      </trkpt>
      <trkpt lat="45.929816253483295" lon="8.7456439062953">
        <ele>890.79999999999995</ele>
        <time>2014-03-15T09:00:08Z</time>
      </trkpt>
      <trkpt lat="45.929793119430542" lon="8.74565564095974">
        <ele>889.36000000000001</ele>
        <time>2014-03-15T09:00:11Z</time>
      </trkpt>
      <trkpt lat="45.92972363345325" lon="8.745695035904646">
        <ele>885.99000000000001</ele>
        <time>2014-03-15T09:00:21Z</time>
      </trkpt>
      <trkpt lat="45.929674850776792" lon="8.745717918500304">
        <ele>882.63</ele>
        <time>2014-03-15T09:00:32Z</time>
      </trkpt>
      <trkpt lat="45.929666552692652" lon="8.745722444728017">
        <ele>882.14999999999998</ele>
        <time>2014-03-15T09:00:34Z</time>
      </trkpt>
      <trkpt lat="45.929634450003505" lon="8.745759325101972">
        <ele>879.74000000000001</ele>
        <time>2014-03-15T09:00:44Z</time>
      </trkpt>
      <trkpt lat="45.929597737267613" lon="8.74581053853035">
        <ele>876.86000000000001</ele>
        <time>2014-03-15T09:00:50Z</time>
      </trkpt>
      <trkpt lat="45.929579464718699" lon="8.745925538241863">
        <ele>873.98000000000002</ele>
        <time>2014-03-15T09:00:59Z</time>
      </trkpt>
      <trkpt lat="45.929572843015194" lon="8.745975745841861">
        <ele>872.04999999999995</ele>
        <time>2014-03-15T09:01:03Z</time>
      </trkpt>
      <trkpt lat="45.929602431133389" lon="8.746070377528667">
        <ele>870.13</ele>
        <time>2014-03-15T09:01:17Z</time>
      </trkpt>
      <trkpt lat="45.929649034515023" lon="8.746003909036517">
        <ele>869.16999999999996</ele>
        <time>2014-03-15T09:01:37Z</time>
      </trkpt>
      <trkpt lat="45.929612573236227" lon="8.746004495769739">
        <ele>870.61000000000001</ele>
        <time>2014-03-15T09:01:56Z</time>
      </trkpt>
      <trkpt lat="45.929625649005175" lon="8.746046824380755">
        <ele>870.61000000000001</ele>
        <time>2014-03-15T09:02:16Z</time>
      </trkpt>
      <trkpt lat="45.929638389497995" lon="8.746000807732344">
        <ele>871.57000000000005</ele>
        <time>2014-03-15T09:02:33Z</time>
      </trkpt>
      <trkpt lat="45.929663702845573" lon="8.745910366997123">
        <ele>871.09000000000003</ele>
        <time>2014-03-15T09:02:58Z</time>
      </trkpt>
      <trkpt lat="45.929736290127039" lon="8.745991755276918">
        <ele>872.04999999999995</ele>
        <time>2014-03-15T09:03:29Z</time>
      </trkpt>
      <trkpt lat="45.929757915437222" lon="8.746022684499621">
        <ele>872.52999999999997</ele>
        <time>2014-03-15T09:03:51Z</time>
      </trkpt>
      <trkpt lat="45.929686669260263" lon="8.746104491874576">
        <ele>873.00999999999999</ele>
        <time>2014-03-15T09:04:11Z</time>
      </trkpt>
      <trkpt lat="45.929687842726707" lon="8.746100384742022">
        <ele>875.41999999999996</ele>
        <time>2014-03-15T09:04:26Z</time>
      </trkpt>
      <trkpt lat="45.929781384766102" lon="8.746064174920321">
        <ele>876.38</ele>
        <time>2014-03-15T09:04:34Z</time>
      </trkpt>
      <trkpt lat="45.92986679635942" lon="8.746098289266229">
        <ele>876.38</ele>
        <time>2014-03-15T09:04:41Z</time>
      </trkpt>
      <trkpt lat="45.929966205731034" lon="8.746054787188768">
        <ele>877.82000000000005</ele>
        <time>2014-03-15T09:04:54Z</time>
      </trkpt>
      <trkpt lat="45.930073410272598" lon="8.746088817715645">
        <ele>881.19000000000005</ele>
        <time>2014-03-15T09:05:07Z</time>
      </trkpt>
      <trkpt lat="45.93015119433403" lon="8.746161991730332">
        <ele>883.11000000000001</ele>
        <time>2014-03-15T09:05:17Z</time>
      </trkpt>
      <trkpt lat="45.930192936211824" lon="8.746152017265558">
        <ele>886.47000000000003</ele>
        <time>2014-03-15T09:05:28Z</time>
      </trkpt>
      <trkpt lat="45.930270804092288" lon="8.746173642575741">
        <ele>888.88</ele>
        <time>2014-03-15T09:05:39Z</time>
      </trkpt>
      <trkpt lat="45.930326040834188" lon="8.746153526008129">
        <ele>891.27999999999997</ele>
        <time>2014-03-15T09:05:50Z</time>
      </trkpt>
      <trkpt lat="45.93041455373168" lon="8.746193507686257">
        <ele>893.20000000000005</ele>
        <time>2014-03-15T09:06:02Z</time>
      </trkpt>
      <trkpt lat="45.930484123528004" lon="8.746199207380414">
        <ele>896.09000000000003</ele>
        <time>2014-03-15T09:06:15Z</time>
      </trkpt>
      <trkpt lat="45.930525530129671" lon="8.746138187125325">
        <ele>898.49000000000001</ele>
        <time>2014-03-15T09:06:31Z</time>
      </trkpt>
      <trkpt lat="45.930618066340685" lon="8.746109269559383">
        <ele>901.37</ele>
        <time>2014-03-15T09:06:47Z</time>
      </trkpt>
      <trkpt lat="45.930706998333335" lon="8.746138187125325">
        <ele>904.25999999999999</ele>
        <time>2014-03-15T09:07:03Z</time>
      </trkpt>
      <trkpt lat="45.930755361914635" lon="8.746093846857548">
        <ele>906.65999999999997</ele>
        <time>2014-03-15T09:07:15Z</time>
      </trkpt>
      <trkpt lat="45.930812275037169" lon="8.746119579300284">
        <ele>907.62</ele>
        <time>2014-03-15T09:07:37Z</time>
      </trkpt>
      <trkpt lat="45.930904475972056" lon="8.746081022545695">
        <ele>909.05999999999995</ele>
        <time>2014-03-15T09:07:54Z</time>
      </trkpt>
      <trkpt lat="45.931022744625807" lon="8.746041376143694">
        <ele>910.50999999999999</ele>
        <time>2014-03-15T09:08:09Z</time>
      </trkpt>
      <trkpt lat="45.931060127913952" lon="8.746107090264559">
        <ele>910.99000000000001</ele>
        <time>2014-03-15T09:08:28Z</time>
      </trkpt>
      <trkpt lat="45.931129781529307" lon="8.74607490375638">
        <ele>910.02999999999997</ele>
        <time>2014-03-15T09:08:45Z</time>
      </trkpt>
      <trkpt lat="45.931258779019117" lon="8.746055457741022">
        <ele>908.58000000000004</ele>
        <time>2014-03-15T09:09:01Z</time>
      </trkpt>
      <trkpt lat="45.931347208097577" lon="8.746011285111308">
        <ele>908.58000000000004</ele>
        <time>2014-03-15T09:09:16Z</time>
      </trkpt>
      <trkpt lat="45.931417113170028" lon="8.745987229049206">
        <ele>909.05999999999995</ele>
        <time>2014-03-15T09:09:23Z</time>
      </trkpt>
      <trkpt lat="45.93150956556201" lon="8.746000304818153">
        <ele>908.10000000000002</ele>
        <time>2014-03-15T09:09:37Z</time>
      </trkpt>
      <trkpt lat="45.931572513654828" lon="8.74596007168293">
        <ele>906.65999999999997</ele>
        <time>2014-03-15T09:09:53Z</time>
      </trkpt>
      <trkpt lat="45.931572346016765" lon="8.745985385030508">
        <ele>906.65999999999997</ele>
        <time>2014-03-15T09:10:11Z</time>
      </trkpt>
      <trkpt lat="45.931540746241808" lon="8.745928220450878">
        <ele>906.65999999999997</ele>
        <time>2014-03-15T09:10:30Z</time>
      </trkpt>
      <trkpt lat="45.931576201692224" lon="8.745922772213817">
        <ele>906.17999999999995</ele>
        <time>2014-03-15T09:10:49Z</time>
      </trkpt>
      <trkpt lat="45.931613920256495" lon="8.745820764452219">
        <ele>908.58000000000004</ele>
        <time>2014-03-15T09:11:07Z</time>
      </trkpt>
      <trkpt lat="45.931658092886209" lon="8.745783548802137">
        <ele>909.05999999999995</ele>
        <time>2014-03-15T09:11:22Z</time>
      </trkpt>
      <trkpt lat="45.93166446313262" lon="8.74570450745523">
        <ele>909.53999999999996</ele>
        <time>2014-03-15T09:11:36Z</time>
      </trkpt>
      <trkpt lat="45.931660272181034" lon="8.745671734213829">
        <ele>908.58000000000004</ele>
        <time>2014-03-15T09:11:50Z</time>
      </trkpt>
      <trkpt lat="45.931696901097894" lon="8.745563942939043">
        <ele>905.22000000000003</ele>
        <time>2014-03-15T09:12:02Z</time>
      </trkpt>
      <trkpt lat="45.931719867512584" lon="8.745489427819848">
        <ele>902.33000000000004</ele>
        <time>2014-03-15T09:12:13Z</time>
      </trkpt>
      <trkpt lat="45.931755490601063" lon="8.745450200513005">
        <ele>900.88999999999999</ele>
        <time>2014-03-15T09:12:17Z</time>
      </trkpt>
      <trkpt lat="45.931815169751644" lon="8.745402591302991">
        <ele>898.97000000000003</ele>
        <time>2014-03-15T09:12:25Z</time>
      </trkpt>
      <trkpt lat="45.931826904416084" lon="8.745408290997148">
        <ele>898.49000000000001</ele>
        <time>2014-03-15T09:12:27Z</time>
      </trkpt>
      <trkpt lat="45.931844841688871" lon="8.745398819446564">
        <ele>897.04999999999995</ele>
        <time>2014-03-15T09:12:38Z</time>
      </trkpt>
      <trkpt lat="45.931897228583694" lon="8.745369901880622">
        <ele>894.63999999999999</ele>
        <time>2014-03-15T09:12:51Z</time>
      </trkpt>
      <trkpt lat="45.931919189170003" lon="8.745349952951074">
        <ele>892.72000000000003</ele>
        <time>2014-03-15T09:13:03Z</time>
      </trkpt>
      <trkpt lat="45.931864958256483" lon="8.745390102267265">
        <ele>893.20000000000005</ele>
        <time>2014-03-15T09:13:16Z</time>
      </trkpt>
      <trkpt lat="45.931772505864501" lon="8.745548101142049">
        <ele>890.79999999999995</ele>
        <time>2014-03-15T09:13:30Z</time>
      </trkpt>
      <trkpt lat="45.931780552491546" lon="8.745550280436873">
        <ele>890.79999999999995</ele>
        <time>2014-03-15T09:13:55Z</time>
      </trkpt>
      <trkpt lat="45.931798070669174" lon="8.745553465560079">
        <ele>890.32000000000005</ele>
        <time>2014-03-15T09:14:15Z</time>
      </trkpt>
      <trkpt lat="45.931796813383698" lon="8.745587579905987">
        <ele>890.32000000000005</ele>
        <time>2014-03-15T09:14:33Z</time>
      </trkpt>
      <trkpt lat="45.931999571621418" lon="8.74551834538579">
        <ele>889.36000000000001</ele>
        <time>2014-03-15T09:19:27Z</time>
      </trkpt>
      <trkpt lat="45.931781139224768" lon="8.745528068393469">
        <ele>889.36000000000001</ele>
        <time>2014-03-15T09:19:48Z</time>
      </trkpt>
      <trkpt lat="45.93179446645081" lon="8.745430083945394">
        <ele>892.72000000000003</ele>
        <time>2014-03-15T09:20:02Z</time>
      </trkpt>
      <trkpt lat="45.931751718744636" lon="8.745418265461922">
        <ele>895.12</ele>
        <time>2014-03-15T09:20:18Z</time>
      </trkpt>
      <trkpt lat="45.931741241365671" lon="8.745468137785792">
        <ele>898.49000000000001</ele>
        <time>2014-03-15T09:20:31Z</time>
      </trkpt>
      <trkpt lat="45.931688016280532" lon="8.745526475831866">
        <ele>900.88999999999999</ele>
        <time>2014-03-15T09:20:42Z</time>
      </trkpt>
      <trkpt lat="45.931677874177694" lon="8.74555254355073">
        <ele>902.82000000000005</ele>
        <time>2014-03-15T09:20:55Z</time>
      </trkpt>
      <trkpt lat="45.931684076786041" lon="8.745626388117671">
        <ele>905.22000000000003</ele>
        <time>2014-03-15T09:21:08Z</time>
      </trkpt>
      <trkpt lat="45.931688603013754" lon="8.745704591274262">
        <ele>908.10000000000002</ele>
        <time>2014-03-15T09:21:21Z</time>
      </trkpt>
      <trkpt lat="45.931678377091885" lon="8.745771562680602">
        <ele>909.05999999999995</ele>
        <time>2014-03-15T09:21:34Z</time>
      </trkpt>
      <trkpt lat="45.931651303544641" lon="8.745852699503303">
        <ele>907.13999999999999</ele>
        <time>2014-03-15T09:21:49Z</time>
      </trkpt>
      <trkpt lat="45.931624313816428" lon="8.745957054197788">
        <ele>905.70000000000005</ele>
        <time>2014-03-15T09:22:01Z</time>
      </trkpt>
      <trkpt lat="45.931599419564009" lon="8.74595076777041">
        <ele>904.74000000000001</ele>
        <time>2014-03-15T09:22:20Z</time>
      </trkpt>
      <trkpt lat="45.931565221399069" lon="8.745978679507971">
        <ele>904.74000000000001</ele>
        <time>2014-03-15T09:22:44Z</time>
      </trkpt>
      <trkpt lat="45.931577039882541" lon="8.746018158271909">
        <ele>904.74000000000001</ele>
        <time>2014-03-15T09:23:14Z</time>
      </trkpt>
      <trkpt lat="45.931498501449823" lon="8.746050428599119">
        <ele>906.65999999999997</ele>
        <time>2014-03-15T09:23:26Z</time>
      </trkpt>
      <trkpt lat="45.931311585009098" lon="8.746077585965395">
        <ele>907.13999999999999</ele>
        <time>2014-03-15T09:23:43Z</time>
      </trkpt>
      <trkpt lat="45.931221898645163" lon="8.746084626764059">
        <ele>908.10000000000002</ele>
        <time>2014-03-15T09:23:51Z</time>
      </trkpt>
      <trkpt lat="45.931098265573382" lon="8.746067192405462">
        <ele>909.53999999999996</ele>
        <time>2014-03-15T09:24:05Z</time>
      </trkpt>
      <trkpt lat="45.931061636656523" lon="8.746069623157382">
        <ele>909.53999999999996</ele>
        <time>2014-03-15T09:24:08Z</time>
      </trkpt>
      <trkpt lat="45.930865751579404" lon="8.74611547216773">
        <ele>907.62</ele>
        <time>2014-03-15T09:24:24Z</time>
      </trkpt>
      <trkpt lat="45.930753685534" lon="8.746172217652202">
        <ele>904.25999999999999</ele>
        <time>2014-03-15T09:24:36Z</time>
      </trkpt>
      <trkpt lat="45.930636590346694" lon="8.746167859062553">
        <ele>901.37</ele>
        <time>2014-03-15T09:24:47Z</time>
      </trkpt>
      <trkpt lat="45.930552603676915" lon="8.746139276772738">
        <ele>898.49000000000001</ele>
        <time>2014-03-15T09:24:55Z</time>
      </trkpt>
      <trkpt lat="45.930548496544361" lon="8.746143719181418">
        <ele>898.00999999999999</ele>
        <time>2014-03-15T09:24:56Z</time>
      </trkpt>
      <trkpt lat="45.930463084951043" lon="8.746238183230162">
        <ele>895.12</ele>
        <time>2014-03-15T09:25:08Z</time>
      </trkpt>
      <trkpt lat="45.930396616458893" lon="8.746242877095938">
        <ele>891.75999999999999</ele>
        <time>2014-03-15T09:25:16Z</time>
      </trkpt>
      <trkpt lat="45.930387564003468" lon="8.74623566865921">
        <ele>891.75999999999999</ele>
        <time>2014-03-15T09:25:17Z</time>
      </trkpt>
      <trkpt lat="45.930301900953054" lon="8.74618873000145">
        <ele>887.90999999999997</ele>
        <time>2014-03-15T09:25:28Z</time>
      </trkpt>
      <trkpt lat="45.930215734988451" lon="8.746176408603787">
        <ele>884.54999999999995</ele>
        <time>2014-03-15T09:25:39Z</time>
      </trkpt>
      <trkpt lat="45.930129820480943" lon="8.746182359755039">
        <ele>882.14999999999998</ele>
        <time>2014-03-15T09:25:54Z</time>
      </trkpt>
      <trkpt lat="45.930088497698307" lon="8.746180599555373">
        <ele>880.71000000000004</ele>
        <time>2014-03-15T09:25:59Z</time>
      </trkpt>
      <trkpt lat="45.930012557655573" lon="8.746087644249201">
        <ele>876.86000000000001</ele>
        <time>2014-03-15T09:26:11Z</time>
      </trkpt>
      <trkpt lat="45.929998308420181" lon="8.74609393067658">
        <ele>876.86000000000001</ele>
        <time>2014-03-15T09:26:12Z</time>
      </trkpt>
      <trkpt lat="45.929866880178452" lon="8.74614036642015">
        <ele>874.46000000000004</ele>
        <time>2014-03-15T09:26:22Z</time>
      </trkpt>
      <trkpt lat="45.929833268746734" lon="8.746132487431169">
        <ele>874.46000000000004</ele>
        <time>2014-03-15T09:26:27Z</time>
      </trkpt>
      <trkpt lat="45.929724220186472" lon="8.746089320629835">
        <ele>873.00999999999999</ele>
        <time>2014-03-15T09:26:40Z</time>
      </trkpt>
      <trkpt lat="45.929700750857592" lon="8.74609493650496">
        <ele>873.00999999999999</ele>
        <time>2014-03-15T09:26:44Z</time>
      </trkpt>
      <trkpt lat="45.929662697017193" lon="8.746105330064893">
        <ele>871.57000000000005</ele>
        <time>2014-03-15T09:26:48Z</time>
      </trkpt>
      <trkpt lat="45.929622799158096" lon="8.746092589572072">
        <ele>871.09000000000003</ele>
        <time>2014-03-15T09:27:06Z</time>
      </trkpt>
      <trkpt lat="45.929580219089985" lon="8.746134666725993">
        <ele>871.09000000000003</ele>
        <time>2014-03-15T09:27:20Z</time>
      </trkpt>
      <trkpt lat="45.929561695083976" lon="8.746179426088929">
        <ele>871.57000000000005</ele>
        <time>2014-03-15T09:27:33Z</time>
      </trkpt>
      <trkpt lat="45.929565634578466" lon="8.746224101632834">
        <ele>871.57000000000005</ele>
        <time>2014-03-15T09:27:48Z</time>
      </trkpt>
      <trkpt lat="45.92953210696578" lon="8.746313285082579">
        <ele>871.57000000000005</ele>
        <time>2014-03-15T09:28:03Z</time>
      </trkpt>
      <trkpt lat="45.929534202441573" lon="8.746410682797432">
        <ele>870.61000000000001</ele>
        <time>2014-03-15T09:28:16Z</time>
      </trkpt>
      <trkpt lat="45.929524479433894" lon="8.746463321149349">
        <ele>870.13</ele>
        <time>2014-03-15T09:28:28Z</time>
      </trkpt>
      <trkpt lat="45.929526574909687" lon="8.746462902054191">
        <ele>870.13</ele>
        <time>2014-03-15T09:28:29Z</time>
      </trkpt>
      <trkpt lat="45.929522970691323" lon="8.746487880125642">
        <ele>869.64999999999998</ele>
        <time>2014-03-15T09:28:31Z</time>
      </trkpt>
      <trkpt lat="45.929465973749757" lon="8.746741432696581">
        <ele>866.76999999999998</ele>
        <time>2014-03-15T09:28:48Z</time>
      </trkpt>
      <trkpt lat="45.929446024820209" lon="8.746942849829793">
        <ele>863.88</ele>
        <time>2014-03-15T09:28:59Z</time>
      </trkpt>
      <trkpt lat="45.929408306255937" lon="8.747009066864848">
        <ele>861.96000000000004</ele>
        <time>2014-03-15T09:29:04Z</time>
      </trkpt>
      <trkpt lat="45.929364217445254" lon="8.747228756546974">
        <ele>859.08000000000004</ele>
        <time>2014-03-15T09:29:19Z</time>
      </trkpt>
      <trkpt lat="45.929347286000848" lon="8.747428162023425">
        <ele>858.11000000000001</ele>
        <time>2014-03-15T09:29:33Z</time>
      </trkpt>
      <trkpt lat="45.929326750338078" lon="8.747583478689194">
        <ele>856.66999999999996</ele>
        <time>2014-03-15T09:29:43Z</time>
      </trkpt>
      <trkpt lat="45.92934200540185" lon="8.747756900265813">
        <ele>853.78999999999996</ele>
        <time>2014-03-15T09:29:55Z</time>
      </trkpt>
      <trkpt lat="45.929343933239579" lon="8.747883131727576">
        <ele>851.87</ele>
        <time>2014-03-15T09:30:03Z</time>
      </trkpt>
      <trkpt lat="45.929324738681316" lon="8.74808119609952">
        <ele>848.98000000000002</ele>
        <time>2014-03-15T09:30:16Z</time>
      </trkpt>
      <trkpt lat="45.929342843592167" lon="8.748166523873806">
        <ele>848.01999999999998</ele>
        <time>2014-03-15T09:30:28Z</time>
      </trkpt>
      <trkpt lat="45.92935617081821" lon="8.748342795297504">
        <ele>844.65999999999997</ele>
        <time>2014-03-15T09:30:42Z</time>
      </trkpt>
      <trkpt lat="45.92935910448432" lon="8.748543877154589">
        <ele>842.25</ele>
        <time>2014-03-15T09:30:55Z</time>
      </trkpt>
      <trkpt lat="45.929301101714373" lon="8.748732637614012">
        <ele>840.80999999999995</ele>
        <time>2014-03-15T09:31:10Z</time>
      </trkpt>
      <trkpt lat="45.92933027073741" lon="8.748758705332875">
        <ele>839.85000000000002</ele>
        <time>2014-03-15T09:31:25Z</time>
      </trkpt>
      <trkpt lat="45.929352063685656" lon="8.748703384771943">
        <ele>840.33000000000004</ele>
        <time>2014-03-15T09:31:43Z</time>
      </trkpt>
      <trkpt lat="45.929429093375802" lon="8.74869198538363">
        <ele>839.37</ele>
        <time>2014-03-15T09:31:54Z</time>
      </trkpt>
      <trkpt lat="45.929447282105684" lon="8.748570447787643">
        <ele>838.40999999999997</ele>
        <time>2014-03-15T09:32:07Z</time>
      </trkpt>
      <trkpt lat="45.929480977356434" lon="8.748476905748248">
        <ele>837.92999999999995</ele>
        <time>2014-03-15T09:32:14Z</time>
      </trkpt>
      <trkpt lat="45.929511319845915" lon="8.748248917981982">
        <ele>835.51999999999998</ele>
        <time>2014-03-15T09:32:29Z</time>
      </trkpt>
      <trkpt lat="45.929521378129721" lon="8.748182784765959">
        <ele>835.51999999999998</ele>
        <time>2014-03-15T09:32:34Z</time>
      </trkpt>
      <trkpt lat="45.92955750413239" lon="8.748123021796346">
        <ele>834.55999999999995</ele>
        <time>2014-03-15T09:32:39Z</time>
      </trkpt>
      <trkpt lat="45.929600084200501" lon="8.74791213311255">
        <ele>833.12</ele>
        <time>2014-03-15T09:32:53Z</time>
      </trkpt>
      <trkpt lat="45.929610477760434" lon="8.747810963541269">
        <ele>832.15999999999997</ele>
        <time>2014-03-15T09:32:59Z</time>
      </trkpt>
      <trkpt lat="45.929666552692652" lon="8.747648186981678">
        <ele>831.20000000000005</ele>
        <time>2014-03-15T09:33:14Z</time>
      </trkpt>
      <trkpt lat="45.929820947349072" lon="8.747414667159319">
        <ele>828.78999999999996</ele>
        <time>2014-03-15T09:33:29Z</time>
      </trkpt>
      <trkpt lat="45.929908119142056" lon="8.747302098199725">
        <ele>828.30999999999995</ele>
        <time>2014-03-15T09:33:42Z</time>
      </trkpt>
      <trkpt lat="45.929989423602819" lon="8.747220374643803">
        <ele>826.87</ele>
        <time>2014-03-15T09:33:58Z</time>
      </trkpt>
      <trkpt lat="45.930006187409163" lon="8.747220877557993">
        <ele>826.87</ele>
        <time>2014-03-15T09:34:20Z</time>
      </trkpt>
      <trkpt lat="45.930007779970765" lon="8.747225068509579">
        <ele>826.87</ele>
        <time>2014-03-15T09:34:34Z</time>
      </trkpt>
      <trkpt lat="45.930037954822183" lon="8.747187852859497">
        <ele>826.87</ele>
        <time>2014-03-15T09:34:54Z</time>
      </trkpt>
      <trkpt lat="45.930032087489963" lon="8.747205873951316">
        <ele>826.38999999999999</ele>
        <time>2014-03-15T09:35:15Z</time>
      </trkpt>
      <trkpt lat="45.930115319788456" lon="8.747281562536955">
        <ele>825.42999999999995</ele>
        <time>2014-03-15T09:35:33Z</time>
      </trkpt>
      <trkpt lat="45.930115235969424" lon="8.747286256402731">
        <ele>824.95000000000005</ele>
        <time>2014-03-15T09:35:56Z</time>
      </trkpt>
      <trkpt lat="45.930178351700306" lon="8.747427994385362">
        <ele>824.95000000000005</ele>
        <time>2014-03-15T09:36:10Z</time>
      </trkpt>
      <trkpt lat="45.930286226794124" lon="8.747461689636111">
        <ele>823.50999999999999</ele>
        <time>2014-03-15T09:36:21Z</time>
      </trkpt>
      <trkpt lat="45.93032905831933" lon="8.747429586946964">
        <ele>823.50999999999999</ele>
        <time>2014-03-15T09:36:39Z</time>
      </trkpt>
      <trkpt lat="45.930476915091276" lon="8.747458001598716">
        <ele>821.58000000000004</ele>
        <time>2014-03-15T09:36:55Z</time>
      </trkpt>
      <trkpt lat="45.930574648082256" lon="8.747452888637781">
        <ele>819.65999999999997</ele>
        <time>2014-03-15T09:37:10Z</time>
      </trkpt>
      <trkpt lat="45.930594597011805" lon="8.747407961636782">
        <ele>820.13999999999999</ele>
        <time>2014-03-15T09:37:30Z</time>
      </trkpt>
      <trkpt lat="45.930669279769063" lon="8.747487589716911">
        <ele>819.17999999999995</ele>
        <time>2014-03-15T09:37:54Z</time>
      </trkpt>
      <trkpt lat="45.93073952011764" lon="8.747558081522584">
        <ele>817.25999999999999</ele>
        <time>2014-03-15T09:38:07Z</time>
      </trkpt>
      <trkpt lat="45.930927945300937" lon="8.747677020728588">
        <ele>814.37</ele>
        <time>2014-03-15T09:38:24Z</time>
      </trkpt>
      <trkpt lat="45.931146210059524" lon="8.747724797576666">
        <ele>812.45000000000005</ele>
        <time>2014-03-15T09:38:38Z</time>
      </trkpt>
      <trkpt lat="45.931228436529636" lon="8.747693365439773">
        <ele>811.00999999999999</ele>
        <time>2014-03-15T09:38:46Z</time>
      </trkpt>
      <trkpt lat="45.931264227256179" lon="8.747699316591024">
        <ele>811.00999999999999</ele>
        <time>2014-03-15T09:38:49Z</time>
      </trkpt>
      <trkpt lat="45.931291133165359" lon="8.747715158388019">
        <ele>810.04999999999995</ele>
        <time>2014-03-15T09:38:51Z</time>
      </trkpt>
      <trkpt lat="45.931452820077538" lon="8.747708536684513">
        <ele>808.13</ele>
        <time>2014-03-15T09:39:05Z</time>
      </trkpt>
      <trkpt lat="45.931626660749316" lon="8.747673332691193">
        <ele>806.67999999999995</ele>
        <time>2014-03-15T09:39:18Z</time>
      </trkpt>
      <trkpt lat="45.93177393078804" lon="8.747686743736267">
        <ele>804.75999999999999</ele>
        <time>2014-03-15T09:39:33Z</time>
      </trkpt>
      <trkpt lat="45.931869903579354" lon="8.747601751238108">
        <ele>803.79999999999995</ele>
        <time>2014-03-15T09:39:46Z</time>
      </trkpt>
      <trkpt lat="45.931853894144297" lon="8.747673751786351">
        <ele>804.27999999999997</ele>
        <time>2014-03-15T09:39:58Z</time>
      </trkpt>
      <trkpt lat="45.93186529353261" lon="8.747643157839775">
        <ele>804.27999999999997</ele>
        <time>2014-03-15T09:40:05Z</time>
      </trkpt>
      <trkpt lat="45.931882560253143" lon="8.747558416798711">
        <ele>803.32000000000005</ele>
        <time>2014-03-15T09:40:10Z</time>
      </trkpt>
      <trkpt lat="45.931895971298218" lon="8.747510053217411">
        <ele>803.32000000000005</ele>
        <time>2014-03-15T09:40:14Z</time>
      </trkpt>
      <trkpt lat="45.932009965181351" lon="8.747465377673507">
        <ele>801.39999999999998</ele>
        <time>2014-03-15T09:40:27Z</time>
      </trkpt>
      <trkpt lat="45.932033350691199" lon="8.747468059882522">
        <ele>800.44000000000005</ele>
        <time>2014-03-15T09:40:29Z</time>
      </trkpt>
      <trkpt lat="45.932058412581682" lon="8.747545341029763">
        <ele>799.47000000000003</ele>
        <time>2014-03-15T09:40:40Z</time>
      </trkpt>
      <trkpt lat="45.932058580219746" lon="8.74756470322609">
        <ele>798.99000000000001</ele>
        <time>2014-03-15T09:40:57Z</time>
      </trkpt>
      <trkpt lat="45.932060591876507" lon="8.747542994096875">
        <ele>799.95000000000005</ele>
        <time>2014-03-15T09:41:13Z</time>
      </trkpt>
      <trkpt lat="45.932051874697208" lon="8.747510723769665">
        <ele>799.95000000000005</ele>
        <time>2014-03-15T09:41:33Z</time>
      </trkpt>
      <trkpt lat="45.932035613805056" lon="8.747535618022084">
        <ele>799.47000000000003</ele>
        <time>2014-03-15T09:41:56Z</time>
      </trkpt>
      <trkpt lat="45.932143656536937" lon="8.747792858630419">
        <ele>796.59000000000003</ele>
        <time>2014-03-15T09:42:22Z</time>
      </trkpt>
      <trkpt lat="45.932448506355286" lon="8.747140327468514">
        <ele>794.66999999999996</ele>
        <time>2014-03-15T09:44:08Z</time>
      </trkpt>
      <trkpt lat="45.932420510798693" lon="8.747165389358997">
        <ele>794.66999999999996</ele>
        <time>2014-03-15T09:44:11Z</time>
      </trkpt>
      <trkpt lat="45.932410368695855" lon="8.747169245034456">
        <ele>795.14999999999998</ele>
        <time>2014-03-15T09:44:14Z</time>
      </trkpt>
      <trkpt lat="45.932443393394351" lon="8.74712641350925">
        <ele>794.19000000000005</ele>
        <time>2014-03-15T09:44:26Z</time>
      </trkpt>
      <trkpt lat="45.932425456121564" lon="8.747076960280538">
        <ele>794.66999999999996</ele>
        <time>2014-03-15T09:44:58Z</time>
      </trkpt>
      <trkpt lat="45.932431994006038" lon="8.747200425714254">
        <ele>794.66999999999996</ele>
        <time>2014-03-15T09:45:14Z</time>
      </trkpt>
      <trkpt lat="45.932409446686506" lon="8.747168825939298">
        <ele>793.71000000000004</ele>
        <time>2014-03-15T09:45:28Z</time>
      </trkpt>
      <trkpt lat="45.932427803054452" lon="8.747142590582371">
        <ele>793.71000000000004</ele>
        <time>2014-03-15T09:45:48Z</time>
      </trkpt>
      <trkpt lat="45.932413302361965" lon="8.747145440429449">
        <ele>793.71000000000004</ele>
        <time>2014-03-15T09:46:10Z</time>
      </trkpt>
      <trkpt lat="45.93241791240871" lon="8.747157761827111">
        <ele>793.22000000000003</ele>
        <time>2014-03-15T09:46:24Z</time>
      </trkpt>
      <trkpt lat="45.932417577132583" lon="8.747103027999401">
        <ele>792.74000000000001</ele>
        <time>2014-03-15T09:46:36Z</time>
      </trkpt>
      <trkpt lat="45.932424198836088" lon="8.746941424906254">
        <ele>790.82000000000005</ele>
        <time>2014-03-15T09:46:47Z</time>
      </trkpt>
      <trkpt lat="45.932387737557292" lon="8.746742187067866">
        <ele>791.29999999999995</ele>
        <time>2014-03-15T09:47:01Z</time>
      </trkpt>
      <trkpt lat="45.932373572140932" lon="8.746628444641829">
        <ele>792.74000000000001</ele>
        <time>2014-03-15T09:47:12Z</time>
      </trkpt>
      <trkpt lat="45.932401148602366" lon="8.746604220941663">
        <ele>792.25999999999999</ele>
        <time>2014-03-15T09:47:24Z</time>
      </trkpt>
      <trkpt lat="45.932496031746268" lon="8.746519396081567">
        <ele>790.82000000000005</ele>
        <time>2014-03-15T09:47:39Z</time>
      </trkpt>
      <trkpt lat="45.932537857443094" lon="8.746477738022804">
        <ele>790.82000000000005</ele>
        <time>2014-03-15T09:47:45Z</time>
      </trkpt>
      <trkpt lat="45.932601476088166" lon="8.746436834335327">
        <ele>790.34000000000003</ele>
        <time>2014-03-15T09:47:57Z</time>
      </trkpt>
      <trkpt lat="45.932704908773303" lon="8.746299874037504">
        <ele>789.86000000000001</ele>
        <time>2014-03-15T09:48:10Z</time>
      </trkpt>
      <trkpt lat="45.932738352566957" lon="8.746241284534335">
        <ele>789.86000000000001</ele>
        <time>2014-03-15T09:48:14Z</time>
      </trkpt>
      <trkpt lat="45.93283960595727" lon="8.746116394177079">
        <ele>788.89999999999998</ele>
        <time>2014-03-15T09:48:27Z</time>
      </trkpt>
      <trkpt lat="45.932862153276801" lon="8.746091248467565">
        <ele>788.41999999999996</ele>
        <time>2014-03-15T09:48:30Z</time>
      </trkpt>
      <trkpt lat="45.932978158816695" lon="8.745912965387106">
        <ele>786.5</ele>
        <time>2014-03-15T09:48:44Z</time>
      </trkpt>
      <trkpt lat="45.933082597330213" lon="8.745678523555398">
        <ele>784.09000000000003</ele>
        <time>2014-03-15T09:49:02Z</time>
      </trkpt>
      <trkpt lat="45.933173121884465" lon="8.745472747832537">
        <ele>781.69000000000005</ele>
        <time>2014-03-15T09:49:17Z</time>
      </trkpt>
      <trkpt lat="45.933251576498151" lon="8.745308881625533">
        <ele>780.25</ele>
        <time>2014-03-15T09:49:30Z</time>
      </trkpt>
      <trkpt lat="45.933257527649403" lon="8.74529991298914">
        <ele>779.76999999999998</ele>
        <time>2014-03-15T09:49:31Z</time>
      </trkpt>
      <trkpt lat="45.933385519310832" lon="8.745134454220533">
        <ele>778.32000000000005</ele>
        <time>2014-03-15T09:49:46Z</time>
      </trkpt>
      <trkpt lat="45.933470847085118" lon="8.744974359869957">
        <ele>775.91999999999996</ele>
        <time>2014-03-15T09:49:58Z</time>
      </trkpt>
      <trkpt lat="45.933529688045382" lon="8.744777636602521">
        <ele>774.48000000000002</ele>
        <time>2014-03-15T09:50:12Z</time>
      </trkpt>
      <trkpt lat="45.933537567034364" lon="8.744756178930402">
        <ele>774</ele>
        <time>2014-03-15T09:50:14Z</time>
      </trkpt>
      <trkpt lat="45.933544104918838" lon="8.744735894724727">
        <ele>774</ele>
        <time>2014-03-15T09:50:15Z</time>
      </trkpt>
      <trkpt lat="45.933575620874763" lon="8.744647214189172">
        <ele>773.03999999999996</ele>
        <time>2014-03-15T09:50:20Z</time>
      </trkpt>
      <trkpt lat="45.933611076325178" lon="8.744542524218559">
        <ele>772.08000000000004</ele>
        <time>2014-03-15T09:50:33Z</time>
      </trkpt>
      <trkpt lat="45.933638317510486" lon="8.744509331882">
        <ele>772.08000000000004</ele>
        <time>2014-03-15T09:50:47Z</time>
      </trkpt>
      <trkpt lat="45.933637814596295" lon="8.744495837017894">
        <ele>772.08000000000004</ele>
        <time>2014-03-15T09:50:48Z</time>
      </trkpt>
      <trkpt lat="45.933704702183604" lon="8.744319314137101">
        <ele>770.14999999999998</ele>
        <time>2014-03-15T09:51:01Z</time>
      </trkpt>
      <trkpt lat="45.933728087693453" lon="8.744284193962812">
        <ele>770.14999999999998</ele>
        <time>2014-03-15T09:51:04Z</time>
      </trkpt>
      <trkpt lat="45.933827748522162" lon="8.744090404361486">
        <ele>767.75</ele>
        <time>2014-03-15T09:51:18Z</time>
      </trkpt>
      <trkpt lat="45.933848703280091" lon="8.744021337479353">
        <ele>767.26999999999998</ele>
        <time>2014-03-15T09:51:23Z</time>
      </trkpt>
      <trkpt lat="45.933938305824995" lon="8.743849927559495">
        <ele>766.30999999999995</ele>
        <time>2014-03-15T09:51:38Z</time>
      </trkpt>
      <trkpt lat="45.933975437656045" lon="8.743662927299738">
        <ele>766.30999999999995</ele>
        <time>2014-03-15T09:51:51Z</time>
      </trkpt>
      <trkpt lat="45.933980382978916" lon="8.743521692231298">
        <ele>766.30999999999995</ele>
        <time>2014-03-15T09:52:00Z</time>
      </trkpt>
      <trkpt lat="45.93393025919795" lon="8.743308121338487">
        <ele>766.78999999999996</ele>
        <time>2014-03-15T09:52:15Z</time>
      </trkpt>
      <trkpt lat="45.933877704665065" lon="8.743203934282064">
        <ele>766.78999999999996</ele>
        <time>2014-03-15T09:52:24Z</time>
      </trkpt>
      <trkpt lat="45.933815091848373" lon="8.743058675900102">
        <ele>767.26999999999998</ele>
        <time>2014-03-15T09:52:34Z</time>
      </trkpt>
      <trkpt lat="45.93385498970747" lon="8.742947364225984">
        <ele>767.26999999999998</ele>
        <time>2014-03-15T09:52:42Z</time>
      </trkpt>
      <trkpt lat="45.934008546173573" lon="8.742829682305455">
        <ele>767.26999999999998</ele>
        <time>2014-03-15T09:52:55Z</time>
      </trkpt>
      <trkpt lat="45.934173502027988" lon="8.742697918787599">
        <ele>766.78999999999996</ele>
        <time>2014-03-15T09:53:12Z</time>
      </trkpt>
      <trkpt lat="45.934290932491422" lon="8.742614099755883">
        <ele>766.78999999999996</ele>
        <time>2014-03-15T09:53:25Z</time>
      </trkpt>
      <trkpt lat="45.93430845066905" lon="8.742516534402967">
        <ele>766.78999999999996</ele>
        <time>2014-03-15T09:53:31Z</time>
      </trkpt>
      <trkpt lat="45.934265032410622" lon="8.742270357906818">
        <ele>766.78999999999996</ele>
        <time>2014-03-15T09:53:47Z</time>
      </trkpt>
      <trkpt lat="45.934236282482743" lon="8.742062989622355">
        <ele>766.78999999999996</ele>
        <time>2014-03-15T09:54:01Z</time>
      </trkpt>
      <trkpt lat="45.934233432635665" lon="8.74199828132987">
        <ele>766.78999999999996</ele>
        <time>2014-03-15T09:54:05Z</time>
      </trkpt>
      <trkpt lat="45.934209041297436" lon="8.741848496720195">
        <ele>766.78999999999996</ele>
        <time>2014-03-15T09:54:17Z</time>
      </trkpt>
      <trkpt lat="45.93418967910111" lon="8.741794684901834">
        <ele>766.78999999999996</ele>
        <time>2014-03-15T09:54:20Z</time>
      </trkpt>
      <trkpt lat="45.934202922508121" lon="8.741712542250752">
        <ele>767.26999999999998</ele>
        <time>2014-03-15T09:54:26Z</time>
      </trkpt>
      <trkpt lat="45.934318173676729" lon="8.741703825071454">
        <ele>766.78999999999996</ele>
        <time>2014-03-15T09:54:39Z</time>
      </trkpt>
      <trkpt lat="45.934414397925138" lon="8.741653114557266">
        <ele>766.78999999999996</ele>
        <time>2014-03-15T09:54:53Z</time>
      </trkpt>
      <trkpt lat="45.9344232827425" lon="8.741616401821375">
        <ele>766.78999999999996</ele>
        <time>2014-03-15T09:55:09Z</time>
      </trkpt>
      <trkpt lat="45.934461839497089" lon="8.74166308902204">
        <ele>766.78999999999996</ele>
        <time>2014-03-15T09:55:35Z</time>
      </trkpt>
      <trkpt lat="45.934444237500429" lon="8.741663424298167">
        <ele>767.26999999999998</ele>
        <time>2014-03-15T09:55:55Z</time>
      </trkpt>
      <trkpt lat="45.934462761506438" lon="8.741616066545248">
        <ele>767.26999999999998</ele>
        <time>2014-03-15T09:56:00Z</time>
      </trkpt>
      <trkpt lat="45.934624280780554" lon="8.741410877555609">
        <ele>767.26999999999998</ele>
        <time>2014-03-15T09:56:17Z</time>
      </trkpt>
      <trkpt lat="45.934700891375542" lon="8.741240305826068">
        <ele>766.78999999999996</ele>
        <time>2014-03-15T09:56:30Z</time>
      </trkpt>
      <trkpt lat="45.934768114238977" lon="8.741060011088848">
        <ele>766.78999999999996</ele>
        <time>2014-03-15T09:56:44Z</time>
      </trkpt>
      <trkpt lat="45.934765012934804" lon="8.741033859550953">
        <ele>767.26999999999998</ele>
        <time>2014-03-15T09:56:55Z</time>
      </trkpt>
      <trkpt lat="45.934693766757846" lon="8.740893714129925">
        <ele>767.26999999999998</ele>
        <time>2014-03-15T09:57:05Z</time>
      </trkpt>
      <trkpt lat="45.934706591069698" lon="8.740827664732933">
        <ele>767.75</ele>
        <time>2014-03-15T09:57:09Z</time>
      </trkpt>
      <trkpt lat="45.93477456830442" lon="8.740664552897215">
        <ele>768.23000000000002</ele>
        <time>2014-03-15T09:57:19Z</time>
      </trkpt>
      <trkpt lat="45.934785548597574" lon="8.740382334217429">
        <ele>768.71000000000004</ele>
        <time>2014-03-15T09:57:35Z</time>
      </trkpt>
      <trkpt lat="45.934871630743146" lon="8.74016297981143">
        <ele>769.19000000000005</ele>
        <time>2014-03-15T09:57:48Z</time>
      </trkpt>
      <trkpt lat="45.934898955747485" lon="8.740148227661848">
        <ele>769.19000000000005</ele>
        <time>2014-03-15T09:57:50Z</time>
      </trkpt>
      <trkpt lat="45.934919742867351" lon="8.740046555176377">
        <ele>769.66999999999996</ele>
        <time>2014-03-15T09:57:56Z</time>
      </trkpt>
      <trkpt lat="45.934887640178204" lon="8.739784201607108">
        <ele>770.14999999999998</ele>
        <time>2014-03-15T09:58:11Z</time>
      </trkpt>
      <trkpt lat="45.934812370687723" lon="8.739522183313966">
        <ele>771.11000000000001</ele>
        <time>2014-03-15T09:58:28Z</time>
      </trkpt>
      <trkpt lat="45.934863835573196" lon="8.739358652383089">
        <ele>771.60000000000002</ele>
        <time>2014-03-15T09:58:41Z</time>
      </trkpt>
      <trkpt lat="45.934911528602242" lon="8.739188583567739">
        <ele>771.60000000000002</ele>
        <time>2014-03-15T09:58:54Z</time>
      </trkpt>
      <trkpt lat="45.934960478916764" lon="8.738973001018167">
        <ele>771.60000000000002</ele>
        <time>2014-03-15T09:59:09Z</time>
      </trkpt>
      <trkpt lat="45.935011357069016" lon="8.738832855597138">
        <ele>771.11000000000001</ele>
        <time>2014-03-15T09:59:17Z</time>
      </trkpt>
      <trkpt lat="45.935195339843631" lon="8.738614926114678">
        <ele>771.11000000000001</ele>
        <time>2014-03-15T09:59:32Z</time>
      </trkpt>
      <trkpt lat="45.935352081432939" lon="8.738442426547408">
        <ele>771.60000000000002</ele>
        <time>2014-03-15T09:59:47Z</time>
      </trkpt>
      <trkpt lat="45.935444450005889" lon="8.738285349681974">
        <ele>771.60000000000002</ele>
        <time>2014-03-15T10:00:01Z</time>
      </trkpt>
      <trkpt lat="45.935442605987191" lon="8.738236064091325">
        <ele>771.11000000000001</ele>
        <time>2014-03-15T10:00:04Z</time>
      </trkpt>
      <trkpt lat="45.93544696457684" lon="8.737969687208533">
        <ele>772.08000000000004</ele>
        <time>2014-03-15T10:00:20Z</time>
      </trkpt>
      <trkpt lat="45.935367671772838" lon="8.737731892615557">
        <ele>773.03999999999996</ele>
        <time>2014-03-15T10:00:36Z</time>
      </trkpt>
      <trkpt lat="45.935242865234613" lon="8.737574480473995">
        <ele>773.51999999999998</ele>
        <time>2014-03-15T10:00:51Z</time>
      </trkpt>
      <trkpt lat="45.935223754495382" lon="8.737538689747453">
        <ele>773.51999999999998</ele>
        <time>2014-03-15T10:00:53Z</time>
      </trkpt>
      <trkpt lat="45.935196345672011" lon="8.737460654228926">
        <ele>774</ele>
        <time>2014-03-15T10:00:58Z</time>
      </trkpt>
      <trkpt lat="45.935098277404904" lon="8.737304834648967">
        <ele>774.96000000000004</ele>
        <time>2014-03-15T10:01:13Z</time>
      </trkpt>
      <trkpt lat="45.935063492506742" lon="8.737260159105063">
        <ele>774.96000000000004</ele>
        <time>2014-03-15T10:01:19Z</time>
      </trkpt>
      <trkpt lat="45.934997862204909" lon="8.737214980646968">
        <ele>775.44000000000005</ele>
        <time>2014-03-15T10:01:35Z</time>
      </trkpt>
      <trkpt lat="45.934970201924443" lon="8.737175334244967">
        <ele>774.96000000000004</ele>
        <time>2014-03-15T10:01:41Z</time>
      </trkpt>
      <trkpt lat="45.934914462268353" lon="8.737019849941135">
        <ele>775.44000000000005</ele>
        <time>2014-03-15T10:01:55Z</time>
      </trkpt>
      <trkpt lat="45.934842880815268" lon="8.736821701750159">
        <ele>776.39999999999998</ele>
        <time>2014-03-15T10:02:08Z</time>
      </trkpt>
      <trkpt lat="45.934738777577877" lon="8.736738050356507">
        <ele>776.39999999999998</ele>
        <time>2014-03-15T10:02:21Z</time>
      </trkpt>
      <trkpt lat="45.934703322127461" lon="8.736691949889064">
        <ele>776.88</ele>
        <time>2014-03-15T10:02:25Z</time>
      </trkpt>
      <trkpt lat="45.934595027938485" lon="8.736590361222625">
        <ele>776.88</ele>
        <time>2014-03-15T10:02:39Z</time>
      </trkpt>
      <trkpt lat="45.934525625780225" lon="8.736597904935479">
        <ele>776.88</ele>
        <time>2014-03-15T10:02:57Z</time>
      </trkpt>
      <trkpt lat="45.934375002980232" lon="8.736559934914112">
        <ele>776.88</ele>
        <time>2014-03-15T10:03:11Z</time>
      </trkpt>
      <trkpt lat="45.934245670214295" lon="8.736506290733814">
        <ele>777.36000000000001</ele>
        <time>2014-03-15T10:03:23Z</time>
      </trkpt>
      <trkpt lat="45.934114325791597" lon="8.736422304064035">
        <ele>776.88</ele>
        <time>2014-03-15T10:03:37Z</time>
      </trkpt>
      <trkpt lat="45.933964289724827" lon="8.736342173069716">
        <ele>776.39999999999998</ele>
        <time>2014-03-15T10:03:50Z</time>
      </trkpt>
      <trkpt lat="45.933853648602962" lon="8.736244020983577">
        <ele>776.88</ele>
        <time>2014-03-15T10:04:04Z</time>
      </trkpt>
      <trkpt lat="45.933715431019664" lon="8.736248044297099">
        <ele>776.88</ele>
        <time>2014-03-15T10:04:18Z</time>
      </trkpt>
      <trkpt lat="45.933612417429686" lon="8.736088704317808">
        <ele>776.88</ele>
        <time>2014-03-15T10:04:32Z</time>
      </trkpt>
      <trkpt lat="45.933618033304811" lon="8.736056769266725">
        <ele>776.88</ele>
        <time>2014-03-15T10:04:34Z</time>
      </trkpt>
      <trkpt lat="45.933666061609983" lon="8.735818387940526">
        <ele>777.36000000000001</ele>
        <time>2014-03-15T10:04:48Z</time>
      </trkpt>
      <trkpt lat="45.933697577565908" lon="8.735588807612658">
        <ele>776.88</ele>
        <time>2014-03-15T10:05:02Z</time>
      </trkpt>
      <trkpt lat="45.933744432404637" lon="8.735422594472766">
        <ele>776.88</ele>
        <time>2014-03-15T10:05:15Z</time>
      </trkpt>
      <trkpt lat="45.933817941695452" lon="8.73514230363071">
        <ele>776.88</ele>
        <time>2014-03-15T10:05:32Z</time>
      </trkpt>
      <trkpt lat="45.933842668309808" lon="8.735061921179295">
        <ele>777.36000000000001</ele>
        <time>2014-03-15T10:05:50Z</time>
      </trkpt>
      <trkpt lat="45.93387502245605" lon="8.73488238081336">
        <ele>777.36000000000001</ele>
        <time>2014-03-15T10:06:04Z</time>
      </trkpt>
      <trkpt lat="45.933911902830005" lon="8.734690435230732">
        <ele>777.36000000000001</ele>
        <time>2014-03-15T10:06:16Z</time>
      </trkpt>
      <trkpt lat="45.93393755145371" lon="8.73459454625845">
        <ele>777.36000000000001</ele>
        <time>2014-03-15T10:06:25Z</time>
      </trkpt>
      <trkpt lat="45.934016676619649" lon="8.734415844082832">
        <ele>777.84000000000003</ele>
        <time>2014-03-15T10:06:39Z</time>
      </trkpt>
      <trkpt lat="45.933960098773241" lon="8.734259689226747">
        <ele>778.32000000000005</ele>
        <time>2014-03-15T10:06:53Z</time>
      </trkpt>
      <trkpt lat="45.933812912553549" lon="8.734062965959311">
        <ele>778.32000000000005</ele>
        <time>2014-03-15T10:07:09Z</time>
      </trkpt>
      <trkpt lat="45.933781731873751" lon="8.733844282105565">
        <ele>778.32000000000005</ele>
        <time>2014-03-15T10:07:23Z</time>
      </trkpt>
      <trkpt lat="45.933778546750546" lon="8.733803629875183">
        <ele>778.32000000000005</ele>
        <time>2014-03-15T10:07:26Z</time>
      </trkpt>
      <trkpt lat="45.933771086856723" lon="8.733705813065171">
        <ele>778.32000000000005</ele>
        <time>2014-03-15T10:07:33Z</time>
      </trkpt>
      <trkpt lat="45.933740409091115" lon="8.733626771718264">
        <ele>777.36000000000001</ele>
        <time>2014-03-15T10:07:47Z</time>
      </trkpt>
      <trkpt lat="45.933706294745207" lon="8.733598776161671">
        <ele>777.36000000000001</ele>
        <time>2014-03-15T10:08:16Z</time>
      </trkpt>
      <trkpt lat="45.933731691911817" lon="8.733575893566012">
        <ele>776.88</ele>
        <time>2014-03-15T10:08:58Z</time>
      </trkpt>
      <trkpt lat="45.933752730488777" lon="8.733619898557663">
        <ele>776.88</ele>
        <time>2014-03-15T10:09:29Z</time>
      </trkpt>
      <trkpt lat="45.933718699961901" lon="8.733615707606077">
        <ele>777.36000000000001</ele>
        <time>2014-03-15T10:10:03Z</time>
      </trkpt>
      <trkpt lat="45.933724483475089" lon="8.733573462814093">
        <ele>777.36000000000001</ele>
        <time>2014-03-15T10:10:47Z</time>
      </trkpt>
      <trkpt lat="45.933753484860063" lon="8.73352786526084">
        <ele>777.36000000000001</ele>
        <time>2014-03-15T10:11:16Z</time>
      </trkpt>
      <trkpt lat="45.933788605034351" lon="8.733642948791385">
        <ele>778.32000000000005</ele>
        <time>2014-03-15T10:11:31Z</time>
      </trkpt>
      <trkpt lat="45.933774942532182" lon="8.733621407300234">
        <ele>778.32000000000005</ele>
        <time>2014-03-15T10:11:33Z</time>
      </trkpt>
      <trkpt lat="45.93368106521666" lon="8.733450500294566">
        <ele>778.32000000000005</ele>
        <time>2014-03-15T10:11:46Z</time>
      </trkpt>
      <trkpt lat="45.933606633916497" lon="8.733266182243824">
        <ele>778.32000000000005</ele>
        <time>2014-03-15T10:11:57Z</time>
      </trkpt>
      <trkpt lat="45.9335373993963" lon="8.733165096491575">
        <ele>778.32000000000005</ele>
        <time>2014-03-15T10:12:05Z</time>
      </trkpt>
      <trkpt lat="45.933449557051063" lon="8.732996201142669">
        <ele>777.84000000000003</ele>
        <time>2014-03-15T10:12:19Z</time>
      </trkpt>
      <trkpt lat="45.933419214561582" lon="8.732775002717972">
        <ele>778.32000000000005</ele>
        <time>2014-03-15T10:12:33Z</time>
      </trkpt>
      <trkpt lat="45.933446371927857" lon="8.732665535062552">
        <ele>777.84000000000003</ele>
        <time>2014-03-15T10:12:40Z</time>
      </trkpt>
      <trkpt lat="45.933491885662079" lon="8.732610465958715">
        <ele>777.84000000000003</ele>
        <time>2014-03-15T10:12:45Z</time>
      </trkpt>
      <trkpt lat="45.933513343334198" lon="8.732586661353707">
        <ele>778.32000000000005</ele>
        <time>2014-03-15T10:12:47Z</time>
      </trkpt>
      <trkpt lat="45.933616608381271" lon="8.732412653043866">
        <ele>779.76999999999998</ele>
        <time>2014-03-15T10:13:02Z</time>
      </trkpt>
      <trkpt lat="45.933702019974589" lon="8.7322779558599">
        <ele>780.73000000000002</ele>
        <time>2014-03-15T10:13:15Z</time>
      </trkpt>
      <trkpt lat="45.933725908398628" lon="8.732259348034859">
        <ele>781.69000000000005</ele>
        <time>2014-03-15T10:13:19Z</time>
      </trkpt>
      <trkpt lat="45.933840572834015" lon="8.732152143493295">
        <ele>782.64999999999998</ele>
        <time>2014-03-15T10:13:34Z</time>
      </trkpt>
      <trkpt lat="45.933959512040019" lon="8.732106378301978">
        <ele>783.61000000000001</ele>
        <time>2014-03-15T10:13:50Z</time>
      </trkpt>
      <trkpt lat="45.933996979147196" lon="8.732147281989455">
        <ele>784.09000000000003</ele>
        <time>2014-03-15T10:14:07Z</time>
      </trkpt>
      <trkpt lat="45.934000248089433" lon="8.732206961140037">
        <ele>784.09000000000003</ele>
        <time>2014-03-15T10:14:38Z</time>
      </trkpt>
      <trkpt lat="45.934051545336843" lon="8.732125908136368">
        <ele>785.04999999999995</ele>
        <time>2014-03-15T10:14:54Z</time>
      </trkpt>
      <trkpt lat="45.934139974415302" lon="8.731891047209501">
        <ele>786.01999999999998</ele>
        <time>2014-03-15T10:15:12Z</time>
      </trkpt>
      <trkpt lat="45.934178112074733" lon="8.731719050556421">
        <ele>787.46000000000004</ele>
        <time>2014-03-15T10:15:27Z</time>
      </trkpt>
      <trkpt lat="45.934205688536167" lon="8.731511179357767">
        <ele>788.89999999999998</ele>
        <time>2014-03-15T10:15:43Z</time>
      </trkpt>
      <trkpt lat="45.934245083481073" lon="8.731354018673301">
        <ele>790.34000000000003</ele>
        <time>2014-03-15T10:15:58Z</time>
      </trkpt>
      <trkpt lat="45.934310629963875" lon="8.731150506064296">
        <ele>790.82000000000005</ele>
        <time>2014-03-15T10:16:13Z</time>
      </trkpt>
      <trkpt lat="45.934392940253019" lon="8.730987226590514">
        <ele>792.74000000000001</ele>
        <time>2014-03-15T10:16:28Z</time>
      </trkpt>
      <trkpt lat="45.934429736807942" lon="8.730830987915397">
        <ele>793.22000000000003</ele>
        <time>2014-03-15T10:16:39Z</time>
      </trkpt>
      <trkpt lat="45.934497965499759" lon="8.730630995705724">
        <ele>794.66999999999996</ele>
        <time>2014-03-15T10:16:54Z</time>
      </trkpt>
      <trkpt lat="45.934536103159189" lon="8.730460088700056">
        <ele>796.11000000000001</ele>
        <time>2014-03-15T10:17:07Z</time>
      </trkpt>
      <trkpt lat="45.934631992131472" lon="8.730235872790217">
        <ele>797.54999999999995</ele>
        <time>2014-03-15T10:17:23Z</time>
      </trkpt>
      <trkpt lat="45.934738861396909" lon="8.730184324085712">
        <ele>798.99000000000001</ele>
        <time>2014-03-15T10:17:37Z</time>
      </trkpt>
      <trkpt lat="45.934877078980207" lon="8.73013386502862">
        <ele>799.95000000000005</ele>
        <time>2014-03-15T10:17:53Z</time>
      </trkpt>
      <trkpt lat="45.935016386210918" lon="8.730216342955828">
        <ele>801.39999999999998</ele>
        <time>2014-03-15T10:18:07Z</time>
      </trkpt>
      <trkpt lat="45.935026528313756" lon="8.730224892497063">
        <ele>801.39999999999998</ele>
        <time>2014-03-15T10:18:08Z</time>
      </trkpt>
      <trkpt lat="45.935185952112079" lon="8.730252971872687">
        <ele>802.84000000000003</ele>
        <time>2014-03-15T10:18:22Z</time>
      </trkpt>
      <trkpt lat="45.935263819992542" lon="8.73011483810842">
        <ele>803.79999999999995</ele>
        <time>2014-03-15T10:18:32Z</time>
      </trkpt>
      <trkpt lat="45.935315955430269" lon="8.729887437075377">
        <ele>806.20000000000005</ele>
        <time>2014-03-15T10:18:49Z</time>
      </trkpt>
      <trkpt lat="45.935359289869666" lon="8.729684930294752">
        <ele>807.15999999999997</ele>
        <time>2014-03-15T10:19:04Z</time>
      </trkpt>
      <trkpt lat="45.935372617095709" lon="8.729486195370555">
        <ele>808.61000000000001</ele>
        <time>2014-03-15T10:19:18Z</time>
      </trkpt>
      <trkpt lat="45.935377394780517" lon="8.729276731610298">
        <ele>809.57000000000005</ele>
        <time>2014-03-15T10:19:33Z</time>
      </trkpt>
      <trkpt lat="45.935349147766829" lon="8.729096772149205">
        <ele>810.04999999999995</ele>
        <time>2014-03-15T10:19:45Z</time>
      </trkpt>
      <trkpt lat="45.935357864946127" lon="8.728823773562908">
        <ele>811.49000000000001</ele>
        <time>2014-03-15T10:20:00Z</time>
      </trkpt>
      <trkpt lat="45.935341184958816" lon="8.728638701140881">
        <ele>812.45000000000005</ele>
        <time>2014-03-15T10:20:15Z</time>
      </trkpt>
      <trkpt lat="45.935349483042955" lon="8.728583212941885">
        <ele>813.88999999999999</ele>
        <time>2014-03-15T10:20:22Z</time>
      </trkpt>
      <trkpt lat="45.935382507741451" lon="8.728559743613005">
        <ele>812.45000000000005</ele>
        <time>2014-03-15T10:20:34Z</time>
      </trkpt>
      <trkpt lat="45.935422657057643" lon="8.728533005341888">
        <ele>812.45000000000005</ele>
        <time>2014-03-15T10:20:54Z</time>
      </trkpt>
      <trkpt lat="45.935387369245291" lon="8.728517079725862">
        <ele>811.97000000000003</ele>
        <time>2014-03-15T10:21:14Z</time>
      </trkpt>
      <trkpt lat="45.935370270162821" lon="8.728337958455086">
        <ele>812.45000000000005</ele>
        <time>2014-03-15T10:21:26Z</time>
      </trkpt>
      <trkpt lat="45.935325007885695" lon="8.728120112791657">
        <ele>812.92999999999995</ele>
        <time>2014-03-15T10:21:42Z</time>
      </trkpt>
      <trkpt lat="45.935279242694378" lon="8.727981308475137">
        <ele>813.40999999999997</ele>
        <time>2014-03-15T10:21:51Z</time>
      </trkpt>
      <trkpt lat="45.935178240761161" lon="8.727731946855784">
        <ele>812.92999999999995</ele>
        <time>2014-03-15T10:22:08Z</time>
      </trkpt>
      <trkpt lat="45.935113113373518" lon="8.727521309629083">
        <ele>812.92999999999995</ele>
        <time>2014-03-15T10:22:21Z</time>
      </trkpt>
      <trkpt lat="45.935095846652985" lon="8.727483507245779">
        <ele>813.40999999999997</ele>
        <time>2014-03-15T10:22:24Z</time>
      </trkpt>
      <trkpt lat="45.935058379545808" lon="8.727427516132593">
        <ele>813.40999999999997</ele>
        <time>2014-03-15T10:22:28Z</time>
      </trkpt>
      <trkpt lat="45.934941619634628" lon="8.727200450375676">
        <ele>813.40999999999997</ele>
        <time>2014-03-15T10:22:45Z</time>
      </trkpt>
      <trkpt lat="45.934912618249655" lon="8.726931810379028">
        <ele>812.92999999999995</ele>
        <time>2014-03-15T10:23:01Z</time>
      </trkpt>
      <trkpt lat="45.934885712340474" lon="8.726698206737638">
        <ele>813.40999999999997</ele>
        <time>2014-03-15T10:23:14Z</time>
      </trkpt>
      <trkpt lat="45.934864841401577" lon="8.72641297057271">
        <ele>813.40999999999997</ele>
        <time>2014-03-15T10:23:30Z</time>
      </trkpt>
      <trkpt lat="45.934871714562178" lon="8.726183725520968">
        <ele>813.40999999999997</ele>
        <time>2014-03-15T10:23:45Z</time>
      </trkpt>
      <trkpt lat="45.934866266325116" lon="8.725922796875238">
        <ele>813.40999999999997</ele>
        <time>2014-03-15T10:24:00Z</time>
      </trkpt>
      <trkpt lat="45.934823602437973" lon="8.725699922069907">
        <ele>812.92999999999995</ele>
        <time>2014-03-15T10:24:13Z</time>
      </trkpt>
      <trkpt lat="45.934767024591565" lon="8.725481489673257">
        <ele>812.92999999999995</ele>
        <time>2014-03-15T10:24:28Z</time>
      </trkpt>
      <trkpt lat="45.934724528342485" lon="8.725282587110996">
        <ele>813.40999999999997</ele>
        <time>2014-03-15T10:24:41Z</time>
      </trkpt>
      <trkpt lat="45.934724695980549" lon="8.725242270156741">
        <ele>812.92999999999995</ele>
        <time>2014-03-15T10:24:43Z</time>
      </trkpt>
      <trkpt lat="45.93474380671978" lon="8.724995004013181">
        <ele>813.40999999999997</ele>
        <time>2014-03-15T10:24:57Z</time>
      </trkpt>
      <trkpt lat="45.934764761477709" lon="8.724785037338734">
        <ele>813.40999999999997</ele>
        <time>2014-03-15T10:25:10Z</time>
      </trkpt>
      <trkpt lat="45.934772472828627" lon="8.724460825324059">
        <ele>813.40999999999997</ele>
        <time>2014-03-15T10:25:25Z</time>
      </trkpt>
      <trkpt lat="45.934747662395239" lon="8.724174834787846">
        <ele>813.40999999999997</ele>
        <time>2014-03-15T10:25:42Z</time>
      </trkpt>
      <trkpt lat="45.934727713465691" lon="8.724028570577502">
        <ele>813.88999999999999</ele>
        <time>2014-03-15T10:25:51Z</time>
      </trkpt>
      <trkpt lat="45.934631740674376" lon="8.723854813724756">
        <ele>815.34000000000003</ele>
        <time>2014-03-15T10:26:06Z</time>
      </trkpt>
      <trkpt lat="45.934595949947834" lon="8.72380661778152">
        <ele>815.34000000000003</ele>
        <time>2014-03-15T10:26:11Z</time>
      </trkpt>
      <trkpt lat="45.934577593579888" lon="8.723603105172515">
        <ele>815.82000000000005</ele>
        <time>2014-03-15T10:26:24Z</time>
      </trkpt>
      <trkpt lat="45.934484973549843" lon="8.723415099084377">
        <ele>817.25999999999999</ele>
        <time>2014-03-15T10:26:39Z</time>
      </trkpt>
      <trkpt lat="45.934393275529146" lon="8.723313761875033">
        <ele>818.22000000000003</ele>
        <time>2014-03-15T10:26:50Z</time>
      </trkpt>
      <trkpt lat="45.934243407100439" lon="8.723163725808263">
        <ele>820.62</ele>
        <time>2014-03-15T10:27:07Z</time>
      </trkpt>
      <trkpt lat="45.934154475107789" lon="8.723103376105428">
        <ele>821.58000000000004</ele>
        <time>2014-03-15T10:27:19Z</time>
      </trkpt>
      <trkpt lat="45.934117091819644" lon="8.723046714439988">
        <ele>822.05999999999995</ele>
        <time>2014-03-15T10:27:25Z</time>
      </trkpt>
      <trkpt lat="45.934122791513801" lon="8.722907910123467">
        <ele>822.54999999999995</ele>
        <time>2014-03-15T10:27:37Z</time>
      </trkpt>
      <trkpt lat="45.934139722958207" lon="8.72288997285068">
        <ele>822.54999999999995</ele>
        <time>2014-03-15T10:27:39Z</time>
      </trkpt>
      <trkpt lat="45.934234354645014" lon="8.722561318427324">
        <ele>823.50999999999999</ele>
        <time>2014-03-15T10:27:55Z</time>
      </trkpt>
      <trkpt lat="45.934314066544175" lon="8.722279686480761">
        <ele>824.47000000000003</ele>
        <time>2014-03-15T10:28:12Z</time>
      </trkpt>
      <trkpt lat="45.934384306892753" lon="8.72211447916925">
        <ele>825.42999999999995</ele>
        <time>2014-03-15T10:28:27Z</time>
      </trkpt>
      <trkpt lat="45.934450021013618" lon="8.722112970426679">
        <ele>825.90999999999997</ele>
        <time>2014-03-15T10:28:34Z</time>
      </trkpt>
      <trkpt lat="45.93453660607338" lon="8.721923287957907">
        <ele>826.87</ele>
        <time>2014-03-15T10:28:48Z</time>
      </trkpt>
      <trkpt lat="45.934544820338488" lon="8.721754644066095">
        <ele>828.30999999999995</ele>
        <time>2014-03-15T10:28:58Z</time>
      </trkpt>
      <trkpt lat="45.934534091502428" lon="8.721514670178294">
        <ele>829.26999999999998</ele>
        <time>2014-03-15T10:29:14Z</time>
      </trkpt>
      <trkpt lat="45.934517830610275" lon="8.721381900832057">
        <ele>830.24000000000001</ele>
        <time>2014-03-15T10:29:26Z</time>
      </trkpt>
      <trkpt lat="45.934530990198255" lon="8.721274444833398">
        <ele>831.20000000000005</ele>
        <time>2014-03-15T10:29:33Z</time>
      </trkpt>
      <trkpt lat="45.934559321030974" lon="8.721073279157281">
        <ele>832.15999999999997</ele>
        <time>2014-03-15T10:29:48Z</time>
      </trkpt>
      <trkpt lat="45.934619670733809" lon="8.720860378816724">
        <ele>833.12</ele>
        <time>2014-03-15T10:30:02Z</time>
      </trkpt>
      <trkpt lat="45.934624783694744" lon="8.720834394916892">
        <ele>833.60000000000002</ele>
        <time>2014-03-15T10:30:04Z</time>
      </trkpt>
      <trkpt lat="45.934651689603925" lon="8.72056357562542">
        <ele>835.03999999999996</ele>
        <time>2014-03-15T10:30:20Z</time>
      </trkpt>
      <trkpt lat="45.934678930789232" lon="8.720460310578346">
        <ele>835.51999999999998</ele>
        <time>2014-03-15T10:30:25Z</time>
      </trkpt>
      <trkpt lat="45.934675661846995" lon="8.720274735242128">
        <ele>836.48000000000002</ele>
        <time>2014-03-15T10:30:39Z</time>
      </trkpt>
      <trkpt lat="45.934710782021284" lon="8.720124866813421">
        <ele>837.92999999999995</ele>
        <time>2014-03-15T10:30:52Z</time>
      </trkpt>
      <trkpt lat="45.934797115623951" lon="8.719936776906252">
        <ele>838.88999999999999</ele>
        <time>2014-03-15T10:31:06Z</time>
      </trkpt>
      <trkpt lat="45.934900296851993" lon="8.719762936234474">
        <ele>839.37</ele>
        <time>2014-03-15T10:31:19Z</time>
      </trkpt>
      <trkpt lat="45.934957209974527" lon="8.719636201858521">
        <ele>839.37</ele>
        <time>2014-03-15T10:31:27Z</time>
      </trkpt>
      <trkpt lat="45.935081681236625" lon="8.719453476369381">
        <ele>839.37</ele>
        <time>2014-03-15T10:31:42Z</time>
      </trkpt>
      <trkpt lat="45.935098109766841" lon="8.719406705349684">
        <ele>839.85000000000002</ele>
        <time>2014-03-15T10:31:45Z</time>
      </trkpt>
      <trkpt lat="45.935133649036288" lon="8.719212748110294">
        <ele>839.85000000000002</ele>
        <time>2014-03-15T10:31:59Z</time>
      </trkpt>
      <trkpt lat="45.935139181092381" lon="8.719187099486589">
        <ele>839.85000000000002</ele>
        <time>2014-03-15T10:32:01Z</time>
      </trkpt>
      <trkpt lat="45.935151167213917" lon="8.719125911593437">
        <ele>838.88999999999999</ele>
        <time>2014-03-15T10:32:05Z</time>
      </trkpt>
      <trkpt lat="45.935185449197888" lon="8.718885602429509">
        <ele>837.92999999999995</ele>
        <time>2014-03-15T10:32:19Z</time>
      </trkpt>
      <trkpt lat="45.935192909091711" lon="8.718754341825843">
        <ele>836.96000000000004</ele>
        <time>2014-03-15T10:32:27Z</time>
      </trkpt>
      <trkpt lat="45.935240350663662" lon="8.718574298545718">
        <ele>837.92999999999995</ele>
        <time>2014-03-15T10:32:38Z</time>
      </trkpt>
      <trkpt lat="45.935206403955817" lon="8.718292834237218">
        <ele>838.40999999999997</ele>
        <time>2014-03-15T10:32:54Z</time>
      </trkpt>
      <trkpt lat="45.9352021291852" lon="8.718281937763095">
        <ele>838.40999999999997</ele>
        <time>2014-03-15T10:32:55Z</time>
      </trkpt>
      <trkpt lat="45.935078831389546" lon="8.718068283051252">
        <ele>839.37</ele>
        <time>2014-03-15T10:33:12Z</time>
      </trkpt>
      <trkpt lat="45.935033904388547" lon="8.717917995527387">
        <ele>839.85000000000002</ele>
        <time>2014-03-15T10:33:23Z</time>
      </trkpt>
      <trkpt lat="45.934963831678033" lon="8.717632927000523">
        <ele>841.76999999999998</ele>
        <time>2014-03-15T10:33:40Z</time>
      </trkpt>
      <trkpt lat="45.934910606592894" lon="8.717480627819896">
        <ele>843.21000000000004</ele>
        <time>2014-03-15T10:33:55Z</time>
      </trkpt>
      <trkpt lat="45.934935584664345" lon="8.717289604246616">
        <ele>844.65999999999997</ele>
        <time>2014-03-15T10:34:09Z</time>
      </trkpt>
      <trkpt lat="45.934996521100402" lon="8.717124816030264">
        <ele>846.58000000000004</ele>
        <time>2014-03-15T10:34:25Z</time>
      </trkpt>
      <trkpt lat="45.935137588530779" lon="8.717003697529435">
        <ele>847.53999999999996</ele>
        <time>2014-03-15T10:34:38Z</time>
      </trkpt>
      <trkpt lat="45.935141863301396" lon="8.716996740549803">
        <ele>847.53999999999996</ele>
        <time>2014-03-15T10:34:39Z</time>
      </trkpt>
      <trkpt lat="45.935238422825933" lon="8.716954831033945">
        <ele>848.5</ele>
        <time>2014-03-15T10:34:50Z</time>
      </trkpt>
      <trkpt lat="45.935289803892374" lon="8.716945108026266">
        <ele>848.98000000000002</ele>
        <time>2014-03-15T10:34:55Z</time>
      </trkpt>
      <trkpt lat="45.935405222699046" lon="8.716783756390214">
        <ele>849.94000000000005</ele>
        <time>2014-03-15T10:35:09Z</time>
      </trkpt>
      <trkpt lat="45.935425087809563" lon="8.716517966240645">
        <ele>850.41999999999996</ele>
        <time>2014-03-15T10:35:24Z</time>
      </trkpt>
      <trkpt lat="45.935427434742451" lon="8.716450994834304">
        <ele>850.89999999999998</ele>
        <time>2014-03-15T10:35:28Z</time>
      </trkpt>
      <trkpt lat="45.935454340651631" lon="8.716249912977219">
        <ele>851.38</ele>
        <time>2014-03-15T10:35:41Z</time>
      </trkpt>
      <trkpt lat="45.935478480532765" lon="8.716043718159199">
        <ele>850.41999999999996</ele>
        <time>2014-03-15T10:35:54Z</time>
      </trkpt>
      <trkpt lat="45.935509661212564" lon="8.715771054849029">
        <ele>849.94000000000005</ele>
        <time>2014-03-15T10:36:11Z</time>
      </trkpt>
      <trkpt lat="45.935551151633263" lon="8.715565111488104">
        <ele>849.94000000000005</ele>
        <time>2014-03-15T10:36:24Z</time>
      </trkpt>
      <trkpt lat="45.935556264594197" lon="8.715360006317496">
        <ele>849.94000000000005</ele>
        <time>2014-03-15T10:36:37Z</time>
      </trkpt>
      <trkpt lat="45.935562970116735" lon="8.715280462056398">
        <ele>849.94000000000005</ele>
        <time>2014-03-15T10:36:42Z</time>
      </trkpt>
      <trkpt lat="45.935583673417568" lon="8.715064292773604">
        <ele>848.98000000000002</ele>
        <time>2014-03-15T10:36:54Z</time>
      </trkpt>
      <trkpt lat="45.935604711994529" lon="8.714787354692817">
        <ele>848.98000000000002</ele>
        <time>2014-03-15T10:37:08Z</time>
      </trkpt>
      <trkpt lat="45.935603622347116" lon="8.714764723554254">
        <ele>848.98000000000002</ele>
        <time>2014-03-15T10:37:09Z</time>
      </trkpt>
      <trkpt lat="45.935615943744779" lon="8.714704290032387">
        <ele>848.98000000000002</ele>
        <time>2014-03-15T10:37:12Z</time>
      </trkpt>
      <trkpt lat="45.93564142473042" lon="8.71460722759366">
        <ele>848.98000000000002</ele>
        <time>2014-03-15T10:37:21Z</time>
      </trkpt>
      <trkpt lat="45.935751982033253" lon="8.714376892894507">
        <ele>847.53999999999996</ele>
        <time>2014-03-15T10:37:36Z</time>
      </trkpt>
      <trkpt lat="45.935837309807539" lon="8.714125603437424">
        <ele>846.10000000000002</ele>
        <time>2014-03-15T10:37:51Z</time>
      </trkpt>
      <trkpt lat="45.935845440253615" lon="8.714096015319228">
        <ele>846.58000000000004</ele>
        <time>2014-03-15T10:37:53Z</time>
      </trkpt>
      <trkpt lat="45.935896737501025" lon="8.71404480189085">
        <ele>845.62</ele>
        <time>2014-03-15T10:37:58Z</time>
      </trkpt>
      <trkpt lat="45.935993548482656" lon="8.713844725862145">
        <ele>844.17999999999995</ele>
        <time>2014-03-15T10:38:12Z</time>
      </trkpt>
      <trkpt lat="45.935968905687332" lon="8.713613720610738">
        <ele>841.76999999999998</ele>
        <time>2014-03-15T10:38:25Z</time>
      </trkpt>
      <trkpt lat="45.935917440801859" lon="8.713529231026769">
        <ele>839.85000000000002</ele>
        <time>2014-03-15T10:38:31Z</time>
      </trkpt>
      <trkpt lat="45.935771176591516" lon="8.713347092270851">
        <ele>836.96000000000004</ele>
        <time>2014-03-15T10:38:45Z</time>
      </trkpt>
      <trkpt lat="45.935748461633921" lon="8.713267212733626">
        <ele>836</ele>
        <time>2014-03-15T10:38:51Z</time>
      </trkpt>
      <trkpt lat="45.935754915699363" lon="8.71322974562645">
        <ele>835.51999999999998</ele>
        <time>2014-03-15T10:38:53Z</time>
      </trkpt>
      <trkpt lat="45.935810822993517" lon="8.713138215243816">
        <ele>835.03999999999996</ele>
        <time>2014-03-15T10:39:00Z</time>
      </trkpt>
      <trkpt lat="45.935957757756114" lon="8.712776200845838">
        <ele>834.55999999999995</ele>
        <time>2014-03-15T10:39:19Z</time>
      </trkpt>
      <trkpt lat="45.935980556532741" lon="8.712754994630814">
        <ele>834.55999999999995</ele>
        <time>2014-03-15T10:39:21Z</time>
      </trkpt>
      <trkpt lat="45.936034871265292" lon="8.712669918313623">
        <ele>834.08000000000004</ele>
        <time>2014-03-15T10:39:28Z</time>
      </trkpt>
      <trkpt lat="45.936138723045588" lon="8.712655249983072">
        <ele>833.12</ele>
        <time>2014-03-15T10:39:35Z</time>
      </trkpt>
      <trkpt lat="45.936186080798507" lon="8.712634798139334">
        <ele>832.63999999999999</ele>
        <time>2014-03-15T10:39:39Z</time>
      </trkpt>
      <trkpt lat="45.936303595080972" lon="8.712536729872227">
        <ele>833.60000000000002</ele>
        <time>2014-03-15T10:39:49Z</time>
      </trkpt>
      <trkpt lat="45.936437202617526" lon="8.712613759562373">
        <ele>832.15999999999997</ele>
        <time>2014-03-15T10:40:00Z</time>
      </trkpt>
      <trkpt lat="45.93660500831902" lon="8.712686179205775">
        <ele>829.75999999999999</ele>
        <time>2014-03-15T10:40:15Z</time>
      </trkpt>
      <trkpt lat="45.936694527044892" lon="8.712708726525307">
        <ele>828.78999999999996</ele>
        <time>2014-03-15T10:40:22Z</time>
      </trkpt>
      <trkpt lat="45.936812544241548" lon="8.712542345747352">
        <ele>826.87</ele>
        <time>2014-03-15T10:40:34Z</time>
      </trkpt>
      <trkpt lat="45.93682293780148" lon="8.712246045470238">
        <ele>824.47000000000003</ele>
        <time>2014-03-15T10:40:49Z</time>
      </trkpt>
      <trkpt lat="45.936805168166757" lon="8.712105648592114">
        <ele>822.05999999999995</ele>
        <time>2014-03-15T10:40:57Z</time>
      </trkpt>
      <trkpt lat="45.936645828187466" lon="8.71189140714705">
        <ele>819.65999999999997</ele>
        <time>2014-03-15T10:41:14Z</time>
      </trkpt>
      <trkpt lat="45.936626801267266" lon="8.711844049394131">
        <ele>819.17999999999995</ele>
        <time>2014-03-15T10:41:17Z</time>
      </trkpt>
      <trkpt lat="45.936648678034544" lon="8.71178881265223">
        <ele>819.17999999999995</ele>
        <time>2014-03-15T10:41:21Z</time>
      </trkpt>
      <trkpt lat="45.936704836785793" lon="8.711771629750729">
        <ele>818.70000000000005</ele>
        <time>2014-03-15T10:41:26Z</time>
      </trkpt>
      <trkpt lat="45.936924442648888" lon="8.71179660782218">
        <ele>816.77999999999997</ele>
        <time>2014-03-15T10:41:43Z</time>
      </trkpt>
      <trkpt lat="45.936935590580106" lon="8.711798787117004">
        <ele>816.29999999999995</ele>
        <time>2014-03-15T10:41:44Z</time>
      </trkpt>
      <trkpt lat="45.936973812058568" lon="8.711803900077939">
        <ele>816.29999999999995</ele>
        <time>2014-03-15T10:41:47Z</time>
      </trkpt>
      <trkpt lat="45.93703156337142" lon="8.71177607215941">
        <ele>816.29999999999995</ele>
        <time>2014-03-15T10:41:51Z</time>
      </trkpt>
      <trkpt lat="45.937213534489274" lon="8.711772551760078">
        <ele>816.29999999999995</ele>
        <time>2014-03-15T10:42:06Z</time>
      </trkpt>
      <trkpt lat="45.937256868928671" lon="8.711732234805822">
        <ele>815.82000000000005</ele>
        <time>2014-03-15T10:42:10Z</time>
      </trkpt>
      <trkpt lat="45.937417633831501" lon="8.711667191237211">
        <ele>816.29999999999995</ele>
        <time>2014-03-15T10:42:24Z</time>
      </trkpt>
      <trkpt lat="45.937583595514297" lon="8.71173701249063">
        <ele>816.77999999999997</ele>
        <time>2014-03-15T10:42:38Z</time>
      </trkpt>
      <trkpt lat="45.93771711923182" lon="8.711770121008158">
        <ele>818.22000000000003</ele>
        <time>2014-03-15T10:42:52Z</time>
      </trkpt>
      <trkpt lat="45.937840333208442" lon="8.71179074048996">
        <ele>819.17999999999995</ele>
        <time>2014-03-15T10:43:02Z</time>
      </trkpt>
      <trkpt lat="45.937874279916286" lon="8.711790069937706">
        <ele>819.65999999999997</ele>
        <time>2014-03-15T10:43:05Z</time>
      </trkpt>
      <trkpt lat="45.938089024275541" lon="8.711775569245219">
        <ele>819.17999999999995</ele>
        <time>2014-03-15T10:43:21Z</time>
      </trkpt>
      <trkpt lat="45.938242496922612" lon="8.711714129894972">
        <ele>817.74000000000001</ele>
        <time>2014-03-15T10:43:35Z</time>
      </trkpt>
      <trkpt lat="45.938254902139306" lon="8.711703401058912">
        <ele>817.74000000000001</ele>
        <time>2014-03-15T10:43:36Z</time>
      </trkpt>
      <trkpt lat="45.938411811366677" lon="8.711679428815842">
        <ele>818.22000000000003</ele>
        <time>2014-03-15T10:43:49Z</time>
      </trkpt>
      <trkpt lat="45.938585819676518" lon="8.711729636415839">
        <ele>818.22000000000003</ele>
        <time>2014-03-15T10:44:02Z</time>
      </trkpt>
      <trkpt lat="45.938653713092208" lon="8.711760481819511">
        <ele>817.74000000000001</ele>
        <time>2014-03-15T10:44:08Z</time>
      </trkpt>
      <trkpt lat="45.938832918182015" lon="8.711777497082949">
        <ele>818.22000000000003</ele>
        <time>2014-03-15T10:44:21Z</time>
      </trkpt>
      <trkpt lat="45.939051015302539" lon="8.711766600608826">
        <ele>818.70000000000005</ele>
        <time>2014-03-15T10:44:37Z</time>
      </trkpt>
      <trkpt lat="45.939072808250785" lon="8.71177364140749">
        <ele>818.22000000000003</ele>
        <time>2014-03-15T10:44:39Z</time>
      </trkpt>
      <trkpt lat="45.939291156828403" lon="8.711832230910659">
        <ele>818.22000000000003</ele>
        <time>2014-03-15T10:44:55Z</time>
      </trkpt>
      <trkpt lat="45.939502883702517" lon="8.711801888421178">
        <ele>818.22000000000003</ele>
        <time>2014-03-15T10:45:11Z</time>
      </trkpt>
      <trkpt lat="45.939711760729551" lon="8.711744723841548">
        <ele>818.70000000000005</ele>
        <time>2014-03-15T10:45:27Z</time>
      </trkpt>
      <trkpt lat="45.93984704464674" lon="8.71178244240582">
        <ele>818.70000000000005</ele>
        <time>2014-03-15T10:45:39Z</time>
      </trkpt>
      <trkpt lat="45.940008563920856" lon="8.711861316114664">
        <ele>819.17999999999995</ele>
        <time>2014-03-15T10:45:52Z</time>
      </trkpt>
      <trkpt lat="45.94012456946075" lon="8.712031720206142">
        <ele>819.65999999999997</ele>
        <time>2014-03-15T10:46:03Z</time>
      </trkpt>
      <trkpt lat="45.940248118713498" lon="8.712275382131338">
        <ele>819.65999999999997</ele>
        <time>2014-03-15T10:46:18Z</time>
      </trkpt>
      <trkpt lat="45.94027510844171" lon="8.712334474548698">
        <ele>819.17999999999995</ele>
        <time>2014-03-15T10:46:21Z</time>
      </trkpt>
      <trkpt lat="45.940296398475766" lon="8.712410414591432">
        <ele>819.17999999999995</ele>
        <time>2014-03-15T10:46:25Z</time>
      </trkpt>
      <trkpt lat="45.940440315753222" lon="8.712582159787417">
        <ele>818.22000000000003</ele>
        <time>2014-03-15T10:46:39Z</time>
      </trkpt>
      <trkpt lat="45.940544921904802" lon="8.712717862799764">
        <ele>817.25999999999999</ele>
        <time>2014-03-15T10:46:50Z</time>
      </trkpt>
      <trkpt lat="45.940601332113147" lon="8.712761113420129">
        <ele>816.77999999999997</ele>
        <time>2014-03-15T10:46:54Z</time>
      </trkpt>
      <trkpt lat="45.940649947151542" lon="8.712804280221462">
        <ele>816.29999999999995</ele>
        <time>2014-03-15T10:46:58Z</time>
      </trkpt>
      <trkpt lat="45.940703339874744" lon="8.712869323790073">
        <ele>816.29999999999995</ele>
        <time>2014-03-15T10:47:03Z</time>
      </trkpt>
      <trkpt lat="45.940754218026996" lon="8.712971918284893">
        <ele>815.82000000000005</ele>
        <time>2014-03-15T10:47:09Z</time>
      </trkpt>
      <trkpt lat="45.940775675699115" lon="8.713001003488898">
        <ele>815.34000000000003</ele>
        <time>2014-03-15T10:47:11Z</time>
      </trkpt>
      <trkpt lat="45.940919341519475" lon="8.713124049827457">
        <ele>814.85000000000002</ele>
        <time>2014-03-15T10:47:24Z</time>
      </trkpt>
      <trkpt lat="45.941076586022973" lon="8.7132185138762">
        <ele>812.92999999999995</ele>
        <time>2014-03-15T10:47:37Z</time>
      </trkpt>
      <trkpt lat="45.941333742812276" lon="8.713171910494566">
        <ele>811.97000000000003</ele>
        <time>2014-03-15T10:47:54Z</time>
      </trkpt>
      <trkpt lat="45.941513786092401" lon="8.713112315163016">
        <ele>812.92999999999995</ele>
        <time>2014-03-15T10:48:09Z</time>
      </trkpt>
      <trkpt lat="45.941620320081711" lon="8.713028999045491">
        <ele>814.37</ele>
        <time>2014-03-15T10:48:21Z</time>
      </trkpt>
      <trkpt lat="45.941766835749149" lon="8.712924141436815">
        <ele>815.82000000000005</ele>
        <time>2014-03-15T10:48:35Z</time>
      </trkpt>
      <trkpt lat="45.941916787996888" lon="8.712806040421128">
        <ele>817.25999999999999</ele>
        <time>2014-03-15T10:48:50Z</time>
      </trkpt>
      <trkpt lat="45.942073529586196" lon="8.712700176984072">
        <ele>818.70000000000005</ele>
        <time>2014-03-15T10:49:05Z</time>
      </trkpt>
      <trkpt lat="45.942189702764153" lon="8.712589871138334">
        <ele>819.17999999999995</ele>
        <time>2014-03-15T10:49:18Z</time>
      </trkpt>
      <trkpt lat="45.942369913682342" lon="8.712499011307955">
        <ele>820.62</ele>
        <time>2014-03-15T10:49:33Z</time>
      </trkpt>
      <trkpt lat="45.94255406409502" lon="8.712413012981415">
        <ele>821.58000000000004</ele>
        <time>2014-03-15T10:49:49Z</time>
      </trkpt>
      <trkpt lat="45.942633859813213" lon="8.712327182292938">
        <ele>823.02999999999997</ele>
        <time>2014-03-15T10:50:02Z</time>
      </trkpt>
      <trkpt lat="45.942696137353778" lon="8.712220480665565">
        <ele>823.50999999999999</ele>
        <time>2014-03-15T10:50:13Z</time>
      </trkpt>
      <trkpt lat="45.942798983305693" lon="8.712109923362732">
        <ele>824.95000000000005</ele>
        <time>2014-03-15T10:50:25Z</time>
      </trkpt>
      <trkpt lat="45.94297282397747" lon="8.71196617372334">
        <ele>825.42999999999995</ele>
        <time>2014-03-15T10:50:42Z</time>
      </trkpt>
      <trkpt lat="45.943138282746077" lon="8.711890652775765">
        <ele>825.42999999999995</ele>
        <time>2014-03-15T10:50:56Z</time>
      </trkpt>
      <trkpt lat="45.943339532241225" lon="8.711888808757067">
        <ele>825.90999999999997</ele>
        <time>2014-03-15T10:51:12Z</time>
      </trkpt>
      <trkpt lat="45.943397954106331" lon="8.711841618642211">
        <ele>825.90999999999997</ele>
        <time>2014-03-15T10:51:27Z</time>
      </trkpt>
      <trkpt lat="45.943404994904995" lon="8.711847318336368">
        <ele>825.90999999999997</ele>
        <time>2014-03-15T10:51:32Z</time>
      </trkpt>
      <trkpt lat="45.943415053188801" lon="8.711829129606485">
        <ele>825.42999999999995</ele>
        <time>2014-03-15T10:51:34Z</time>
      </trkpt>
      <trkpt lat="45.943368198350072" lon="8.711706502363086">
        <ele>827.35000000000002</ele>
        <time>2014-03-15T10:51:47Z</time>
      </trkpt>
      <trkpt lat="45.943360151723027" lon="8.711682613939047">
        <ele>828.30999999999995</ele>
        <time>2014-03-15T10:51:49Z</time>
      </trkpt>
      <trkpt lat="45.943361828103662" lon="8.711632657796145">
        <ele>828.30999999999995</ele>
        <time>2014-03-15T10:51:53Z</time>
      </trkpt>
      <trkpt lat="45.943368701264262" lon="8.711598543450236">
        <ele>829.26999999999998</ele>
        <time>2014-03-15T10:51:55Z</time>
      </trkpt>
      <trkpt lat="45.943371970206499" lon="8.711567195132375">
        <ele>828.78999999999996</ele>
        <time>2014-03-15T10:51:57Z</time>
      </trkpt>
      <trkpt lat="45.943396696820855" lon="8.711521765217185">
        <ele>829.26999999999998</ele>
        <time>2014-03-15T10:52:11Z</time>
      </trkpt>
      <trkpt lat="45.94343164935708" lon="8.711518915370107">
        <ele>829.26999999999998</ele>
        <time>2014-03-15T10:52:40Z</time>
      </trkpt>
      <trkpt lat="45.943436594679952" lon="8.711528386920691">
        <ele>829.75999999999999</ele>
        <time>2014-03-15T10:52:58Z</time>
      </trkpt>
      <trkpt lat="45.943451765924692" lon="8.711526291444898">
        <ele>830.24000000000001</ele>
        <time>2014-03-15T10:53:21Z</time>
      </trkpt>
      <trkpt lat="45.943447072058916" lon="8.711538780480623">
        <ele>829.75999999999999</ele>
        <time>2014-03-15T10:53:43Z</time>
      </trkpt>
      <trkpt lat="45.943434666842222" lon="8.711536349728704">
        <ele>830.24000000000001</ele>
        <time>2014-03-15T10:54:01Z</time>
      </trkpt>
      <trkpt lat="45.943455370143056" lon="8.71153618209064">
        <ele>830.72000000000003</ele>
        <time>2014-03-15T10:54:15Z</time>
      </trkpt>
      <trkpt lat="45.943487891927361" lon="8.711537607014179">
        <ele>830.24000000000001</ele>
        <time>2014-03-15T10:54:25Z</time>
      </trkpt>
      <trkpt lat="45.943469703197479" lon="8.711489327251911">
        <ele>830.72000000000003</ele>
        <time>2014-03-15T10:54:49Z</time>
      </trkpt>
      <trkpt lat="45.943477246910334" lon="8.711476251482964">
        <ele>830.24000000000001</ele>
        <time>2014-03-15T10:55:03Z</time>
      </trkpt>
      <trkpt lat="45.943483700975776" lon="8.711445908993483">
        <ele>830.72000000000003</ele>
        <time>2014-03-15T10:55:21Z</time>
      </trkpt>
      <trkpt lat="45.943469284102321" lon="8.711464097723365">
        <ele>830.72000000000003</ele>
        <time>2014-03-15T10:55:44Z</time>
      </trkpt>
      <trkpt lat="45.943456124514341" lon="8.711461080238223">
        <ele>830.72000000000003</ele>
        <time>2014-03-15T10:56:14Z</time>
      </trkpt>
      <trkpt lat="45.943441037088633" lon="8.711449848487973">
        <ele>830.24000000000001</ele>
        <time>2014-03-15T10:56:44Z</time>
      </trkpt>
      <trkpt lat="45.943446736782789" lon="8.711442304775119">
        <ele>830.72000000000003</ele>
        <time>2014-03-15T10:57:11Z</time>
      </trkpt>
      <trkpt lat="45.943461321294308" lon="8.711434677243233">
        <ele>830.72000000000003</ele>
        <time>2014-03-15T10:57:45Z</time>
      </trkpt>
      <trkpt lat="45.943456795066595" lon="8.711442975327373">
        <ele>830.72000000000003</ele>
        <time>2014-03-15T10:58:15Z</time>
      </trkpt>
      <trkpt lat="45.943455705419183" lon="8.711477844044566">
        <ele>831.20000000000005</ele>
        <time>2014-03-15T10:58:47Z</time>
      </trkpt>
      <trkpt lat="45.943460986018181" lon="8.711491171270609">
        <ele>831.67999999999995</ele>
        <time>2014-03-15T10:59:12Z</time>
      </trkpt>
      <trkpt lat="45.943457968533039" lon="8.711482118815184">
        <ele>831.67999999999995</ele>
        <time>2014-03-15T10:59:48Z</time>
      </trkpt>
      <trkpt lat="45.943454029038548" lon="8.711468540132046">
        <ele>831.67999999999995</ele>
        <time>2014-03-15T11:00:14Z</time>
      </trkpt>
      <trkpt lat="45.943460986018181" lon="8.711467366665602">
        <ele>831.67999999999995</ele>
        <time>2014-03-15T11:00:42Z</time>
      </trkpt>
      <trkpt lat="45.94345411285758" lon="8.711480861529708">
        <ele>831.67999999999995</ele>
        <time>2014-03-15T11:01:09Z</time>
      </trkpt>
      <trkpt lat="45.943461069837213" lon="8.71146091260016">
        <ele>831.67999999999995</ele>
        <time>2014-03-15T11:01:30Z</time>
      </trkpt>
      <trkpt lat="45.943463752046227" lon="8.711446663364768">
        <ele>832.15999999999997</ele>
        <time>2014-03-15T11:01:58Z</time>
      </trkpt>
      <trkpt lat="45.943476911634207" lon="8.711482454091311">
        <ele>832.15999999999997</ele>
        <time>2014-03-15T11:02:20Z</time>
      </trkpt>
      <trkpt lat="45.943481773138046" lon="8.711522268131375">
        <ele>832.15999999999997</ele>
        <time>2014-03-15T11:02:51Z</time>
      </trkpt>
      <trkpt lat="45.943481437861919" lon="8.711517825722694">
        <ele>832.15999999999997</ele>
        <time>2014-03-15T11:03:12Z</time>
      </trkpt>
      <trkpt lat="45.943480432033539" lon="8.711500559002161">
        <ele>832.15999999999997</ele>
        <time>2014-03-15T11:03:39Z</time>
      </trkpt>
      <trkpt lat="45.943473894149065" lon="8.711513383314014">
        <ele>832.15999999999997</ele>
        <time>2014-03-15T11:04:03Z</time>
      </trkpt>
      <trkpt lat="45.943473307415843" lon="8.711507432162762">
        <ele>831.67999999999995</ele>
        <time>2014-03-15T11:04:33Z</time>
      </trkpt>
      <trkpt lat="45.943487221375108" lon="8.711481196805835">
        <ele>832.15999999999997</ele>
        <time>2014-03-15T11:04:56Z</time>
      </trkpt>
      <trkpt lat="45.943482862785459" lon="8.711485052481294">
        <ele>832.15999999999997</ele>
        <time>2014-03-15T11:05:24Z</time>
      </trkpt>
      <trkpt lat="45.943481521680951" lon="8.711511204019189">
        <ele>832.63999999999999</ele>
        <time>2014-03-15T11:05:47Z</time>
      </trkpt>
      <trkpt lat="45.943481354042888" lon="8.711523190140724">
        <ele>832.15999999999997</ele>
        <time>2014-03-15T11:06:17Z</time>
      </trkpt>
      <trkpt lat="45.943506667390466" lon="8.711513886228204">
        <ele>832.63999999999999</ele>
        <time>2014-03-15T11:06:45Z</time>
      </trkpt>
      <trkpt lat="45.943493423983455" lon="8.711505085229874">
        <ele>832.15999999999997</ele>
        <time>2014-03-15T11:07:10Z</time>
      </trkpt>
      <trkpt lat="45.943507589399815" lon="8.71152981184423">
        <ele>832.63999999999999</ele>
        <time>2014-03-15T11:07:35Z</time>
      </trkpt>
      <trkpt lat="45.943500967696309" lon="8.711580606177449">
        <ele>833.12</ele>
        <time>2014-03-15T11:08:03Z</time>
      </trkpt>
      <trkpt lat="45.943512115627527" lon="8.711542887613177">
        <ele>832.63999999999999</ele>
        <time>2014-03-15T11:08:20Z</time>
      </trkpt>
      <trkpt lat="45.943488646298647" lon="8.711559567600489">
        <ele>832.63999999999999</ele>
        <time>2014-03-15T11:08:50Z</time>
      </trkpt>
      <trkpt lat="45.943493843078613" lon="8.711565770208836">
        <ele>832.63999999999999</ele>
        <time>2014-03-15T11:09:08Z</time>
      </trkpt>
      <trkpt lat="45.943505074828863" lon="8.711556550115347">
        <ele>832.63999999999999</ele>
        <time>2014-03-15T11:09:28Z</time>
      </trkpt>
      <trkpt lat="45.943467523902655" lon="8.711531572043896">
        <ele>833.12</ele>
        <time>2014-03-15T11:10:00Z</time>
      </trkpt>
      <trkpt lat="45.943493759259582" lon="8.711514137685299">
        <ele>832.63999999999999</ele>
        <time>2014-03-15T11:10:21Z</time>
      </trkpt>
      <trkpt lat="45.943487389013171" lon="8.711507096886635">
        <ele>832.63999999999999</ele>
        <time>2014-03-15T11:10:45Z</time>
      </trkpt>
      <trkpt lat="45.943480851128697" lon="8.711510365828872">
        <ele>833.12</ele>
        <time>2014-03-15T11:11:01Z</time>
      </trkpt>
      <trkpt lat="45.943474983796477" lon="8.711531907320023">
        <ele>832.63999999999999</ele>
        <time>2014-03-15T11:11:25Z</time>
      </trkpt>
      <trkpt lat="45.943484622985125" lon="8.711549090221524">
        <ele>833.12</ele>
        <time>2014-03-15T11:11:40Z</time>
      </trkpt>
      <trkpt lat="45.943489400669932" lon="8.711564093828201">
        <ele>833.60000000000002</ele>
        <time>2014-03-15T11:11:58Z</time>
      </trkpt>
      <trkpt lat="45.943471882492304" lon="8.711563087999821">
        <ele>833.12</ele>
        <time>2014-03-15T11:12:24Z</time>
      </trkpt>
      <trkpt lat="45.943449167534709" lon="8.71156501583755">
        <ele>833.12</ele>
        <time>2014-03-15T11:12:51Z</time>
      </trkpt>
      <trkpt lat="45.9434531070292" lon="8.711557723581791">
        <ele>833.12</ele>
        <time>2014-03-15T11:13:13Z</time>
      </trkpt>
      <trkpt lat="45.943442964926362" lon="8.711566608399153">
        <ele>833.12</ele>
        <time>2014-03-15T11:13:40Z</time>
      </trkpt>
      <trkpt lat="45.943414969369769" lon="8.711576582863927">
        <ele>833.12</ele>
        <time>2014-03-15T11:14:02Z</time>
      </trkpt>
      <trkpt lat="45.943422513082623" lon="8.711563590914011">
        <ele>833.12</ele>
        <time>2014-03-15T11:14:17Z</time>
      </trkpt>
      <trkpt lat="45.943435840308666" lon="8.711570799350739">
        <ele>833.12</ele>
        <time>2014-03-15T11:14:40Z</time>
      </trkpt>
      <trkpt lat="45.943439695984125" lon="8.711566692218185">
        <ele>833.12</ele>
        <time>2014-03-15T11:15:02Z</time>
      </trkpt>
      <trkpt lat="45.943443635478616" lon="8.711525285616517">
        <ele>833.12</ele>
        <time>2014-03-15T11:15:17Z</time>
      </trkpt>
      <trkpt lat="45.943485125899315" lon="8.711531739681959">
        <ele>833.60000000000002</ele>
        <time>2014-03-15T11:15:38Z</time>
      </trkpt>
      <trkpt lat="45.94349660910666" lon="8.711556550115347">
        <ele>833.12</ele>
        <time>2014-03-15T11:16:04Z</time>
      </trkpt>
      <trkpt lat="45.943458722904325" lon="8.711566189303994">
        <ele>833.60000000000002</ele>
        <time>2014-03-15T11:16:25Z</time>
      </trkpt>
      <trkpt lat="45.943446736782789" lon="8.711557807400823">
        <ele>833.60000000000002</ele>
        <time>2014-03-15T11:16:41Z</time>
      </trkpt>
      <trkpt lat="45.943426955491304" lon="8.711563255637884">
        <ele>833.60000000000002</ele>
        <time>2014-03-15T11:17:08Z</time>
      </trkpt>
      <trkpt lat="45.943435588851571" lon="8.711561411619186">
        <ele>834.08000000000004</ele>
        <time>2014-03-15T11:17:27Z</time>
      </trkpt>
      <trkpt lat="45.943428045138717" lon="8.711548084393144">
        <ele>834.08000000000004</ele>
        <time>2014-03-15T11:17:49Z</time>
      </trkpt>
      <trkpt lat="45.943446988239884" lon="8.711550096049905">
        <ele>833.60000000000002</ele>
        <time>2014-03-15T11:18:20Z</time>
      </trkpt>
      <trkpt lat="45.94343944452703" lon="8.711548754945397">
        <ele>834.08000000000004</ele>
        <time>2014-03-15T11:18:52Z</time>
      </trkpt>
      <trkpt lat="45.943428548052907" lon="8.711545066908002">
        <ele>834.08000000000004</ele>
        <time>2014-03-15T11:19:22Z</time>
      </trkpt>
      <trkpt lat="45.943441120907664" lon="8.711555376648903">
        <ele>834.08000000000004</ele>
        <time>2014-03-15T11:19:47Z</time>
      </trkpt>
      <trkpt lat="45.943449167534709" lon="8.71154154650867">
        <ele>833.60000000000002</ele>
        <time>2014-03-15T11:20:00Z</time>
      </trkpt>
      <trkpt lat="45.943473810330033" lon="8.711532577872276">
        <ele>833.60000000000002</ele>
        <time>2014-03-15T11:20:13Z</time>
      </trkpt>
      <trkpt lat="45.943442545831203" lon="8.711547246202827">
        <ele>834.55999999999995</ele>
        <time>2014-03-15T11:20:23Z</time>
      </trkpt>
      <trkpt lat="45.943437265232205" lon="8.711566356942058">
        <ele>834.55999999999995</ele>
        <time>2014-03-15T11:20:41Z</time>
      </trkpt>
      <trkpt lat="45.943431230261922" lon="8.711548419669271">
        <ele>834.55999999999995</ele>
        <time>2014-03-15T11:21:01Z</time>
      </trkpt>
      <trkpt lat="45.943424692377448" lon="8.711554538458586">
        <ele>834.55999999999995</ele>
        <time>2014-03-15T11:21:21Z</time>
      </trkpt>
      <trkpt lat="45.943428464233875" lon="8.711533416062594">
        <ele>834.55999999999995</ele>
        <time>2014-03-15T11:21:45Z</time>
      </trkpt>
      <trkpt lat="45.943413125351071" lon="8.711526626721025">
        <ele>835.03999999999996</ele>
        <time>2014-03-15T11:22:06Z</time>
      </trkpt>
      <trkpt lat="45.943420920521021" lon="8.711485806852579">
        <ele>834.55999999999995</ele>
        <time>2014-03-15T11:22:23Z</time>
      </trkpt>
      <trkpt lat="45.943389739841223" lon="8.711637100204825">
        <ele>834.08000000000004</ele>
        <time>2014-03-15T11:22:37Z</time>
      </trkpt>
      <trkpt lat="45.943317571654916" lon="8.711635591462255">
        <ele>834.08000000000004</ele>
        <time>2014-03-15T11:22:48Z</time>
      </trkpt>
      <trkpt lat="45.9432752430439" lon="8.711568033322692">
        <ele>835.51999999999998</ele>
        <time>2014-03-15T11:23:03Z</time>
      </trkpt>
      <trkpt lat="45.943274488672614" lon="8.711569122970104">
        <ele>835.51999999999998</ele>
        <time>2014-03-15T11:23:13Z</time>
      </trkpt>
      <trkpt lat="45.943245235830545" lon="8.711563255637884">
        <ele>835.51999999999998</ele>
        <time>2014-03-15T11:23:17Z</time>
      </trkpt>
      <trkpt lat="45.943210031837225" lon="8.711566859856248">
        <ele>836.48000000000002</ele>
        <time>2014-03-15T11:23:20Z</time>
      </trkpt>
      <trkpt lat="45.943186394870281" lon="8.711574822664261">
        <ele>836.96000000000004</ele>
        <time>2014-03-15T11:23:22Z</time>
      </trkpt>
      <trkpt lat="45.943107102066278" lon="8.711507013067603">
        <ele>838.88999999999999</ele>
        <time>2014-03-15T11:23:34Z</time>
      </trkpt>
      <trkpt lat="45.94300702214241" lon="8.711485303938389">
        <ele>840.33000000000004</ele>
        <time>2014-03-15T11:23:49Z</time>
      </trkpt>
      <trkpt lat="45.94290291890502" lon="8.71143794618547">
        <ele>842.25</ele>
        <time>2014-03-15T11:24:04Z</time>
      </trkpt>
      <trkpt lat="45.942891938611865" lon="8.711356809362769">
        <ele>843.69000000000005</ele>
        <time>2014-03-15T11:24:15Z</time>
      </trkpt>
      <trkpt lat="45.94288682565093" lon="8.711321521550417">
        <ele>843.69000000000005</ele>
        <time>2014-03-15T11:24:33Z</time>
      </trkpt>
      <trkpt lat="45.942849023267627" lon="8.711171401664615">
        <ele>845.62</ele>
        <time>2014-03-15T11:24:46Z</time>
      </trkpt>
      <trkpt lat="45.942732766270638" lon="8.711085738614202">
        <ele>848.01999999999998</ele>
        <time>2014-03-15T11:25:03Z</time>
      </trkpt>
      <trkpt lat="45.942626483738422" lon="8.710994711145759">
        <ele>851.38</ele>
        <time>2014-03-15T11:25:19Z</time>
      </trkpt>
      <trkpt lat="45.942519782111049" lon="8.710902007296681">
        <ele>852.83000000000004</ele>
        <time>2014-03-15T11:25:33Z</time>
      </trkpt>
      <trkpt lat="45.942411152645946" lon="8.710846602916718">
        <ele>854.75</ele>
        <time>2014-03-15T11:25:48Z</time>
      </trkpt>
      <trkpt lat="45.942317023873329" lon="8.710766555741429">
        <ele>856.19000000000005</ele>
        <time>2014-03-15T11:25:59Z</time>
      </trkpt>
      <trkpt lat="45.942226918414235" lon="8.710734117776156">
        <ele>857.14999999999998</ele>
        <time>2014-03-15T11:26:08Z</time>
      </trkpt>
      <trkpt lat="45.942058861255646" lon="8.710681479424238">
        <ele>858.59000000000003</ele>
        <time>2014-03-15T11:26:24Z</time>
      </trkpt>
      <trkpt lat="45.94192860648036" lon="8.710612831637263">
        <ele>859.08000000000004</ele>
        <time>2014-03-15T11:26:38Z</time>
      </trkpt>
      <trkpt lat="45.94181620515883" lon="8.710531610995531">
        <ele>860.03999999999996</ele>
        <time>2014-03-15T11:26:50Z</time>
      </trkpt>
      <trkpt lat="45.941644962877035" lon="8.710454246029258">
        <ele>861.48000000000002</ele>
        <time>2014-03-15T11:27:05Z</time>
      </trkpt>
      <trkpt lat="45.941511103883386" lon="8.710385346785188">
        <ele>861.48000000000002</ele>
        <time>2014-03-15T11:27:17Z</time>
      </trkpt>
      <trkpt lat="45.941436840221286" lon="8.710317118093371">
        <ele>862.91999999999996</ele>
        <time>2014-03-15T11:27:30Z</time>
      </trkpt>
      <trkpt lat="45.941443713381886" lon="8.710233215242624">
        <ele>863.88</ele>
        <time>2014-03-15T11:27:43Z</time>
      </trkpt>
      <trkpt lat="45.94149224460125" lon="8.710229443386197">
        <ele>863.88</ele>
        <time>2014-03-15T11:27:58Z</time>
      </trkpt>
      <trkpt lat="45.941468691453338" lon="8.710187617689371">
        <ele>863.88</ele>
        <time>2014-03-15T11:28:21Z</time>
      </trkpt>
      <trkpt lat="45.941462572664022" lon="8.710248218849301">
        <ele>863.88</ele>
        <time>2014-03-15T11:28:38Z</time>
      </trkpt>
      <trkpt lat="45.94143751077354" lon="8.7102310359478">
        <ele>863.88</ele>
        <time>2014-03-15T11:29:03Z</time>
      </trkpt>
      <trkpt lat="45.941433738917112" lon="8.710257103666663">
        <ele>863.88</ele>
        <time>2014-03-15T11:29:22Z</time>
      </trkpt>
      <trkpt lat="45.941442707553506" lon="8.710278058424592">
        <ele>864.36000000000001</ele>
        <time>2014-03-15T11:29:32Z</time>
      </trkpt>
      <trkpt lat="45.941381603479385" lon="8.710256349295378">
        <ele>864.84000000000003</ele>
        <time>2014-03-15T11:29:45Z</time>
      </trkpt>
      <trkpt lat="45.941345393657684" lon="8.710253415629268">
        <ele>867.25</ele>
        <time>2014-03-15T11:29:54Z</time>
      </trkpt>
      <trkpt lat="45.941265262663364" lon="8.710267497226596">
        <ele>870.13</ele>
        <time>2014-03-15T11:30:07Z</time>
      </trkpt>
      <trkpt lat="45.941185718402267" lon="8.710296666249633">
        <ele>872.52999999999997</ele>
        <time>2014-03-15T11:30:22Z</time>
      </trkpt>
      <trkpt lat="45.941078849136829" lon="8.710298510268331">
        <ele>872.52999999999997</ele>
        <time>2014-03-15T11:30:37Z</time>
      </trkpt>
      <trkpt lat="45.940976170822978" lon="8.710338575765491">
        <ele>873.98000000000002</ele>
        <time>2014-03-15T11:30:52Z</time>
      </trkpt>
      <trkpt lat="45.940817920491099" lon="8.710339413955808">
        <ele>874.46000000000004</ele>
        <time>2014-03-15T11:31:04Z</time>
      </trkpt>
      <trkpt lat="45.940681546926498" lon="8.710273448377848">
        <ele>874.46000000000004</ele>
        <time>2014-03-15T11:31:17Z</time>
      </trkpt>
      <trkpt lat="45.940640894696116" lon="8.710215697064996">
        <ele>874.46000000000004</ele>
        <time>2014-03-15T11:31:20Z</time>
      </trkpt>
      <trkpt lat="45.940558165311813" lon="8.710179319605231">
        <ele>873.5</ele>
        <time>2014-03-15T11:31:26Z</time>
      </trkpt>
      <trkpt lat="45.940447524189949" lon="8.710083933547139">
        <ele>873.5</ele>
        <time>2014-03-15T11:31:36Z</time>
      </trkpt>
      <trkpt lat="45.940434113144875" lon="8.710071863606572">
        <ele>873.5</ele>
        <time>2014-03-15T11:31:37Z</time>
      </trkpt>
      <trkpt lat="45.940356161445379" lon="8.709990810602903">
        <ele>873.98000000000002</ele>
        <time>2014-03-15T11:31:45Z</time>
      </trkpt>
      <trkpt lat="45.940263625234365" lon="8.709896765649319">
        <ele>873.98000000000002</ele>
        <time>2014-03-15T11:31:54Z</time>
      </trkpt>
      <trkpt lat="45.940178046002984" lon="8.709817137569189">
        <ele>873.98000000000002</ele>
        <time>2014-03-15T11:32:05Z</time>
      </trkpt>
      <trkpt lat="45.940100513398647" lon="8.709800206124783">
        <ele>873.98000000000002</ele>
        <time>2014-03-15T11:32:13Z</time>
      </trkpt>
      <trkpt lat="45.939936982467771" lon="8.709761062636972">
        <ele>874.46000000000004</ele>
        <time>2014-03-15T11:32:28Z</time>
      </trkpt>
      <trkpt lat="45.939761130139232" lon="8.709700796753168">
        <ele>875.89999999999998</ele>
        <time>2014-03-15T11:32:42Z</time>
      </trkpt>
      <trkpt lat="45.939749227836728" lon="8.709701802581549">
        <ele>875.41999999999996</ele>
        <time>2014-03-15T11:32:43Z</time>
      </trkpt>
      <trkpt lat="45.939633641391993" lon="8.709639860317111">
        <ele>876.38</ele>
        <time>2014-03-15T11:32:55Z</time>
      </trkpt>
      <trkpt lat="45.939512774348259" lon="8.709625611081719">
        <ele>877.34000000000003</ele>
        <time>2014-03-15T11:33:07Z</time>
      </trkpt>
      <trkpt lat="45.939338179305196" lon="8.709610188379884">
        <ele>879.25999999999999</ele>
        <time>2014-03-15T11:33:25Z</time>
      </trkpt>
      <trkpt lat="45.939251845702529" lon="8.709583533927798">
        <ele>879.25999999999999</ele>
        <time>2014-03-15T11:33:34Z</time>
      </trkpt>
      <trkpt lat="45.939163500443101" lon="8.709502732381225">
        <ele>880.22000000000003</ele>
        <time>2014-03-15T11:33:42Z</time>
      </trkpt>
      <trkpt lat="45.938990917056799" lon="8.709426205605269">
        <ele>881.66999999999996</ele>
        <time>2014-03-15T11:33:58Z</time>
      </trkpt>
      <trkpt lat="45.938850184902549" lon="8.709329394623637">
        <ele>884.07000000000005</ele>
        <time>2014-03-15T11:34:14Z</time>
      </trkpt>
      <trkpt lat="45.938797881826758" lon="8.709222944453359">
        <ele>886.47000000000003</ele>
        <time>2014-03-15T11:34:27Z</time>
      </trkpt>
      <trkpt lat="45.938798384740949" lon="8.709195870906115">
        <ele>886.47000000000003</ele>
        <time>2014-03-15T11:34:29Z</time>
      </trkpt>
      <trkpt lat="45.93877256847918" lon="8.709115823730826">
        <ele>885.50999999999999</ele>
        <time>2014-03-15T11:34:34Z</time>
      </trkpt>
      <trkpt lat="45.938630998134613" lon="8.709004847332835">
        <ele>885.02999999999997</ele>
        <time>2014-03-15T11:34:48Z</time>
      </trkpt>
      <trkpt lat="45.938560925424099" lon="8.708988418802619">
        <ele>885.50999999999999</ele>
        <time>2014-03-15T11:34:54Z</time>
      </trkpt>
      <trkpt lat="45.93839630484581" lon="8.708922872319818">
        <ele>885.50999999999999</ele>
        <time>2014-03-15T11:35:07Z</time>
      </trkpt>
      <trkpt lat="45.938240317627788" lon="8.708859337493777">
        <ele>886.95000000000005</ele>
        <time>2014-03-15T11:35:21Z</time>
      </trkpt>
      <trkpt lat="45.938140237703919" lon="8.708821283653379">
        <ele>886.95000000000005</ele>
        <time>2014-03-15T11:35:31Z</time>
      </trkpt>
      <trkpt lat="45.937965307384729" lon="8.708758670836687">
        <ele>886.95000000000005</ele>
        <time>2014-03-15T11:35:47Z</time>
      </trkpt>
      <trkpt lat="45.937851229682565" lon="8.708786834031344">
        <ele>887.90999999999997</ele>
        <time>2014-03-15T11:36:02Z</time>
      </trkpt>
      <trkpt lat="45.937797585502267" lon="8.708835784345865">
        <ele>887.90999999999997</ele>
        <time>2014-03-15T11:36:16Z</time>
      </trkpt>
      <trkpt lat="45.937732458114624" lon="8.708864785730839">
        <ele>887.42999999999995</ele>
        <time>2014-03-15T11:36:22Z</time>
      </trkpt>
      <trkpt lat="45.937539506703615" lon="8.708893116563559">
        <ele>888.88</ele>
        <time>2014-03-15T11:36:36Z</time>
      </trkpt>
      <trkpt lat="45.937416208907962" lon="8.708893954753876">
        <ele>890.32000000000005</ele>
        <time>2014-03-15T11:36:50Z</time>
      </trkpt>
      <trkpt lat="45.937349405139685" lon="8.709011888131499">
        <ele>892.24000000000001</ele>
        <time>2014-03-15T11:37:05Z</time>
      </trkpt>
      <trkpt lat="45.937304142862558" lon="8.709036279469729">
        <ele>892.24000000000001</ele>
        <time>2014-03-15T11:37:26Z</time>
      </trkpt>
      <trkpt lat="45.937298107892275" lon="8.709031753242016">
        <ele>892.24000000000001</ele>
        <time>2014-03-15T11:37:48Z</time>
      </trkpt>
      <trkpt lat="45.937250750139356" lon="8.709062682464719">
        <ele>892.72000000000003</ele>
        <time>2014-03-15T11:38:18Z</time>
      </trkpt>
      <trkpt lat="45.937266005203128" lon="8.70907349511981">
        <ele>892.24000000000001</ele>
        <time>2014-03-15T11:38:34Z</time>
      </trkpt>
      <trkpt lat="45.937256282195449" lon="8.709105513989925">
        <ele>892.72000000000003</ele>
        <time>2014-03-15T11:38:59Z</time>
      </trkpt>
      <trkpt lat="45.937224682420492" lon="8.709229230880737">
        <ele>895.12</ele>
        <time>2014-03-15T11:39:12Z</time>
      </trkpt>
      <trkpt lat="45.937150502577424" lon="8.70933685451746">
        <ele>896.09000000000003</ele>
        <time>2014-03-15T11:39:24Z</time>
      </trkpt>
      <trkpt lat="45.937010692432523" lon="8.709504576399922">
        <ele>896.57000000000005</ele>
        <time>2014-03-15T11:39:40Z</time>
      </trkpt>
      <trkpt lat="45.936994850635529" lon="8.70952008292079">
        <ele>896.57000000000005</ele>
        <time>2014-03-15T11:39:42Z</time>
      </trkpt>
      <trkpt lat="45.936923017725348" lon="8.70958948507905">
        <ele>897.04999999999995</ele>
        <time>2014-03-15T11:39:50Z</time>
      </trkpt>
      <trkpt lat="45.936847329139709" lon="8.709626281633973">
        <ele>897.52999999999997</ele>
        <time>2014-03-15T11:40:03Z</time>
      </trkpt>
      <trkpt lat="45.936775580048561" lon="8.709718314930797">
        <ele>897.52999999999997</ele>
        <time>2014-03-15T11:40:17Z</time>
      </trkpt>
      <trkpt lat="45.936648091301322" lon="8.709913697093725">
        <ele>898.49000000000001</ele>
        <time>2014-03-15T11:40:32Z</time>
      </trkpt>
      <trkpt lat="45.936513058841228" lon="8.710039174184203">
        <ele>899.92999999999995</ele>
        <time>2014-03-15T11:40:47Z</time>
      </trkpt>
      <trkpt lat="45.936406692489982" lon="8.710094746202231">
        <ele>901.37</ele>
        <time>2014-03-15T11:40:58Z</time>
      </trkpt>
      <trkpt lat="45.936282891780138" lon="8.710046131163836">
        <ele>902.82000000000005</ele>
        <time>2014-03-15T11:41:11Z</time>
      </trkpt>
      <trkpt lat="45.93619991093874" lon="8.709978740662336">
        <ele>904.74000000000001</ele>
        <time>2014-03-15T11:41:24Z</time>
      </trkpt>
      <trkpt lat="45.936226481571794" lon="8.709868518635631">
        <ele>905.70000000000005</ele>
        <time>2014-03-15T11:41:34Z</time>
      </trkpt>
      <trkpt lat="45.936228325590491" lon="8.709869021549821">
        <ele>905.22000000000003</ele>
        <time>2014-03-15T11:41:48Z</time>
      </trkpt>
      <trkpt lat="45.936227738857269" lon="8.70992518030107">
        <ele>905.22000000000003</ele>
        <time>2014-03-15T11:42:12Z</time>
      </trkpt>
      <trkpt lat="45.936213908717036" lon="8.70991981588304">
        <ele>905.22000000000003</ele>
        <time>2014-03-15T11:42:42Z</time>
      </trkpt>
      <trkpt lat="45.936268894001842" lon="8.709929538890719">
        <ele>905.22000000000003</ele>
        <time>2014-03-15T11:43:08Z</time>
      </trkpt>
      <trkpt lat="45.936260763555765" lon="8.709969101473689">
        <ele>905.22000000000003</ele>
        <time>2014-03-15T11:43:32Z</time>
      </trkpt>
      <trkpt lat="45.936276605352759" lon="8.709907243028283">
        <ele>905.70000000000005</ele>
        <time>2014-03-15T11:44:00Z</time>
      </trkpt>
      <trkpt lat="45.936277275905013" lon="8.709861729294062">
        <ele>906.17999999999995</ele>
        <time>2014-03-15T11:44:32Z</time>
      </trkpt>
      <trkpt lat="45.936303092166781" lon="8.709875643253326">
        <ele>906.17999999999995</ele>
        <time>2014-03-15T11:45:00Z</time>
      </trkpt>
      <trkpt lat="45.936303595080972" lon="8.709909170866013">
        <ele>906.65999999999997</ele>
        <time>2014-03-15T11:45:26Z</time>
      </trkpt>
      <trkpt lat="45.936277695000172" lon="8.709917217493057">
        <ele>906.65999999999997</ele>
        <time>2014-03-15T11:45:54Z</time>
      </trkpt>
      <trkpt lat="45.936155738309026" lon="8.709877068176866">
        <ele>908.58000000000004</ele>
        <time>2014-03-15T11:46:09Z</time>
      </trkpt>
      <trkpt lat="45.936057167127728" lon="8.709867093712091">
        <ele>909.53999999999996</ele>
        <time>2014-03-15T11:46:22Z</time>
      </trkpt>
      <trkpt lat="45.935951052233577" lon="8.709790231660008">
        <ele>910.99000000000001</ele>
        <time>2014-03-15T11:46:37Z</time>
      </trkpt>
      <trkpt lat="45.935888439416885" lon="8.709754776209593">
        <ele>912.42999999999995</ele>
        <time>2014-03-15T11:46:58Z</time>
      </trkpt>
      <trkpt lat="45.935799088329077" lon="8.709798529744148">
        <ele>915.30999999999995</ele>
        <time>2014-03-15T11:47:15Z</time>
      </trkpt>
      <trkpt lat="45.935718705877662" lon="8.70979517698288">
        <ele>917.24000000000001</ele>
        <time>2014-03-15T11:47:27Z</time>
      </trkpt>
      <trkpt lat="45.935765644535422" lon="8.709749998524785">
        <ele>918.20000000000005</ele>
        <time>2014-03-15T11:47:38Z</time>
      </trkpt>
      <trkpt lat="45.935786683112383" lon="8.709770198911429">
        <ele>917.24000000000001</ele>
        <time>2014-03-15T11:48:09Z</time>
      </trkpt>
      <trkpt lat="45.935711078345776" lon="8.70978344231844">
        <ele>918.67999999999995</ele>
        <time>2014-03-15T11:48:22Z</time>
      </trkpt>
      <trkpt lat="45.935608902946115" lon="8.709714878350496">
        <ele>921.55999999999995</ele>
        <time>2014-03-15T11:48:35Z</time>
      </trkpt>
      <trkpt lat="45.935511086136103" lon="8.709711693227291">
        <ele>924.45000000000005</ele>
        <time>2014-03-15T11:48:49Z</time>
      </trkpt>
      <trkpt lat="45.935464398935437" lon="8.709696521982551">
        <ele>926.37</ele>
        <time>2014-03-15T11:48:58Z</time>
      </trkpt>
      <trkpt lat="45.93539516441524" lon="8.709701634943485">
        <ele>928.76999999999998</ele>
        <time>2014-03-15T11:49:12Z</time>
      </trkpt>
      <trkpt lat="45.93536582775414" lon="8.709681266918778">
        <ele>931.16999999999996</ele>
        <time>2014-03-15T11:49:25Z</time>
      </trkpt>
      <trkpt lat="45.935286115854979" lon="8.709696857258678">
        <ele>934.05999999999995</ele>
        <time>2014-03-15T11:49:39Z</time>
      </trkpt>
      <trkpt lat="45.935228029266" lon="8.709736252203584">
        <ele>935.98000000000002</ele>
        <time>2014-03-15T11:49:51Z</time>
      </trkpt>
      <trkpt lat="45.935150412842631" lon="8.709785034880042">
        <ele>938.38</ele>
        <time>2014-03-15T11:50:06Z</time>
      </trkpt>
      <trkpt lat="45.935056619346142" lon="8.709812192246318">
        <ele>941.26999999999998</ele>
        <time>2014-03-15T11:50:21Z</time>
      </trkpt>
      <trkpt lat="45.934972045943141" lon="8.709777323529124">
        <ele>943.66999999999996</ele>
        <time>2014-03-15T11:50:36Z</time>
      </trkpt>
      <trkpt lat="45.934909684583545" lon="8.70976977981627">
        <ele>946.55999999999995</ele>
        <time>2014-03-15T11:50:48Z</time>
      </trkpt>
      <trkpt lat="45.934834582731128" lon="8.709797691553831">
        <ele>948.96000000000004</ele>
        <time>2014-03-15T11:51:03Z</time>
      </trkpt>
      <trkpt lat="45.934779262170196" lon="8.709843792021275">
        <ele>951.36000000000001</ele>
        <time>2014-03-15T11:51:15Z</time>
      </trkpt>
      <trkpt lat="45.934752775356174" lon="8.709885952994227">
        <ele>954.25</ele>
        <time>2014-03-15T11:51:30Z</time>
      </trkpt>
      <trkpt lat="45.934714218601584" lon="8.709952672943473">
        <ele>957.13</ele>
        <time>2014-03-15T11:51:45Z</time>
      </trkpt>
      <trkpt lat="45.934640876948833" lon="8.710025930777192">
        <ele>960.00999999999999</ele>
        <time>2014-03-15T11:52:00Z</time>
      </trkpt>
      <trkpt lat="45.934601565822959" lon="8.710049567744136">
        <ele>961.94000000000005</ele>
        <time>2014-03-15T11:52:09Z</time>
      </trkpt>
      <trkpt lat="45.934555297717452" lon="8.71012207120657">
        <ele>963.86000000000001</ele>
        <time>2014-03-15T11:52:23Z</time>
      </trkpt>
      <trkpt lat="45.934511460363865" lon="8.710197089239955">
        <ele>966.74000000000001</ele>
        <time>2014-03-15T11:52:36Z</time>
      </trkpt>
      <trkpt lat="45.934483464807272" lon="8.710272442549467">
        <ele>968.66999999999996</ele>
        <time>2014-03-15T11:52:51Z</time>
      </trkpt>
      <trkpt lat="45.934413895010948" lon="8.710387861356139">
        <ele>970.59000000000003</ele>
        <time>2014-03-15T11:53:04Z</time>
      </trkpt>
      <trkpt lat="45.934320604428649" lon="8.710410743951798">
        <ele>973.47000000000003</ele>
        <time>2014-03-15T11:53:18Z</time>
      </trkpt>
      <trkpt lat="45.934278275817633" lon="8.710509818047285">
        <ele>975.88</ele>
        <time>2014-03-15T11:53:32Z</time>
      </trkpt>
      <trkpt lat="45.934220273047686" lon="8.710564635694027">
        <ele>978.75999999999999</ele>
        <time>2014-03-15T11:53:45Z</time>
      </trkpt>
      <trkpt lat="45.934151373803616" lon="8.710648538544774">
        <ele>981.15999999999997</ele>
        <time>2014-03-15T11:53:59Z</time>
      </trkpt>
      <trkpt lat="45.934131508693099" lon="8.710680557414889">
        <ele>983.57000000000005</ele>
        <time>2014-03-15T11:54:10Z</time>
      </trkpt>
      <trkpt lat="45.934093873947859" lon="8.710704697296023">
        <ele>985.49000000000001</ele>
        <time>2014-03-15T11:54:22Z</time>
      </trkpt>
      <trkpt lat="45.934043414890766" lon="8.710764208808541">
        <ele>988.37</ele>
        <time>2014-03-15T11:54:36Z</time>
      </trkpt>
      <trkpt lat="45.934004271402955" lon="8.710832269862294">
        <ele>990.77999999999997</ele>
        <time>2014-03-15T11:54:51Z</time>
      </trkpt>
      <trkpt lat="45.933974012732506" lon="8.710926063358784">
        <ele>993.17999999999995</ele>
        <time>2014-03-15T11:55:05Z</time>
      </trkpt>
      <trkpt lat="45.933927493169904" lon="8.710951711982489">
        <ele>994.13999999999999</ele>
        <time>2014-03-15T11:55:19Z</time>
      </trkpt>
      <trkpt lat="45.933881644159555" lon="8.710986077785492">
        <ele>996.53999999999996</ele>
        <time>2014-03-15T11:55:34Z</time>
      </trkpt>
      <trkpt lat="45.933809978887439" lon="8.711049109697342">
        <ele>999.90999999999997</ele>
        <time>2014-03-15T11:55:48Z</time>
      </trkpt>
      <trkpt lat="45.933756669983268" lon="8.711096215993166">
        <ele>1002.3099999999999</ele>
        <time>2014-03-15T11:56:02Z</time>
      </trkpt>
      <trkpt lat="45.933704115450382" lon="8.711150949820876">
        <ele>1004.72</ele>
        <time>2014-03-15T11:56:15Z</time>
      </trkpt>
      <trkpt lat="45.933646028861403" lon="8.71120048686862">
        <ele>1007.12</ele>
        <time>2014-03-15T11:56:27Z</time>
      </trkpt>
      <trkpt lat="45.933575537055731" lon="8.711229655891657">
        <ele>1009.52</ele>
        <time>2014-03-15T11:56:41Z</time>
      </trkpt>
      <trkpt lat="45.933531783521175" lon="8.711264273151755">
        <ele>1010.96</ele>
        <time>2014-03-15T11:56:53Z</time>
      </trkpt>
      <trkpt lat="45.933445114642382" lon="8.711321856826544">
        <ele>1013.37</ele>
        <time>2014-03-15T11:57:09Z</time>
      </trkpt>
      <trkpt lat="45.933391554281116" lon="8.711355803534389">
        <ele>1014.8099999999999</ele>
        <time>2014-03-15T11:57:23Z</time>
      </trkpt>
      <trkpt lat="45.933320224285126" lon="8.711425121873617">
        <ele>1016.73</ele>
        <time>2014-03-15T11:57:40Z</time>
      </trkpt>
      <trkpt lat="45.933221066370606" lon="8.711517490446568">
        <ele>1017.21</ele>
        <time>2014-03-15T11:57:54Z</time>
      </trkpt>
      <trkpt lat="45.933148395270109" lon="8.711571888998151">
        <ele>1018.65</ele>
        <time>2014-03-15T11:58:04Z</time>
      </trkpt>
      <trkpt lat="45.933090895414352" lon="8.711626203730702">
        <ele>1019.13</ele>
        <time>2014-03-15T11:58:17Z</time>
      </trkpt>
      <trkpt lat="45.933030545711517" lon="8.711674818769097">
        <ele>1019.62</ele>
        <time>2014-03-15T11:58:33Z</time>
      </trkpt>
      <trkpt lat="45.932914204895496" lon="8.711770623922348">
        <ele>1022.02</ele>
        <time>2014-03-15T11:58:46Z</time>
      </trkpt>
      <trkpt lat="45.932888807728887" lon="8.711808091029525">
        <ele>1022.5</ele>
        <time>2014-03-15T11:59:00Z</time>
      </trkpt>
      <trkpt lat="45.932862823829055" lon="8.711870703846216">
        <ele>1022.5</ele>
        <time>2014-03-15T11:59:06Z</time>
      </trkpt>
      <trkpt lat="45.932843796908855" lon="8.711891323328018">
        <ele>1022.98</ele>
        <time>2014-03-15T11:59:08Z</time>
      </trkpt>
      <trkpt lat="45.932812448590994" lon="8.711984530091286">
        <ele>1022.98</ele>
        <time>2014-03-15T11:59:24Z</time>
      </trkpt>
      <trkpt lat="45.932726701721549" lon="8.712090142071247">
        <ele>1023.9400000000001</ele>
        <time>2014-03-15T11:59:37Z</time>
      </trkpt>
      <trkpt lat="45.93268227763474" lon="8.712183181196451">
        <ele>1026.3399999999999</ele>
        <time>2014-03-15T11:59:49Z</time>
      </trkpt>
      <trkpt lat="45.932620335370302" lon="8.712246380746365">
        <ele>1027.79</ele>
        <time>2014-03-15T12:00:02Z</time>
      </trkpt>
      <trkpt lat="45.932572223246098" lon="8.712306395173073">
        <ele>1028.75</ele>
        <time>2014-03-15T12:00:13Z</time>
      </trkpt>
      <trkpt lat="45.93253861181438" lon="8.71237026527524">
        <ele>1029.71</ele>
        <time>2014-03-15T12:00:27Z</time>
      </trkpt>
      <trkpt lat="45.932531068101525" lon="8.712382251396775">
        <ele>1030.1900000000001</ele>
        <time>2014-03-15T12:00:28Z</time>
      </trkpt>
      <trkpt lat="45.932411877438426" lon="8.712490880861878">
        <ele>1031.6300000000001</ele>
        <time>2014-03-15T12:00:44Z</time>
      </trkpt>
      <trkpt lat="45.932340044528246" lon="8.712688190862536">
        <ele>1033.0699999999999</ele>
        <time>2014-03-15T12:01:01Z</time>
      </trkpt>
      <trkpt lat="45.932291345670819" lon="8.712769076228142">
        <ele>1034.04</ele>
        <time>2014-03-15T12:01:09Z</time>
      </trkpt>
      <trkpt lat="45.932284221053123" lon="8.712844178080559">
        <ele>1034.04</ele>
        <time>2014-03-15T12:01:15Z</time>
      </trkpt>
      <trkpt lat="45.932234013453126" lon="8.713053474202752">
        <ele>1035</ele>
        <time>2014-03-15T12:01:31Z</time>
      </trkpt>
      <trkpt lat="45.932166539132595" lon="8.713250197470188">
        <ele>1036.9200000000001</ele>
        <time>2014-03-15T12:01:46Z</time>
      </trkpt>
      <trkpt lat="45.932143907994032" lon="8.713346673175693">
        <ele>1036.4400000000001</ele>
        <time>2014-03-15T12:01:52Z</time>
      </trkpt>
      <trkpt lat="45.932116582989693" lon="8.713527889922261">
        <ele>1035.48</ele>
        <time>2014-03-15T12:02:03Z</time>
      </trkpt>
      <trkpt lat="45.932016167789698" lon="8.713655127212405">
        <ele>1033.55</ele>
        <time>2014-03-15T12:02:17Z</time>
      </trkpt>
      <trkpt lat="45.931950034573674" lon="8.713723691180348">
        <ele>1034.04</ele>
        <time>2014-03-15T12:02:29Z</time>
      </trkpt>
      <trkpt lat="45.931908125057817" lon="8.713718242943287">
        <ele>1034.52</ele>
        <time>2014-03-15T12:02:44Z</time>
      </trkpt>
      <trkpt lat="45.931893456727266" lon="8.713766187429428">
        <ele>1034.52</ele>
        <time>2014-03-15T12:03:03Z</time>
      </trkpt>
      <trkpt lat="45.931843668222427" lon="8.713840367272496">
        <ele>1036.4400000000001</ele>
        <time>2014-03-15T12:03:16Z</time>
      </trkpt>
      <trkpt lat="45.931789185851812" lon="8.713908595964313">
        <ele>1038.8399999999999</ele>
        <time>2014-03-15T12:03:31Z</time>
      </trkpt>
      <trkpt lat="45.931747443974018" lon="8.713999623432756">
        <ele>1039.8</ele>
        <time>2014-03-15T12:03:45Z</time>
      </trkpt>
      <trkpt lat="45.931680891662836" lon="8.71410540305078">
        <ele>1041.73</ele>
        <time>2014-03-15T12:04:00Z</time>
      </trkpt>
      <trkpt lat="45.931632947176695" lon="8.714195843786001">
        <ele>1043.1700000000001</ele>
        <time>2014-03-15T12:04:13Z</time>
      </trkpt>
      <trkpt lat="45.931581566110253" lon="8.71432819403708">
        <ele>1045.0899999999999</ele>
        <time>2014-03-15T12:04:29Z</time>
      </trkpt>
      <trkpt lat="45.93154426664114" lon="8.71443129144609">
        <ele>1047.01</ele>
        <time>2014-03-15T12:04:43Z</time>
      </trkpt>
      <trkpt lat="45.931516103446484" lon="8.714513937011361">
        <ele>1048.45</ele>
        <time>2014-03-15T12:04:56Z</time>
      </trkpt>
      <trkpt lat="45.931506464257836" lon="8.714554170146585">
        <ele>1049.4200000000001</ele>
        <time>2014-03-15T12:05:06Z</time>
      </trkpt>
      <trkpt lat="45.931485509499907" lon="8.71458669193089">
        <ele>1049.9000000000001</ele>
        <time>2014-03-15T12:05:21Z</time>
      </trkpt>
      <trkpt lat="45.931452233344316" lon="8.714700434356928">
        <ele>1052.3</ele>
        <time>2014-03-15T12:05:36Z</time>
      </trkpt>
      <trkpt lat="45.931419543921947" lon="8.714802023023367">
        <ele>1055.1800000000001</ele>
        <time>2014-03-15T12:05:54Z</time>
      </trkpt>
      <trkpt lat="45.931399762630463" lon="8.714855834841728">
        <ele>1056.1500000000001</ele>
        <time>2014-03-15T12:06:11Z</time>
      </trkpt>
      <trkpt lat="45.931375119835138" lon="8.714947113767266">
        <ele>1059.03</ele>
        <time>2014-03-15T12:06:26Z</time>
      </trkpt>
      <trkpt lat="45.9313322044909" lon="8.715035542845726">
        <ele>1060.47</ele>
        <time>2014-03-15T12:06:40Z</time>
      </trkpt>
      <trkpt lat="45.931343268603086" lon="8.715053396299481">
        <ele>1061.4300000000001</ele>
        <time>2014-03-15T12:06:55Z</time>
      </trkpt>
      <trkpt lat="45.931348716840148" lon="8.715087426826358">
        <ele>1061.4300000000001</ele>
        <time>2014-03-15T12:07:26Z</time>
      </trkpt>
      <trkpt lat="45.931284679099917" lon="8.71516764163971">
        <ele>1063.8399999999999</ele>
        <time>2014-03-15T12:07:42Z</time>
      </trkpt>
      <trkpt lat="45.931275207549334" lon="8.715219357982278">
        <ele>1065.28</ele>
        <time>2014-03-15T12:07:55Z</time>
      </trkpt>
      <trkpt lat="45.931229861453176" lon="8.715277528390288">
        <ele>1067.2</ele>
        <time>2014-03-15T12:08:10Z</time>
      </trkpt>
      <trkpt lat="45.931203290820122" lon="8.715326311066747">
        <ele>1068.6400000000001</ele>
        <time>2014-03-15T12:08:26Z</time>
      </trkpt>
      <trkpt lat="45.93118267133832" lon="8.71538263745606">
        <ele>1070.5699999999999</ele>
        <time>2014-03-15T12:08:39Z</time>
      </trkpt>
      <trkpt lat="45.931163476780057" lon="8.715451955795288">
        <ele>1072.49</ele>
        <time>2014-03-15T12:08:54Z</time>
      </trkpt>
      <trkpt lat="45.931149227544665" lon="8.715548096224666">
        <ele>1074.4100000000001</ele>
        <time>2014-03-15T12:09:09Z</time>
      </trkpt>
      <trkpt lat="45.931120309978724" lon="8.71560106985271">
        <ele>1075.8499999999999</ele>
        <time>2014-03-15T12:09:21Z</time>
      </trkpt>
      <trkpt lat="45.931101366877556" lon="8.715649852529168">
        <ele>1076.8099999999999</ele>
        <time>2014-03-15T12:09:35Z</time>
      </trkpt>
      <trkpt lat="45.931103378534317" lon="8.715742891654372">
        <ele>1078.74</ele>
        <time>2014-03-15T12:09:50Z</time>
      </trkpt>
      <trkpt lat="45.931098600849509" lon="8.715857891365886">
        <ele>1079.7</ele>
        <time>2014-03-15T12:10:04Z</time>
      </trkpt>
      <trkpt lat="45.931078065186739" lon="8.715915977954865">
        <ele>1080.1800000000001</ele>
        <time>2014-03-15T12:10:17Z</time>
      </trkpt>
      <trkpt lat="45.931052165105939" lon="8.716001557186246">
        <ele>1081.1400000000001</ele>
        <time>2014-03-15T12:10:29Z</time>
      </trkpt>
      <trkpt lat="45.931047722697258" lon="8.716090656816959">
        <ele>1082.0999999999999</ele>
        <time>2014-03-15T12:10:42Z</time>
      </trkpt>
      <trkpt lat="45.931066330522299" lon="8.716179924085736">
        <ele>1083.0599999999999</ele>
        <time>2014-03-15T12:10:58Z</time>
      </trkpt>
      <trkpt lat="45.931052835658193" lon="8.71627732180059">
        <ele>1084.5</ele>
        <time>2014-03-15T12:11:11Z</time>
      </trkpt>
      <trkpt lat="45.931025762110949" lon="8.716388717293739">
        <ele>1085.95</ele>
        <time>2014-03-15T12:11:26Z</time>
      </trkpt>
      <trkpt lat="45.931025762110949" lon="8.716472452506423">
        <ele>1086.4300000000001</ele>
        <time>2014-03-15T12:11:41Z</time>
      </trkpt>
      <trkpt lat="45.930981002748013" lon="8.716572197154164">
        <ele>1086.4300000000001</ele>
        <time>2014-03-15T12:11:56Z</time>
      </trkpt>
      <trkpt lat="45.930941188707948" lon="8.716631624847651">
        <ele>1088.3499999999999</ele>
        <time>2014-03-15T12:12:08Z</time>
      </trkpt>
      <trkpt lat="45.930949570611119" lon="8.716709492728114">
        <ele>1089.79</ele>
        <time>2014-03-15T12:12:20Z</time>
      </trkpt>
      <trkpt lat="45.93096524477005" lon="8.716862881556153">
        <ele>1091.71</ele>
        <time>2014-03-15T12:12:34Z</time>
      </trkpt>
      <trkpt lat="45.930960718542337" lon="8.71694385074079">
        <ele>1092.2</ele>
        <time>2014-03-15T12:12:48Z</time>
      </trkpt>
      <trkpt lat="45.930933225899935" lon="8.716990202665329">
        <ele>1092.6800000000001</ele>
        <time>2014-03-15T12:13:05Z</time>
      </trkpt>
      <trkpt lat="45.930956527590752" lon="8.717009397223592">
        <ele>1092.2</ele>
        <time>2014-03-15T12:13:22Z</time>
      </trkpt>
      <trkpt lat="45.930957952514291" lon="8.717043176293373">
        <ele>1092.6800000000001</ele>
        <time>2014-03-15T12:13:42Z</time>
      </trkpt>
      <trkpt lat="45.93093104660511" lon="8.717180220410228">
        <ele>1091.71</ele>
        <time>2014-03-15T12:13:55Z</time>
      </trkpt>
      <trkpt lat="45.93089684844017" lon="8.717292286455631">
        <ele>1093.1600000000001</ele>
        <time>2014-03-15T12:14:08Z</time>
      </trkpt>
      <trkpt lat="45.930896513164043" lon="8.71740753762424">
        <ele>1094.1199999999999</ele>
        <time>2014-03-15T12:14:21Z</time>
      </trkpt>
      <trkpt lat="45.930907409638166" lon="8.717493955045939">
        <ele>1095.0799999999999</ele>
        <time>2014-03-15T12:14:34Z</time>
      </trkpt>
      <trkpt lat="45.930892322212458" lon="8.717580875381827">
        <ele>1096.04</ele>
        <time>2014-03-15T12:14:48Z</time>
      </trkpt>
      <trkpt lat="45.930881341919303" lon="8.717687241733074">
        <ele>1097.48</ele>
        <time>2014-03-15T12:15:01Z</time>
      </trkpt>
      <trkpt lat="45.930861979722977" lon="8.717745495960116">
        <ele>1097.96</ele>
        <time>2014-03-15T12:15:20Z</time>
      </trkpt>
      <trkpt lat="45.930862063542008" lon="8.717889161780477">
        <ele>1098.9200000000001</ele>
        <time>2014-03-15T12:15:35Z</time>
      </trkpt>
      <trkpt lat="45.930865751579404" lon="8.717942889779806">
        <ele>1100.3699999999999</ele>
        <time>2014-03-15T12:15:47Z</time>
      </trkpt>
      <trkpt lat="45.930873043835163" lon="8.718023775145412">
        <ele>1100.8499999999999</ele>
        <time>2014-03-15T12:15:59Z</time>
      </trkpt>
      <trkpt lat="45.93083281069994" lon="8.718090914189816">
        <ele>1103.25</ele>
        <time>2014-03-15T12:16:15Z</time>
      </trkpt>
      <trkpt lat="45.930752092972398" lon="8.718178672716022">
        <ele>1105.1700000000001</ele>
        <time>2014-03-15T12:16:32Z</time>
      </trkpt>
      <trkpt lat="45.930758798494935" lon="8.718323847278953">
        <ele>1106.6099999999999</ele>
        <time>2014-03-15T12:16:49Z</time>
      </trkpt>
      <trkpt lat="45.930749075487256" lon="8.718451503664255">
        <ele>1109.5</ele>
        <time>2014-03-15T12:17:09Z</time>
      </trkpt>
      <trkpt lat="45.930706160143018" lon="8.718538172543049">
        <ele>1110.46</ele>
        <time>2014-03-15T12:17:25Z</time>
      </trkpt>
      <trkpt lat="45.930701214820147" lon="8.718663230538368">
        <ele>1112.3800000000001</ele>
        <time>2014-03-15T12:17:41Z</time>
      </trkpt>
      <trkpt lat="45.930650001391768" lon="8.718780828639865">
        <ele>1113.8199999999999</ele>
        <time>2014-03-15T12:17:57Z</time>
      </trkpt>
      <trkpt lat="45.930657377466559" lon="8.718763226643205">
        <ele>1114.3099999999999</ele>
        <time>2014-03-15T12:18:20Z</time>
      </trkpt>
      <trkpt lat="45.930656539276242" lon="8.718808405101299">
        <ele>1114.79</ele>
        <time>2014-03-15T12:18:56Z</time>
      </trkpt>
      <trkpt lat="45.930653270334005" lon="8.718905132263899">
        <ele>1116.23</ele>
        <time>2014-03-15T12:19:08Z</time>
      </trkpt>
      <trkpt lat="45.930639356374741" lon="8.719033459201455">
        <ele>1118.6300000000001</ele>
        <time>2014-03-15T12:19:22Z</time>
      </trkpt>
      <trkpt lat="45.930638769641519" lon="8.719152398407459">
        <ele>1121.52</ele>
        <time>2014-03-15T12:19:37Z</time>
      </trkpt>
      <trkpt lat="45.930650671944022" lon="8.719238564372063">
        <ele>1123.4400000000001</ele>
        <time>2014-03-15T12:19:49Z</time>
      </trkpt>
      <trkpt lat="45.930659305304289" lon="8.719275360926986">
        <ele>1123.4400000000001</ele>
        <time>2014-03-15T12:19:54Z</time>
      </trkpt>
      <trkpt lat="45.930691659450531" lon="8.719381140545011">
        <ele>1124.8800000000001</ele>
        <time>2014-03-15T12:20:08Z</time>
      </trkpt>
      <trkpt lat="45.930726276710629" lon="8.71951550245285">
        <ele>1126.8</ele>
        <time>2014-03-15T12:20:25Z</time>
      </trkpt>
      <trkpt lat="45.930715966969728" lon="8.719638716429472">
        <ele>1128.73</ele>
        <time>2014-03-15T12:20:39Z</time>
      </trkpt>
      <trkpt lat="45.930680595338345" lon="8.719732342287898">
        <ele>1131.1300000000001</ele>
        <time>2014-03-15T12:20:54Z</time>
      </trkpt>
      <trkpt lat="45.930655533447862" lon="8.719811132177711">
        <ele>1133.53</ele>
        <time>2014-03-15T12:21:08Z</time>
      </trkpt>
      <trkpt lat="45.930641870945692" lon="8.719911463558674">
        <ele>1135.45</ele>
        <time>2014-03-15T12:21:23Z</time>
      </trkpt>
      <trkpt lat="45.930587975308299" lon="8.720004837960005">
        <ele>1136.9000000000001</ele>
        <time>2014-03-15T12:21:39Z</time>
      </trkpt>
      <trkpt lat="45.930523434653878" lon="8.720081364735961">
        <ele>1137.8599999999999</ele>
        <time>2014-03-15T12:21:53Z</time>
      </trkpt>
      <trkpt lat="45.930473981425166" lon="8.720169207081199">
        <ele>1140.26</ele>
        <time>2014-03-15T12:22:07Z</time>
      </trkpt>
      <trkpt lat="45.930423187091947" lon="8.720246991142631">
        <ele>1142.1800000000001</ele>
        <time>2014-03-15T12:22:22Z</time>
      </trkpt>
      <trkpt lat="45.930389910936356" lon="8.720354195684195">
        <ele>1145.0699999999999</ele>
        <time>2014-03-15T12:22:38Z</time>
      </trkpt>
      <trkpt lat="45.930368034169078" lon="8.720417059957981">
        <ele>1146.99</ele>
        <time>2014-03-15T12:22:53Z</time>
      </trkpt>
      <trkpt lat="45.93031975440681" lon="8.720508338883519">
        <ele>1150.8399999999999</ele>
        <time>2014-03-15T12:23:12Z</time>
      </trkpt>
      <trkpt lat="45.930284718051553" lon="8.720584446564317">
        <ele>1152.76</ele>
        <time>2014-03-15T12:23:29Z</time>
      </trkpt>
      <trkpt lat="45.930248172953725" lon="8.720662146806717">
        <ele>1154.6800000000001</ele>
        <time>2014-03-15T12:23:42Z</time>
      </trkpt>
      <trkpt lat="45.930194361135364" lon="8.720734482631087">
        <ele>1156.1199999999999</ele>
        <time>2014-03-15T12:23:57Z</time>
      </trkpt>
      <trkpt lat="45.930180950090289" lon="8.720805393531919">
        <ele>1158.53</ele>
        <time>2014-03-15T12:24:15Z</time>
      </trkpt>
      <trkpt lat="45.930160414427519" lon="8.720864905044437">
        <ele>1159.97</ele>
        <time>2014-03-15T12:24:28Z</time>
      </trkpt>
      <trkpt lat="45.930122779682279" lon="8.720911927521229">
        <ele>1162.3699999999999</ele>
        <time>2014-03-15T12:24:42Z</time>
      </trkpt>
      <trkpt lat="45.930086318403482" lon="8.720963727682829">
        <ele>1164.77</ele>
        <time>2014-03-15T12:24:56Z</time>
      </trkpt>
      <trkpt lat="45.930054299533367" lon="8.721020054072142">
        <ele>1166.22</ele>
        <time>2014-03-15T12:25:10Z</time>
      </trkpt>
      <trkpt lat="45.930048264563084" lon="8.721072105690837">
        <ele>1167.6600000000001</ele>
        <time>2014-03-15T12:25:34Z</time>
      </trkpt>
      <trkpt lat="45.930007612332702" lon="8.721165899187326">
        <ele>1170.0599999999999</ele>
        <time>2014-03-15T12:25:50Z</time>
      </trkpt>
      <trkpt lat="45.929928822442889" lon="8.721225745975971">
        <ele>1172.47</ele>
        <time>2014-03-15T12:26:08Z</time>
      </trkpt>
      <trkpt lat="45.929943323135376" lon="8.721272265538573">
        <ele>1172.95</ele>
        <time>2014-03-15T12:26:28Z</time>
      </trkpt>
      <trkpt lat="45.929911555722356" lon="8.721329178661108">
        <ele>1173.9100000000001</ele>
        <time>2014-03-15T12:26:43Z</time>
      </trkpt>
      <trkpt lat="45.929855732247233" lon="8.7214176915586">
        <ele>1173.9100000000001</ele>
        <time>2014-03-15T12:26:57Z</time>
      </trkpt>
      <trkpt lat="45.92978959903121" lon="8.721478963270783">
        <ele>1175.3499999999999</ele>
        <time>2014-03-15T12:27:10Z</time>
      </trkpt>
      <trkpt lat="45.929721454158425" lon="8.721543084830046">
        <ele>1177.27</ele>
        <time>2014-03-15T12:27:27Z</time>
      </trkpt>
      <trkpt lat="45.929708378389478" lon="8.721600417047739">
        <ele>1178.23</ele>
        <time>2014-03-15T12:27:42Z</time>
      </trkpt>
      <trkpt lat="45.929651213809848" lon="8.72160829603672">
        <ele>1181.1199999999999</ele>
        <time>2014-03-15T12:27:56Z</time>
      </trkpt>
      <trkpt lat="45.929612657055259" lon="8.721603015437722">
        <ele>1182.5599999999999</ele>
        <time>2014-03-15T12:28:12Z</time>
      </trkpt>
      <trkpt lat="45.929578291252255" lon="8.721568146720529">
        <ele>1183.52</ele>
        <time>2014-03-15T12:28:31Z</time>
      </trkpt>
      <trkpt lat="45.929547697305679" lon="8.721581473946571">
        <ele>1185.9200000000001</ele>
        <time>2014-03-15T12:28:46Z</time>
      </trkpt>
      <trkpt lat="45.929515929892659" lon="8.721638470888138">
        <ele>1188.8099999999999</ele>
        <time>2014-03-15T12:29:00Z</time>
      </trkpt>
      <trkpt lat="45.929490784183145" lon="8.721712063997984">
        <ele>1191.21</ele>
        <time>2014-03-15T12:29:15Z</time>
      </trkpt>
      <trkpt lat="45.929465554654598" lon="8.721769480034709">
        <ele>1192.1700000000001</ele>
        <time>2014-03-15T12:29:28Z</time>
      </trkpt>
      <trkpt lat="45.929439906030893" lon="8.721834607422352">
        <ele>1193.1300000000001</ele>
        <time>2014-03-15T12:29:43Z</time>
      </trkpt>
      <trkpt lat="45.929415849968791" lon="8.721894538030028">
        <ele>1194.5799999999999</ele>
        <time>2014-03-15T12:29:57Z</time>
      </trkpt>
      <trkpt lat="45.929395984858274" lon="8.721952205523849">
        <ele>1196.02</ele>
        <time>2014-03-15T12:30:09Z</time>
      </trkpt>
      <trkpt lat="45.929368659853935" lon="8.722010711207986">
        <ele>1196.98</ele>
        <time>2014-03-15T12:30:21Z</time>
      </trkpt>
      <trkpt lat="45.929361451417208" lon="8.722038874402642">
        <ele>1197.9400000000001</ele>
        <time>2014-03-15T12:30:36Z</time>
      </trkpt>
      <trkpt lat="45.929317865520716" lon="8.722104588523507">
        <ele>1199.8599999999999</ele>
        <time>2014-03-15T12:30:50Z</time>
      </trkpt>
      <trkpt lat="45.929255587980151" lon="8.722179774194956">
        <ele>1202.27</ele>
        <time>2014-03-15T12:31:04Z</time>
      </trkpt>
      <trkpt lat="45.929194819182158" lon="8.722261413931847">
        <ele>1203.71</ele>
        <time>2014-03-15T12:31:21Z</time>
      </trkpt>
      <trkpt lat="45.929189873859286" lon="8.722349926829338">
        <ele>1204.6700000000001</ele>
        <time>2014-03-15T12:31:33Z</time>
      </trkpt>
      <trkpt lat="45.929198423400521" lon="8.722310783341527">
        <ele>1205.6300000000001</ele>
        <time>2014-03-15T12:31:53Z</time>
      </trkpt>
      <trkpt lat="45.929218959063292" lon="8.722297037020326">
        <ele>1205.1500000000001</ele>
        <time>2014-03-15T12:32:05Z</time>
      </trkpt>
      <trkpt lat="45.929214935749769" lon="8.722316231578589">
        <ele>1205.1500000000001</ele>
        <time>2014-03-15T12:32:30Z</time>
      </trkpt>
      <trkpt lat="45.929216193035245" lon="8.722311202436686">
        <ele>1206.1099999999999</ele>
        <time>2014-03-15T12:32:52Z</time>
      </trkpt>
      <trkpt lat="45.929207475855947" lon="8.722298629581928">
        <ele>1205.6300000000001</ele>
        <time>2014-03-15T12:33:09Z</time>
      </trkpt>
      <trkpt lat="45.929203201085329" lon="8.722291756421328">
        <ele>1205.1500000000001</ele>
        <time>2014-03-15T12:33:23Z</time>
      </trkpt>
      <trkpt lat="45.929195657372475" lon="8.722289660945535">
        <ele>1204.6700000000001</ele>
        <time>2014-03-15T12:33:49Z</time>
      </trkpt>
      <trkpt lat="45.929184509441257" lon="8.722285637632012">
        <ele>1205.1500000000001</ele>
        <time>2014-03-15T12:34:20Z</time>
      </trkpt>
      <trkpt lat="45.929189370945096" lon="8.722302317619324">
        <ele>1205.1500000000001</ele>
        <time>2014-03-15T12:34:55Z</time>
      </trkpt>
      <trkpt lat="45.929195573553443" lon="8.722303155809641">
        <ele>1205.6300000000001</ele>
        <time>2014-03-15T12:35:06Z</time>
      </trkpt>
      <trkpt lat="45.929212588816881" lon="8.722303742542863">
        <ele>1206.1099999999999</ele>
        <time>2014-03-15T12:35:21Z</time>
      </trkpt>
      <trkpt lat="45.929221138358116" lon="8.722306173294783">
        <ele>1205.6300000000001</ele>
        <time>2014-03-15T12:35:40Z</time>
      </trkpt>
      <trkpt lat="45.929205967113376" lon="8.72229821048677">
        <ele>1206.1099999999999</ele>
        <time>2014-03-15T12:35:56Z</time>
      </trkpt>
      <trkpt lat="45.929214265197515" lon="8.722306927666068">
        <ele>1205.6300000000001</ele>
        <time>2014-03-15T12:36:13Z</time>
      </trkpt>
      <trkpt lat="45.929228095337749" lon="8.722314471378923">
        <ele>1206.1099999999999</ele>
        <time>2014-03-15T12:36:35Z</time>
      </trkpt>
      <trkpt lat="45.929231951013207" lon="8.722302485257387">
        <ele>1206.1099999999999</ele>
        <time>2014-03-15T12:36:56Z</time>
      </trkpt>
      <trkpt lat="45.92922574840486" lon="8.722304245457053">
        <ele>1206.1099999999999</ele>
        <time>2014-03-15T12:37:23Z</time>
      </trkpt>
      <trkpt lat="45.929220132529736" lon="8.722300976514816">
        <ele>1206.1099999999999</ele>
        <time>2014-03-15T12:37:50Z</time>
      </trkpt>
      <trkpt lat="45.929201524704695" lon="8.722293265163899">
        <ele>1205.6300000000001</ele>
        <time>2014-03-15T12:38:02Z</time>
      </trkpt>
      <trkpt lat="45.929208314046264" lon="8.722288236021996">
        <ele>1206.1099999999999</ele>
        <time>2014-03-15T12:38:21Z</time>
      </trkpt>
      <trkpt lat="45.929202949628234" lon="8.722303491085768">
        <ele>1205.6300000000001</ele>
        <time>2014-03-15T12:38:46Z</time>
      </trkpt>
      <trkpt lat="45.929203368723392" lon="8.722341964021325">
        <ele>1205.1500000000001</ele>
        <time>2014-03-15T12:38:59Z</time>
      </trkpt>
      <trkpt lat="45.92919104732573" lon="8.722379850223661">
        <ele>1205.1500000000001</ele>
        <time>2014-03-15T12:39:21Z</time>
      </trkpt>
      <trkpt lat="45.929185850545764" lon="8.722448917105794">
        <ele>1204.6700000000001</ele>
        <time>2014-03-15T12:39:49Z</time>
      </trkpt>
      <trkpt lat="45.92918761074543" lon="8.722301982343197">
        <ele>1205.6300000000001</ele>
        <time>2014-03-15T12:40:04Z</time>
      </trkpt>
      <trkpt lat="45.929209487512708" lon="8.722322769463062">
        <ele>1205.6300000000001</ele>
        <time>2014-03-15T12:40:17Z</time>
      </trkpt>
      <trkpt lat="45.929221138358116" lon="8.72226937673986">
        <ele>1206.1099999999999</ele>
        <time>2014-03-15T12:40:33Z</time>
      </trkpt>
      <trkpt lat="45.929216779768467" lon="8.7222845479846">
        <ele>1205.6300000000001</ele>
        <time>2014-03-15T12:40:54Z</time>
      </trkpt>
      <trkpt lat="45.929218623787165" lon="8.722300976514816">
        <ele>1206.1099999999999</ele>
        <time>2014-03-15T12:41:14Z</time>
      </trkpt>
      <trkpt lat="45.929229604080319" lon="8.722298461943865">
        <ele>1205.6300000000001</ele>
        <time>2014-03-15T12:41:31Z</time>
      </trkpt>
      <trkpt lat="45.929228682070971" lon="8.722300892695785">
        <ele>1206.5899999999999</ele>
        <time>2014-03-15T12:41:54Z</time>
      </trkpt>
      <trkpt lat="45.929226670414209" lon="8.722304916009307">
        <ele>1205.6300000000001</ele>
        <time>2014-03-15T12:42:23Z</time>
      </trkpt>
      <trkpt lat="45.929207392036915" lon="8.722318829968572">
        <ele>1205.6300000000001</ele>
        <time>2014-03-15T12:42:41Z</time>
      </trkpt>
      <trkpt lat="45.92922281473875" lon="8.722329223528504">
        <ele>1206.1099999999999</ele>
        <time>2014-03-15T12:43:02Z</time>
      </trkpt>
      <trkpt lat="45.929223988205194" lon="8.722323942929506">
        <ele>1206.1099999999999</ele>
        <time>2014-03-15T12:43:22Z</time>
      </trkpt>
      <trkpt lat="45.929228262975812" lon="8.722335426136851">
        <ele>1206.1099999999999</ele>
        <time>2014-03-15T12:43:47Z</time>
      </trkpt>
      <trkpt lat="45.929211499169469" lon="8.722377251833677">
        <ele>1205.6300000000001</ele>
        <time>2014-03-15T12:44:00Z</time>
      </trkpt>
      <trkpt lat="45.929227424785495" lon="8.72243701480329">
        <ele>1203.71</ele>
        <time>2014-03-15T12:44:13Z</time>
      </trkpt>
      <trkpt lat="45.929248463362455" lon="8.722510104998946">
        <ele>1202.27</ele>
        <time>2014-03-15T12:44:26Z</time>
      </trkpt>
      <trkpt lat="45.929262125864625" lon="8.722561905160546">
        <ele>1200.8199999999999</ele>
        <time>2014-03-15T12:44:39Z</time>
      </trkpt>
      <trkpt lat="45.929271848872304" lon="8.722610687837005">
        <ele>1199.8599999999999</ele>
        <time>2014-03-15T12:44:54Z</time>
      </trkpt>
      <trkpt lat="45.929283667355776" lon="8.722629714757204">
        <ele>1199.3800000000001</ele>
        <time>2014-03-15T12:45:21Z</time>
      </trkpt>
      <trkpt lat="45.929282745346427" lon="8.72267204336822">
        <ele>1198.4200000000001</ele>
        <time>2014-03-15T12:45:37Z</time>
      </trkpt>
      <trkpt lat="45.92928484082222" lon="8.722801459953189">
        <ele>1195.0599999999999</ele>
        <time>2014-03-15T12:45:48Z</time>
      </trkpt>
      <trkpt lat="45.92927947640419" lon="8.722864408046007">
        <ele>1193.6099999999999</ele>
        <time>2014-03-15T12:46:01Z</time>
      </trkpt>
      <trkpt lat="45.92929657548666" lon="8.722971528768539">
        <ele>1189.77</ele>
        <time>2014-03-15T12:46:11Z</time>
      </trkpt>
      <trkpt lat="45.929294815286994" lon="8.723097341135144">
        <ele>1188.3299999999999</ele>
        <time>2014-03-15T12:46:26Z</time>
      </trkpt>
      <trkpt lat="45.929268999025226" lon="8.723173532634974">
        <ele>1185.4400000000001</ele>
        <time>2014-03-15T12:46:35Z</time>
      </trkpt>
      <trkpt lat="45.92927654273808" lon="8.723357180133462">
        <ele>1182.5599999999999</ele>
        <time>2014-03-15T12:46:47Z</time>
      </trkpt>
      <trkpt lat="45.92928878031671" lon="8.723492296412587">
        <ele>1181.5999999999999</ele>
        <time>2014-03-15T12:46:57Z</time>
      </trkpt>
      <trkpt lat="45.929335886612535" lon="8.723700419068337">
        <ele>1179.1900000000001</ele>
        <time>2014-03-15T12:47:09Z</time>
      </trkpt>
      <trkpt lat="45.929377796128392" lon="8.723829500377178">
        <ele>1177.27</ele>
        <time>2014-03-15T12:47:18Z</time>
      </trkpt>
      <trkpt lat="45.929415598511696" lon="8.7239043507725">
        <ele>1175.3499999999999</ele>
        <time>2014-03-15T12:47:25Z</time>
      </trkpt>
      <trkpt lat="45.929504111409187" lon="8.724077437072992">
        <ele>1173.9100000000001</ele>
        <time>2014-03-15T12:47:40Z</time>
      </trkpt>
      <trkpt lat="45.929530179128051" lon="8.724302491173148">
        <ele>1174.8699999999999</ele>
        <time>2014-03-15T12:47:55Z</time>
      </trkpt>
      <trkpt lat="45.929535292088985" lon="8.72444037348032">
        <ele>1173.4300000000001</ele>
        <time>2014-03-15T12:48:04Z</time>
      </trkpt>
      <trkpt lat="45.929567897692323" lon="8.724649753421545">
        <ele>1171.02</ele>
        <time>2014-03-15T12:48:16Z</time>
      </trkpt>
      <trkpt lat="45.929577955976129" lon="8.724722759798169">
        <ele>1170.0599999999999</ele>
        <time>2014-03-15T12:48:20Z</time>
      </trkpt>
      <trkpt lat="45.929597401991487" lon="8.724831640720367">
        <ele>1169.0999999999999</ele>
        <time>2014-03-15T12:48:40Z</time>
      </trkpt>
      <trkpt lat="45.929610729217529" lon="8.724992908537388">
        <ele>1168.1400000000001</ele>
        <time>2014-03-15T12:48:50Z</time>
      </trkpt>
      <trkpt lat="45.929613662883639" lon="8.725233133882284">
        <ele>1166.22</ele>
        <time>2014-03-15T12:49:05Z</time>
      </trkpt>
      <trkpt lat="45.9295897744596" lon="8.725454499945045">
        <ele>1165.26</ele>
        <time>2014-03-15T12:49:18Z</time>
      </trkpt>
      <trkpt lat="45.929526574909687" lon="8.725694138556719">
        <ele>1162.8499999999999</ele>
        <time>2014-03-15T12:49:33Z</time>
      </trkpt>
      <trkpt lat="45.92947980388999" lon="8.725857082754374">
        <ele>1159.97</ele>
        <time>2014-03-15T12:49:47Z</time>
      </trkpt>
      <trkpt lat="45.929450215771794" lon="8.725900920107961">
        <ele>1157.5599999999999</ele>
        <time>2014-03-15T12:49:52Z</time>
      </trkpt>
      <trkpt lat="45.929422723129392" lon="8.726027403026819">
        <ele>1154.2</ele>
        <time>2014-03-15T12:50:07Z</time>
      </trkpt>
      <trkpt lat="45.929431105032563" lon="8.726022709161043">
        <ele>1153.72</ele>
        <time>2014-03-15T12:50:25Z</time>
      </trkpt>
      <trkpt lat="45.929435966536403" lon="8.726009465754032">
        <ele>1154.2</ele>
        <time>2014-03-15T12:50:44Z</time>
      </trkpt>
      <trkpt lat="45.929464884102345" lon="8.726177187636495">
        <ele>1152.76</ele>
        <time>2014-03-15T12:51:00Z</time>
      </trkpt>
      <trkpt lat="45.929466392844915" lon="8.726265365257859">
        <ele>1149.3900000000001</ele>
        <time>2014-03-15T12:51:11Z</time>
      </trkpt>
      <trkpt lat="45.929372766986489" lon="8.726301742717624">
        <ele>1146.03</ele>
        <time>2014-03-15T12:51:22Z</time>
      </trkpt>
      <trkpt lat="45.92932834289968" lon="8.726360835134983">
        <ele>1144.1099999999999</ele>
        <time>2014-03-15T12:51:29Z</time>
      </trkpt>
      <trkpt lat="45.929298084229231" lon="8.726431662216783">
        <ele>1140.74</ele>
        <time>2014-03-15T12:51:36Z</time>
      </trkpt>
      <trkpt lat="45.929276878014207" lon="8.726456891745329">
        <ele>1139.3</ele>
        <time>2014-03-15T12:51:39Z</time>
      </trkpt>
      <trkpt lat="45.929249301552773" lon="8.726475751027465">
        <ele>1138.3399999999999</ele>
        <time>2014-03-15T12:51:42Z</time>
      </trkpt>
      <trkpt lat="45.929195238277316" lon="8.726551942527294">
        <ele>1134.49</ele>
        <time>2014-03-15T12:51:49Z</time>
      </trkpt>
      <trkpt lat="45.929135978221893" lon="8.726655123755336">
        <ele>1131.1300000000001</ele>
        <time>2014-03-15T12:52:00Z</time>
      </trkpt>
      <trkpt lat="45.929116196930408" lon="8.726697871461511">
        <ele>1129.6900000000001</ele>
        <time>2014-03-15T12:52:13Z</time>
      </trkpt>
      <trkpt lat="45.929083004593849" lon="8.72671983204782">
        <ele>1128.73</ele>
        <time>2014-03-15T12:52:17Z</time>
      </trkpt>
      <trkpt lat="45.929059535264969" lon="8.726750090718269">
        <ele>1127.28</ele>
        <time>2014-03-15T12:52:20Z</time>
      </trkpt>
      <trkpt lat="45.929042268544436" lon="8.726833323016763">
        <ele>1124.8800000000001</ele>
        <time>2014-03-15T12:52:26Z</time>
      </trkpt>
      <trkpt lat="45.92911041341722" lon="8.726962320506573">
        <ele>1121.52</ele>
        <time>2014-03-15T12:52:37Z</time>
      </trkpt>
      <trkpt lat="45.929253324866295" lon="8.727023676037788">
        <ele>1118.6300000000001</ele>
        <time>2014-03-15T12:52:52Z</time>
      </trkpt>
      <trkpt lat="45.929381484165788" lon="8.72709165327251">
        <ele>1115.27</ele>
        <time>2014-03-15T12:53:05Z</time>
      </trkpt>
      <trkpt lat="45.929453233256936" lon="8.727167509496212">
        <ele>1112.8599999999999</ele>
        <time>2014-03-15T12:53:19Z</time>
      </trkpt>
      <trkpt lat="45.92954233288765" lon="8.727240515872836">
        <ele>1109.98</ele>
        <time>2014-03-15T12:53:32Z</time>
      </trkpt>
      <trkpt lat="45.929601844400167" lon="8.727335566654801">
        <ele>1107.0999999999999</ele>
        <time>2014-03-15T12:53:44Z</time>
      </trkpt>
      <trkpt lat="45.929688261821866" lon="8.727418966591358">
        <ele>1103.73</ele>
        <time>2014-03-15T12:53:55Z</time>
      </trkpt>
      <trkpt lat="45.929768308997154" lon="8.727559531107545">
        <ele>1100.8499999999999</ele>
        <time>2014-03-15T12:54:09Z</time>
      </trkpt>
      <trkpt lat="45.929798148572445" lon="8.727601943537593">
        <ele>1099.8900000000001</ele>
        <time>2014-03-15T12:54:14Z</time>
      </trkpt>
      <trkpt lat="45.929869646206498" lon="8.727727923542261">
        <ele>1096.52</ele>
        <time>2014-03-15T12:54:25Z</time>
      </trkpt>
      <trkpt lat="45.929914489388466" lon="8.727854657918215">
        <ele>1093.1600000000001</ele>
        <time>2014-03-15T12:54:35Z</time>
      </trkpt>
      <trkpt lat="45.929917087778449" lon="8.727971417829394">
        <ele>1090.27</ele>
        <time>2014-03-15T12:54:43Z</time>
      </trkpt>
      <trkpt lat="45.92993963509798" lon="8.728062864392996">
        <ele>1087.8699999999999</ele>
        <time>2014-03-15T12:54:50Z</time>
      </trkpt>
      <trkpt lat="45.929986741393805" lon="8.728196220472455">
        <ele>1084.99</ele>
        <time>2014-03-15T12:55:00Z</time>
      </trkpt>
      <trkpt lat="45.929999314248562" lon="8.728371569886804">
        <ele>1081.1400000000001</ele>
        <time>2014-03-15T12:55:12Z</time>
      </trkpt>
      <trkpt lat="45.930001577362418" lon="8.728559827432036">
        <ele>1078.26</ele>
        <time>2014-03-15T12:55:26Z</time>
      </trkpt>
      <trkpt lat="45.929963691160083" lon="8.728694776073098">
        <ele>1074.8900000000001</ele>
        <time>2014-03-15T12:55:39Z</time>
      </trkpt>
      <trkpt lat="45.929926978424191" lon="8.72882679104805">
        <ele>1072.01</ele>
        <time>2014-03-15T12:55:50Z</time>
      </trkpt>
      <trkpt lat="45.929927732795477" lon="8.728842046111822">
        <ele>1071.53</ele>
        <time>2014-03-15T12:55:51Z</time>
      </trkpt>
      <trkpt lat="45.929899401962757" lon="8.72904715128243">
        <ele>1067.6800000000001</ele>
        <time>2014-03-15T12:56:05Z</time>
      </trkpt>
      <trkpt lat="45.929874340072274" lon="8.72917371802032">
        <ele>1065.28</ele>
        <time>2014-03-15T12:56:14Z</time>
      </trkpt>
      <trkpt lat="45.929847434163094" lon="8.729360215365887">
        <ele>1062.3900000000001</ele>
        <time>2014-03-15T12:56:25Z</time>
      </trkpt>
      <trkpt lat="45.929841566830873" lon="8.729510670527816">
        <ele>1059.99</ele>
        <time>2014-03-15T12:56:33Z</time>
      </trkpt>
      <trkpt lat="45.929879955947399" lon="8.729796325787902">
        <ele>1058.0699999999999</ele>
        <time>2014-03-15T12:56:48Z</time>
      </trkpt>
      <trkpt lat="45.929943826049566" lon="8.730090782046318">
        <ele>1056.6300000000001</ele>
        <time>2014-03-15T12:57:04Z</time>
      </trkpt>
      <trkpt lat="45.929942149668932" lon="8.73033813200891">
        <ele>1057.1099999999999</ele>
        <time>2014-03-15T12:57:19Z</time>
      </trkpt>
      <trkpt lat="45.929942401126027" lon="8.73031516559422">
        <ele>1103.25</ele>
        <time>2014-03-15T12:57:46Z</time>
      </trkpt>
      <trkpt lat="45.929931839928031" lon="8.730427734553814">
        <ele>1103.73</ele>
        <time>2014-03-15T12:57:52Z</time>
      </trkpt>
      <trkpt lat="45.929940892383456" lon="8.730379370972514">
        <ele>1103.25</ele>
        <time>2014-03-15T12:58:22Z</time>
      </trkpt>
      <trkpt lat="45.92993276193738" lon="8.730376856401563">
        <ele>1102.29</ele>
        <time>2014-03-15T12:58:39Z</time>
      </trkpt>
      <trkpt lat="45.929937455803156" lon="8.730389093980193">
        <ele>1102.29</ele>
        <time>2014-03-15T12:58:48Z</time>
      </trkpt>
      <trkpt lat="45.929932426661253" lon="8.730655973777175">
        <ele>1098.9200000000001</ele>
        <time>2014-03-15T12:59:03Z</time>
      </trkpt>
      <trkpt lat="45.929888589307666" lon="8.730834592133761">
        <ele>1096.04</ele>
        <time>2014-03-15T12:59:13Z</time>
      </trkpt>
      <trkpt lat="45.929836537688971" lon="8.731001643463969">
        <ele>1092.6800000000001</ele>
        <time>2014-03-15T12:59:23Z</time>
      </trkpt>
      <trkpt lat="45.929766297340393" lon="8.731158217415214">
        <ele>1089.79</ele>
        <time>2014-03-15T12:59:32Z</time>
      </trkpt>
      <trkpt lat="45.929746180772781" lon="8.731269026175141">
        <ele>1087.8699999999999</ele>
        <time>2014-03-15T12:59:39Z</time>
      </trkpt>
      <trkpt lat="45.929686333984137" lon="8.731452086940408">
        <ele>1085.47</ele>
        <time>2014-03-15T12:59:55Z</time>
      </trkpt>
      <trkpt lat="45.929704019799829" lon="8.731601536273956">
        <ele>1085.47</ele>
        <time>2014-03-15T13:00:17Z</time>
      </trkpt>
      <trkpt lat="45.929711228236556" lon="8.731629531830549">
        <ele>1085.47</ele>
        <time>2014-03-15T13:00:19Z</time>
      </trkpt>
      <trkpt lat="45.929753808304667" lon="8.731888951733708">
        <ele>1084.5</ele>
        <time>2014-03-15T13:00:34Z</time>
      </trkpt>
      <trkpt lat="45.929781217128038" lon="8.732132026925683">
        <ele>1083.54</ele>
        <time>2014-03-15T13:00:50Z</time>
      </trkpt>
      <trkpt lat="45.929799908772111" lon="8.732291450724006">
        <ele>1082.5799999999999</ele>
        <time>2014-03-15T13:01:08Z</time>
      </trkpt>
      <trkpt lat="45.929759927093983" lon="8.732475684955716">
        <ele>1082.5799999999999</ele>
        <time>2014-03-15T13:01:20Z</time>
      </trkpt>
      <trkpt lat="45.929744252935052" lon="8.732554307207465">
        <ele>1082.5799999999999</ele>
        <time>2014-03-15T13:01:24Z</time>
      </trkpt>
      <trkpt lat="45.929688178002834" lon="8.732752623036504">
        <ele>1083.0599999999999</ele>
        <time>2014-03-15T13:01:38Z</time>
      </trkpt>
      <trkpt lat="45.929628247395158" lon="8.732947502285242">
        <ele>1083.54</ele>
        <time>2014-03-15T13:01:50Z</time>
      </trkpt>
      <trkpt lat="45.929665546864271" lon="8.733183201402426">
        <ele>1083.54</ele>
        <time>2014-03-15T13:02:05Z</time>
      </trkpt>
      <trkpt lat="45.92972170561552" lon="8.733350755646825">
        <ele>1083.54</ele>
        <time>2014-03-15T13:02:17Z</time>
      </trkpt>
      <trkpt lat="45.929730841889977" lon="8.733586454764009">
        <ele>1084.5</ele>
        <time>2014-03-15T13:02:31Z</time>
      </trkpt>
      <trkpt lat="45.929730255156755" lon="8.733626017346978">
        <ele>1084.5</ele>
        <time>2014-03-15T13:02:34Z</time>
      </trkpt>
      <trkpt lat="45.929662780836225" lon="8.73391879722476">
        <ele>1084.5</ele>
        <time>2014-03-15T13:02:50Z</time>
      </trkpt>
      <trkpt lat="45.929593462496996" lon="8.734179558232427">
        <ele>1085.47</ele>
        <time>2014-03-15T13:03:06Z</time>
      </trkpt>
      <trkpt lat="45.929539147764444" lon="8.734465800225735">
        <ele>1085.47</ele>
        <time>2014-03-15T13:03:22Z</time>
      </trkpt>
      <trkpt lat="45.929562030360103" lon="8.734693201258779">
        <ele>1085.47</ele>
        <time>2014-03-15T13:03:36Z</time>
      </trkpt>
      <trkpt lat="45.929595474153757" lon="8.734909621998668">
        <ele>1086.9100000000001</ele>
        <time>2014-03-15T13:03:50Z</time>
      </trkpt>
      <trkpt lat="45.929587762802839" lon="8.735151356086135">
        <ele>1086.9100000000001</ele>
        <time>2014-03-15T13:04:03Z</time>
      </trkpt>
      <trkpt lat="45.929564461112022" lon="8.735235007479787">
        <ele>1086.9100000000001</ele>
        <time>2014-03-15T13:04:08Z</time>
      </trkpt>
      <trkpt lat="45.929528586566448" lon="8.735319748520851">
        <ele>1087.3900000000001</ele>
        <time>2014-03-15T13:04:14Z</time>
      </trkpt>
      <trkpt lat="45.929478462785482" lon="8.735424606129527">
        <ele>1087.8699999999999</ele>
        <time>2014-03-15T13:04:21Z</time>
      </trkpt>
      <trkpt lat="45.929385926574469" lon="8.735497277230024">
        <ele>1088.3499999999999</ele>
        <time>2014-03-15T13:04:36Z</time>
      </trkpt>
      <trkpt lat="45.92931124381721" lon="8.73556743375957">
        <ele>1088.3499999999999</ele>
        <time>2014-03-15T13:04:48Z</time>
      </trkpt>
      <trkpt lat="45.929119884967804" lon="8.735669106245041">
        <ele>1088.8299999999999</ele>
        <time>2014-03-15T13:05:04Z</time>
      </trkpt>
      <trkpt lat="45.929106809198856" lon="8.735677823424339">
        <ele>1089.3099999999999</ele>
        <time>2014-03-15T13:05:05Z</time>
      </trkpt>
      <trkpt lat="45.928948558866978" lon="8.735768599435687">
        <ele>1089.79</ele>
        <time>2014-03-15T13:05:20Z</time>
      </trkpt>
      <trkpt lat="45.928997173905373" lon="8.736033719033003">
        <ele>1087.8699999999999</ele>
        <time>2014-03-15T13:05:37Z</time>
      </trkpt>
      <trkpt lat="45.929092140868306" lon="8.73629548586905">
        <ele>1084.99</ele>
        <time>2014-03-15T13:05:52Z</time>
      </trkpt>
      <trkpt lat="45.929129775613546" lon="8.73659698292613">
        <ele>1082.0999999999999</ele>
        <time>2014-03-15T13:06:07Z</time>
      </trkpt>
      <trkpt lat="45.929100438952446" lon="8.736678538843989">
        <ele>1081.1400000000001</ele>
        <time>2014-03-15T13:06:11Z</time>
      </trkpt>
      <trkpt lat="45.92891494743526" lon="8.736815080046654">
        <ele>1079.22</ele>
        <time>2014-03-15T13:06:27Z</time>
      </trkpt>
      <trkpt lat="45.928931962698698" lon="8.737034937366843">
        <ele>1076.3299999999999</ele>
        <time>2014-03-15T13:06:43Z</time>
      </trkpt>
      <trkpt lat="45.929042687639594" lon="8.737136106938124">
        <ele>1074.4100000000001</ele>
        <time>2014-03-15T13:06:58Z</time>
      </trkpt>
      <trkpt lat="45.929082920774817" lon="8.737177094444633">
        <ele>1073.9300000000001</ele>
        <time>2014-03-15T13:07:02Z</time>
      </trkpt>
      <trkpt lat="45.929097589105368" lon="8.737202910706401">
        <ele>1073.45</ele>
        <time>2014-03-15T13:07:04Z</time>
      </trkpt>
      <trkpt lat="45.929136397317052" lon="8.737328052520752">
        <ele>1072.01</ele>
        <time>2014-03-15T13:07:12Z</time>
      </trkpt>
      <trkpt lat="45.929185096174479" lon="8.737373650074005">
        <ele>1071.53</ele>
        <time>2014-03-15T13:07:18Z</time>
      </trkpt>
      <trkpt lat="45.929242512211204" lon="8.737457804381847">
        <ele>1069.5999999999999</ele>
        <time>2014-03-15T13:07:26Z</time>
      </trkpt>
      <trkpt lat="45.929245529696345" lon="8.737515639513731">
        <ele>1069.5999999999999</ele>
        <time>2014-03-15T13:07:29Z</time>
      </trkpt>
      <trkpt lat="45.929209403693676" lon="8.737598620355129">
        <ele>1069.1199999999999</ele>
        <time>2014-03-15T13:07:41Z</time>
      </trkpt>
      <trkpt lat="45.92914754524827" lon="8.737660478800535">
        <ele>1068.6400000000001</ele>
        <time>2014-03-15T13:07:47Z</time>
      </trkpt>
      <trkpt lat="45.929094320163131" lon="8.737725019454956">
        <ele>1068.1600000000001</ele>
        <time>2014-03-15T13:07:52Z</time>
      </trkpt>
      <trkpt lat="45.929062301293015" lon="8.737740693613887">
        <ele>1067.2</ele>
        <time>2014-03-15T13:07:55Z</time>
      </trkpt>
      <trkpt lat="45.929012428969145" lon="8.737755613401532">
        <ele>1066.72</ele>
        <time>2014-03-15T13:07:59Z</time>
      </trkpt>
      <trkpt lat="45.928948139771819" lon="8.737766090780497">
        <ele>1066.24</ele>
        <time>2014-03-15T13:08:04Z</time>
      </trkpt>
      <trkpt lat="45.928882677108049" lon="8.737790733575821">
        <ele>1065.28</ele>
        <time>2014-03-15T13:08:10Z</time>
      </trkpt>
      <trkpt lat="45.928838085383177" lon="8.737768856808543">
        <ele>1064.3199999999999</ele>
        <time>2014-03-15T13:08:25Z</time>
      </trkpt>
      <trkpt lat="45.928752841427922" lon="8.737825183197856">
        <ele>1063.3599999999999</ele>
        <time>2014-03-15T13:08:35Z</time>
      </trkpt>
      <trkpt lat="45.928584281355143" lon="8.737918892875314">
        <ele>1060.95</ele>
        <time>2014-03-15T13:08:51Z</time>
      </trkpt>
      <trkpt lat="45.92853038571775" lon="8.738016793504357">
        <ele>1059.99</ele>
        <time>2014-03-15T13:08:59Z</time>
      </trkpt>
      <trkpt lat="45.928470455110073" lon="8.738291887566447">
        <ele>1057.5899999999999</ele>
        <time>2014-03-15T13:09:17Z</time>
      </trkpt>
      <trkpt lat="45.928421253338456" lon="8.738510487601161">
        <ele>1055.6700000000001</ele>
        <time>2014-03-15T13:09:31Z</time>
      </trkpt>
      <trkpt lat="45.928378170356154" lon="8.738732021301985">
        <ele>1053.74</ele>
        <time>2014-03-15T13:09:47Z</time>
      </trkpt>
      <trkpt lat="45.92829586006701" lon="8.738888511434197">
        <ele>1052.3</ele>
        <time>2014-03-15T13:10:01Z</time>
      </trkpt>
      <trkpt lat="45.928291501477361" lon="8.73891893774271">
        <ele>1051.8199999999999</ele>
        <time>2014-03-15T13:10:03Z</time>
      </trkpt>
      <trkpt lat="45.928253279998899" lon="8.739073080942035">
        <ele>1050.8599999999999</ele>
        <time>2014-03-15T13:10:13Z</time>
      </trkpt>
      <trkpt lat="45.928285801783204" lon="8.739281035959721">
        <ele>1048.9400000000001</ele>
        <time>2014-03-15T13:10:25Z</time>
      </trkpt>
      <trkpt lat="45.928297368809581" lon="8.739329902455211">
        <ele>1048.9400000000001</ele>
        <time>2014-03-15T13:10:29Z</time>
      </trkpt>
      <trkpt lat="45.928308516740799" lon="8.73939829878509">
        <ele>1048.9400000000001</ele>
        <time>2014-03-15T13:10:34Z</time>
      </trkpt>
      <trkpt lat="45.928322765976191" lon="8.739618994295597">
        <ele>1050.8599999999999</ele>
        <time>2014-03-15T13:10:49Z</time>
      </trkpt>
      <trkpt lat="45.928310779854655" lon="8.739758804440498">
        <ele>1052.78</ele>
        <time>2014-03-15T13:11:02Z</time>
      </trkpt>
      <trkpt lat="45.928256046026945" lon="8.739961478859186">
        <ele>1052.78</ele>
        <time>2014-03-15T13:11:16Z</time>
      </trkpt>
      <trkpt lat="45.928227379918098" lon="8.740061307325959">
        <ele>1054.7</ele>
        <time>2014-03-15T13:11:28Z</time>
      </trkpt>
      <trkpt lat="45.928223188966513" lon="8.740095002576709">
        <ele>1053.74</ele>
        <time>2014-03-15T13:11:48Z</time>
      </trkpt>
      <trkpt lat="45.928226877003908" lon="8.740295665338635">
        <ele>1055.1800000000001</ele>
        <time>2014-03-15T13:12:01Z</time>
      </trkpt>
      <trkpt lat="45.928221764042974" lon="8.740507559850812">
        <ele>1057.1099999999999</ele>
        <time>2014-03-15T13:12:15Z</time>
      </trkpt>
      <trkpt lat="45.928171472623944" lon="8.74075566418469">
        <ele>1059.03</ele>
        <time>2014-03-15T13:12:31Z</time>
      </trkpt>
      <trkpt lat="45.928145572543144" lon="8.740957248955965">
        <ele>1059.99</ele>
        <time>2014-03-15T13:12:43Z</time>
      </trkpt>
      <trkpt lat="45.92814196832478" lon="8.740978622809053">
        <ele>1059.99</ele>
        <time>2014-03-15T13:12:45Z</time>
      </trkpt>
      <trkpt lat="45.928118331357837" lon="8.741147015243769">
        <ele>1061.4300000000001</ele>
        <time>2014-03-15T13:12:57Z</time>
      </trkpt>
      <trkpt lat="45.928077511489391" lon="8.741328399628401">
        <ele>1061.9100000000001</ele>
        <time>2014-03-15T13:13:10Z</time>
      </trkpt>
      <trkpt lat="45.928055718541145" lon="8.741431832313538">
        <ele>1063.3599999999999</ele>
        <time>2014-03-15T13:13:16Z</time>
      </trkpt>
      <trkpt lat="45.928037948906422" lon="8.741573402658105">
        <ele>1063.8399999999999</ele>
        <time>2014-03-15T13:13:26Z</time>
      </trkpt>
      <trkpt lat="45.928085222840309" lon="8.741873977705836">
        <ele>1066.72</ele>
        <time>2014-03-15T13:13:44Z</time>
      </trkpt>
      <trkpt lat="45.928116403520107" lon="8.742037173360586">
        <ele>1068.6400000000001</ele>
        <time>2014-03-15T13:13:57Z</time>
      </trkpt>
      <trkpt lat="45.928122857585549" lon="8.742078244686127">
        <ele>1069.5999999999999</ele>
        <time>2014-03-15T13:14:01Z</time>
      </trkpt>
      <trkpt lat="45.928151272237301" lon="8.742194334045053">
        <ele>1070.5699999999999</ele>
        <time>2014-03-15T13:14:15Z</time>
      </trkpt>
      <trkpt lat="45.9282186627388" lon="8.742277147248387">
        <ele>1071.53</ele>
        <time>2014-03-15T13:14:30Z</time>
      </trkpt>
      <trkpt lat="45.928229810670018" lon="8.742261305451393">
        <ele>1072.01</ele>
        <time>2014-03-15T13:14:47Z</time>
      </trkpt>
      <trkpt lat="45.928245987743139" lon="8.742250073701143">
        <ele>1071.53</ele>
        <time>2014-03-15T13:15:09Z</time>
      </trkpt>
    </trkseg>
  </trk>

</gpx>